<?xml version="1.0" encoding="UTF-8" standalone="no" ?>
<gpx xmlns="http://www.topografix.com/GPX/1/1" xmlns:xsi="http://www.w3.org/2001/XMLSchema-instance" xsi:schemaLocation="http://www.topografix.com/GPX/1/1 http://www.topografix.com/GPX/1/1/gpx.xsd" version="1.1" creator="VisuGPX - https://www.visugpx.com">
  <metadata>
    <name>Sardaigne Corse</name>
    <desc><![CDATA[En octobre 2017 au départ de Portisco
6 membres d'équipage avec
Julien Bruno Frédéric Benjamin Sébastien 
embarqué sur Dufour 412]]></desc>
  </metadata>
  <trk>
    <name><![CDATA[Tracé actuel: 08 OCT 2017 09:06]]></name>
    <trkseg>
      <trkpt lat="41.03241" lon="9.52429">
        <ele>5.42</ele>
        <time>2017-10-08T08:06:02Z</time>
      </trkpt>
      <trkpt lat="41.0324" lon="9.52447">
        <ele>5.91</ele>
        <time>2017-10-08T08:06:24Z</time>
      </trkpt>
      <trkpt lat="41.0324" lon="9.52448">
        <ele>5.91</ele>
        <time>2017-10-08T08:06:25Z</time>
      </trkpt>
      <trkpt lat="41.03255" lon="9.52457">
        <ele>5.91</ele>
        <time>2017-10-08T08:06:45Z</time>
      </trkpt>
      <trkpt lat="41.03273" lon="9.52457">
        <ele>3.98</ele>
        <time>2017-10-08T08:07:05Z</time>
      </trkpt>
      <trkpt lat="41.0329" lon="9.52453">
        <ele>5.91</ele>
        <time>2017-10-08T08:07:21Z</time>
      </trkpt>
      <trkpt lat="41.03293" lon="9.52453">
        <ele>6.87</ele>
        <time>2017-10-08T08:07:23Z</time>
      </trkpt>
      <trkpt lat="41.03297" lon="9.52451">
        <ele>7.83</ele>
        <time>2017-10-08T08:07:27Z</time>
      </trkpt>
      <trkpt lat="41.03315" lon="9.52449">
        <ele>8.79</ele>
        <time>2017-10-08T08:07:45Z</time>
      </trkpt>
      <trkpt lat="41.03315" lon="9.5245">
        <ele>8.79</ele>
        <time>2017-10-08T08:07:46Z</time>
      </trkpt>
      <trkpt lat="41.03321" lon="9.52451">
        <ele>9.27</ele>
        <time>2017-10-08T08:07:51Z</time>
      </trkpt>
      <trkpt lat="41.03325" lon="9.5245">
        <ele>10.23</ele>
        <time>2017-10-08T08:07:55Z</time>
      </trkpt>
      <trkpt lat="41.03338" lon="9.52453">
        <ele>7.35</ele>
        <time>2017-10-08T08:08:07Z</time>
      </trkpt>
      <trkpt lat="41.03342" lon="9.52455">
        <ele>6.87</ele>
        <time>2017-10-08T08:08:11Z</time>
      </trkpt>
      <trkpt lat="41.03363" lon="9.52471">
        <ele>7.35</ele>
        <time>2017-10-08T08:08:32Z</time>
      </trkpt>
      <trkpt lat="41.03366" lon="9.52499">
        <ele>5.91</ele>
        <time>2017-10-08T08:08:53Z</time>
      </trkpt>
      <trkpt lat="41.0336" lon="9.52511">
        <ele>3.98</ele>
        <time>2017-10-08T08:09:04Z</time>
      </trkpt>
      <trkpt lat="41.0336" lon="9.52512">
        <ele>3.98</ele>
        <time>2017-10-08T08:09:05Z</time>
      </trkpt>
      <trkpt lat="41.03352" lon="9.52526">
        <ele>5.42</ele>
        <time>2017-10-08T08:09:17Z</time>
      </trkpt>
      <trkpt lat="41.03339" lon="9.52541">
        <ele>7.83</ele>
        <time>2017-10-08T08:09:36Z</time>
      </trkpt>
      <trkpt lat="41.03334" lon="9.52544">
        <ele>7.83</ele>
        <time>2017-10-08T08:09:41Z</time>
      </trkpt>
      <trkpt lat="41.0332" lon="9.52552">
        <ele>7.35</ele>
        <time>2017-10-08T08:09:57Z</time>
      </trkpt>
      <trkpt lat="41.03312" lon="9.5256">
        <ele>7.35</ele>
        <time>2017-10-08T08:10:09Z</time>
      </trkpt>
      <trkpt lat="41.03302" lon="9.52568">
        <ele>5.91</ele>
        <time>2017-10-08T08:10:25Z</time>
      </trkpt>
      <trkpt lat="41.03296" lon="9.52574">
        <ele>6.87</ele>
        <time>2017-10-08T08:10:33Z</time>
      </trkpt>
      <trkpt lat="41.03284" lon="9.52581">
        <ele>5.91</ele>
        <time>2017-10-08T08:10:44Z</time>
      </trkpt>
      <trkpt lat="41.03266" lon="9.52589">
        <ele>4.94</ele>
        <time>2017-10-08T08:10:59Z</time>
      </trkpt>
      <trkpt lat="41.0324" lon="9.52607">
        <ele>5.42</ele>
        <time>2017-10-08T08:11:17Z</time>
      </trkpt>
      <trkpt lat="41.03226" lon="9.52632">
        <ele>3.5</ele>
        <time>2017-10-08T08:11:31Z</time>
      </trkpt>
      <trkpt lat="41.03221" lon="9.52676">
        <ele>3.5</ele>
        <time>2017-10-08T08:11:50Z</time>
      </trkpt>
      <trkpt lat="41.03233" lon="9.52706">
        <ele>2.06</ele>
        <time>2017-10-08T08:12:04Z</time>
      </trkpt>
      <trkpt lat="41.03254" lon="9.52739">
        <ele>2.54</ele>
        <time>2017-10-08T08:12:21Z</time>
      </trkpt>
      <trkpt lat="41.03282" lon="9.52767">
        <ele>3.5</ele>
        <time>2017-10-08T08:12:38Z</time>
      </trkpt>
      <trkpt lat="41.03307" lon="9.5279">
        <ele>3.02</ele>
        <time>2017-10-08T08:12:53Z</time>
      </trkpt>
      <trkpt lat="41.0333" lon="9.52813">
        <ele>3.02</ele>
        <time>2017-10-08T08:13:07Z</time>
      </trkpt>
      <trkpt lat="41.03335" lon="9.52818">
        <ele>2.54</ele>
        <time>2017-10-08T08:13:10Z</time>
      </trkpt>
      <trkpt lat="41.03373" lon="9.52857">
        <ele>2.54</ele>
        <time>2017-10-08T08:13:34Z</time>
      </trkpt>
      <trkpt lat="41.03407" lon="9.52888">
        <ele>3.5</ele>
        <time>2017-10-08T08:13:54Z</time>
      </trkpt>
      <trkpt lat="41.03449" lon="9.52922">
        <ele>3.02</ele>
        <time>2017-10-08T08:14:18Z</time>
      </trkpt>
      <trkpt lat="41.03486" lon="9.52952">
        <ele>3.02</ele>
        <time>2017-10-08T08:14:39Z</time>
      </trkpt>
      <trkpt lat="41.03529" lon="9.52989">
        <ele>3.5</ele>
        <time>2017-10-08T08:15:04Z</time>
      </trkpt>
      <trkpt lat="41.03562" lon="9.53019">
        <ele>2.54</ele>
        <time>2017-10-08T08:15:24Z</time>
      </trkpt>
      <trkpt lat="41.03597" lon="9.53054">
        <ele>1.58</ele>
        <time>2017-10-08T08:15:46Z</time>
      </trkpt>
      <trkpt lat="41.03627" lon="9.53081">
        <ele>1.58</ele>
        <time>2017-10-08T08:16:04Z</time>
      </trkpt>
      <trkpt lat="41.03656" lon="9.53107">
        <ele>2.06</ele>
        <time>2017-10-08T08:16:21Z</time>
      </trkpt>
      <trkpt lat="41.03699" lon="9.53143">
        <ele>3.02</ele>
        <time>2017-10-08T08:16:47Z</time>
      </trkpt>
      <trkpt lat="41.03728" lon="9.53174">
        <ele>3.5</ele>
        <time>2017-10-08T08:17:05Z</time>
      </trkpt>
      <trkpt lat="41.03753" lon="9.5321">
        <ele>3.02</ele>
        <time>2017-10-08T08:17:23Z</time>
      </trkpt>
      <trkpt lat="41.03791" lon="9.53249">
        <ele>2.06</ele>
        <time>2017-10-08T08:17:46Z</time>
      </trkpt>
      <trkpt lat="41.0382" lon="9.53276">
        <ele>2.06</ele>
        <time>2017-10-08T08:18:03Z</time>
      </trkpt>
      <trkpt lat="41.03852" lon="9.53305">
        <ele>2.54</ele>
        <time>2017-10-08T08:18:22Z</time>
      </trkpt>
      <trkpt lat="41.03885" lon="9.53334">
        <ele>2.06</ele>
        <time>2017-10-08T08:18:41Z</time>
      </trkpt>
      <trkpt lat="41.03917" lon="9.53361">
        <ele>1.58</ele>
        <time>2017-10-08T08:18:59Z</time>
      </trkpt>
      <trkpt lat="41.03964" lon="9.53394">
        <ele>1.58</ele>
        <time>2017-10-08T08:19:24Z</time>
      </trkpt>
      <trkpt lat="41.04" lon="9.53425">
        <ele>1.58</ele>
        <time>2017-10-08T08:19:44Z</time>
      </trkpt>
      <trkpt lat="41.04032" lon="9.53452">
        <ele>1.58</ele>
        <time>2017-10-08T08:20:01Z</time>
      </trkpt>
      <trkpt lat="41.04078" lon="9.53486">
        <ele>3.02</ele>
        <time>2017-10-08T08:20:25Z</time>
      </trkpt>
      <trkpt lat="41.04103" lon="9.53511">
        <ele>3.02</ele>
        <time>2017-10-08T08:20:40Z</time>
      </trkpt>
      <trkpt lat="41.04131" lon="9.53549">
        <ele>3.5</ele>
        <time>2017-10-08T08:20:58Z</time>
      </trkpt>
      <trkpt lat="41.04164" lon="9.53595">
        <ele>3.5</ele>
        <time>2017-10-08T08:21:20Z</time>
      </trkpt>
      <trkpt lat="41.04193" lon="9.53637">
        <ele>3.5</ele>
        <time>2017-10-08T08:21:39Z</time>
      </trkpt>
      <trkpt lat="41.04224" lon="9.53631">
        <ele>3.02</ele>
        <time>2017-10-08T08:21:53Z</time>
      </trkpt>
      <trkpt lat="41.04242" lon="9.53604">
        <ele>3.02</ele>
        <time>2017-10-08T08:22:08Z</time>
      </trkpt>
      <trkpt lat="41.04244" lon="9.53563">
        <ele>2.54</ele>
        <time>2017-10-08T08:22:26Z</time>
      </trkpt>
      <trkpt lat="41.04227" lon="9.53532">
        <ele>2.06</ele>
        <time>2017-10-08T08:22:41Z</time>
      </trkpt>
      <trkpt lat="41.04199" lon="9.53509">
        <ele>1.1</ele>
        <time>2017-10-08T08:22:58Z</time>
      </trkpt>
      <trkpt lat="41.04189" lon="9.53518">
        <ele>0.62</ele>
        <time>2017-10-08T08:23:03Z</time>
      </trkpt>
      <trkpt lat="41.04195" lon="9.53552">
        <ele>1.1</ele>
        <time>2017-10-08T08:23:17Z</time>
      </trkpt>
      <trkpt lat="41.04217" lon="9.53582">
        <ele>3.5</ele>
        <time>2017-10-08T08:23:35Z</time>
      </trkpt>
      <trkpt lat="41.04242" lon="9.53612">
        <ele>3.98</ele>
        <time>2017-10-08T08:23:53Z</time>
      </trkpt>
      <trkpt lat="41.04272" lon="9.53645">
        <ele>3.98</ele>
        <time>2017-10-08T08:24:12Z</time>
      </trkpt>
      <trkpt lat="41.04298" lon="9.53674">
        <ele>4.46</ele>
        <time>2017-10-08T08:24:30Z</time>
      </trkpt>
      <trkpt lat="41.04325" lon="9.53702">
        <ele>4.94</ele>
        <time>2017-10-08T08:24:49Z</time>
      </trkpt>
      <trkpt lat="41.04345" lon="9.5372">
        <ele>4.46</ele>
        <time>2017-10-08T08:25:01Z</time>
      </trkpt>
      <trkpt lat="41.04382" lon="9.53756">
        <ele>3.5</ele>
        <time>2017-10-08T08:25:21Z</time>
      </trkpt>
      <trkpt lat="41.04414" lon="9.53787">
        <ele>3.98</ele>
        <time>2017-10-08T08:25:35Z</time>
      </trkpt>
      <trkpt lat="41.04454" lon="9.53826">
        <ele>2.54</ele>
        <time>2017-10-08T08:25:52Z</time>
      </trkpt>
      <trkpt lat="41.0449" lon="9.53851">
        <ele>2.06</ele>
        <time>2017-10-08T08:26:05Z</time>
      </trkpt>
      <trkpt lat="41.04545" lon="9.53876">
        <ele>2.54</ele>
        <time>2017-10-08T08:26:23Z</time>
      </trkpt>
      <trkpt lat="41.04593" lon="9.53909">
        <ele>2.54</ele>
        <time>2017-10-08T08:26:39Z</time>
      </trkpt>
      <trkpt lat="41.04632" lon="9.53946">
        <ele>2.06</ele>
        <time>2017-10-08T08:26:54Z</time>
      </trkpt>
      <trkpt lat="41.04668" lon="9.53985">
        <ele>1.58</ele>
        <time>2017-10-08T08:27:10Z</time>
      </trkpt>
      <trkpt lat="41.04702" lon="9.54017">
        <ele>2.06</ele>
        <time>2017-10-08T08:27:24Z</time>
      </trkpt>
      <trkpt lat="41.04737" lon="9.54052">
        <ele>1.58</ele>
        <time>2017-10-08T08:27:39Z</time>
      </trkpt>
      <trkpt lat="41.04778" lon="9.54086">
        <ele>1.1</ele>
        <time>2017-10-08T08:27:56Z</time>
      </trkpt>
      <trkpt lat="41.04822" lon="9.54116">
        <ele>0.62</ele>
        <time>2017-10-08T08:28:13Z</time>
      </trkpt>
      <trkpt lat="41.04862" lon="9.54147">
        <ele>0.62</ele>
        <time>2017-10-08T08:28:28Z</time>
      </trkpt>
      <trkpt lat="41.049" lon="9.54177">
        <ele>1.1</ele>
        <time>2017-10-08T08:28:41Z</time>
      </trkpt>
      <trkpt lat="41.04927" lon="9.54196">
        <ele>1.1</ele>
        <time>2017-10-08T08:28:49Z</time>
      </trkpt>
      <trkpt lat="41.04938" lon="9.54204">
        <ele>1.58</ele>
        <time>2017-10-08T08:28:52Z</time>
      </trkpt>
      <trkpt lat="41.04948" lon="9.54209">
        <ele>1.58</ele>
        <time>2017-10-08T08:28:55Z</time>
      </trkpt>
      <trkpt lat="41.04955" lon="9.54215">
        <ele>1.1</ele>
        <time>2017-10-08T08:28:57Z</time>
      </trkpt>
      <trkpt lat="41.04979" lon="9.54232">
        <ele>2.06</ele>
        <time>2017-10-08T08:29:04Z</time>
      </trkpt>
      <trkpt lat="41.0499" lon="9.54238">
        <ele>2.54</ele>
        <time>2017-10-08T08:29:07Z</time>
      </trkpt>
      <trkpt lat="41.05005" lon="9.54245">
        <ele>2.54</ele>
        <time>2017-10-08T08:29:11Z</time>
      </trkpt>
      <trkpt lat="41.05026" lon="9.54258">
        <ele>3.02</ele>
        <time>2017-10-08T08:29:17Z</time>
      </trkpt>
      <trkpt lat="41.05072" lon="9.54278">
        <ele>2.06</ele>
        <time>2017-10-08T08:29:30Z</time>
      </trkpt>
      <trkpt lat="41.05112" lon="9.54301">
        <ele>2.06</ele>
        <time>2017-10-08T08:29:42Z</time>
      </trkpt>
      <trkpt lat="41.05162" lon="9.54348">
        <ele>3.02</ele>
        <time>2017-10-08T08:30:00Z</time>
      </trkpt>
      <trkpt lat="41.05195" lon="9.54375">
        <ele>2.54</ele>
        <time>2017-10-08T08:30:12Z</time>
      </trkpt>
      <trkpt lat="41.0526" lon="9.54424">
        <ele>2.54</ele>
        <time>2017-10-08T08:30:36Z</time>
      </trkpt>
      <trkpt lat="41.05294" lon="9.54449">
        <ele>2.54</ele>
        <time>2017-10-08T08:30:49Z</time>
      </trkpt>
      <trkpt lat="41.05338" lon="9.54482">
        <ele>2.54</ele>
        <time>2017-10-08T08:31:06Z</time>
      </trkpt>
      <trkpt lat="41.05393" lon="9.5452">
        <ele>3.02</ele>
        <time>2017-10-08T08:31:23Z</time>
      </trkpt>
      <trkpt lat="41.05441" lon="9.54551">
        <ele>3.98</ele>
        <time>2017-10-08T08:31:38Z</time>
      </trkpt>
      <trkpt lat="41.05494" lon="9.54593">
        <ele>3.02</ele>
        <time>2017-10-08T08:31:57Z</time>
      </trkpt>
      <trkpt lat="41.05544" lon="9.54633">
        <ele>3.02</ele>
        <time>2017-10-08T08:32:17Z</time>
      </trkpt>
      <trkpt lat="41.05585" lon="9.54667">
        <ele>4.46</ele>
        <time>2017-10-08T08:32:33Z</time>
      </trkpt>
      <trkpt lat="41.05637" lon="9.54699">
        <ele>3.5</ele>
        <time>2017-10-08T08:32:52Z</time>
      </trkpt>
      <trkpt lat="41.05695" lon="9.54732">
        <ele>3.02</ele>
        <time>2017-10-08T08:33:10Z</time>
      </trkpt>
      <trkpt lat="41.0575" lon="9.54763">
        <ele>2.54</ele>
        <time>2017-10-08T08:33:26Z</time>
      </trkpt>
      <trkpt lat="41.058" lon="9.54798">
        <ele>2.06</ele>
        <time>2017-10-08T08:33:42Z</time>
      </trkpt>
      <trkpt lat="41.05856" lon="9.54843">
        <ele>2.06</ele>
        <time>2017-10-08T08:34:00Z</time>
      </trkpt>
      <trkpt lat="41.05908" lon="9.54887">
        <ele>2.54</ele>
        <time>2017-10-08T08:34:17Z</time>
      </trkpt>
      <trkpt lat="41.05962" lon="9.54929">
        <ele>2.06</ele>
        <time>2017-10-08T08:34:35Z</time>
      </trkpt>
      <trkpt lat="41.0602" lon="9.54972">
        <ele>2.54</ele>
        <time>2017-10-08T08:34:55Z</time>
      </trkpt>
      <trkpt lat="41.06075" lon="9.55007">
        <ele>2.54</ele>
        <time>2017-10-08T08:35:12Z</time>
      </trkpt>
      <trkpt lat="41.06124" lon="9.55042">
        <ele>2.54</ele>
        <time>2017-10-08T08:35:28Z</time>
      </trkpt>
      <trkpt lat="41.06173" lon="9.5508">
        <ele>2.06</ele>
        <time>2017-10-08T08:35:45Z</time>
      </trkpt>
      <trkpt lat="41.06219" lon="9.55116">
        <ele>2.54</ele>
        <time>2017-10-08T08:36:01Z</time>
      </trkpt>
      <trkpt lat="41.06266" lon="9.55158">
        <ele>3.5</ele>
        <time>2017-10-08T08:36:19Z</time>
      </trkpt>
      <trkpt lat="41.06311" lon="9.55179">
        <ele>2.54</ele>
        <time>2017-10-08T08:36:33Z</time>
      </trkpt>
      <trkpt lat="41.06355" lon="9.55197">
        <ele>2.54</ele>
        <time>2017-10-08T08:36:46Z</time>
      </trkpt>
      <trkpt lat="41.06386" lon="9.55223">
        <ele>2.06</ele>
        <time>2017-10-08T08:36:58Z</time>
      </trkpt>
      <trkpt lat="41.06389" lon="9.55223">
        <ele>2.06</ele>
        <time>2017-10-08T08:36:59Z</time>
      </trkpt>
      <trkpt lat="41.06423" lon="9.55249">
        <ele>0.62</ele>
        <time>2017-10-08T08:37:13Z</time>
      </trkpt>
      <trkpt lat="41.06447" lon="9.5528">
        <ele>2.06</ele>
        <time>2017-10-08T08:37:27Z</time>
      </trkpt>
      <trkpt lat="41.06486" lon="9.55334">
        <ele>2.06</ele>
        <time>2017-10-08T08:37:49Z</time>
      </trkpt>
      <trkpt lat="41.06513" lon="9.55374">
        <ele>1.58</ele>
        <time>2017-10-08T08:38:04Z</time>
      </trkpt>
      <trkpt lat="41.06541" lon="9.55416">
        <ele>3.02</ele>
        <time>2017-10-08T08:38:20Z</time>
      </trkpt>
      <trkpt lat="41.06578" lon="9.55461">
        <ele>3.02</ele>
        <time>2017-10-08T08:38:39Z</time>
      </trkpt>
      <trkpt lat="41.06611" lon="9.55499">
        <ele>3.02</ele>
        <time>2017-10-08T08:38:54Z</time>
      </trkpt>
      <trkpt lat="41.06647" lon="9.55541">
        <ele>2.54</ele>
        <time>2017-10-08T08:39:11Z</time>
      </trkpt>
      <trkpt lat="41.06681" lon="9.55585">
        <ele>2.54</ele>
        <time>2017-10-08T08:39:28Z</time>
      </trkpt>
      <trkpt lat="41.06714" lon="9.55627">
        <ele>1.58</ele>
        <time>2017-10-08T08:39:44Z</time>
      </trkpt>
      <trkpt lat="41.06751" lon="9.55677">
        <ele>1.1</ele>
        <time>2017-10-08T08:40:02Z</time>
      </trkpt>
      <trkpt lat="41.06785" lon="9.55718">
        <ele>3.02</ele>
        <time>2017-10-08T08:40:18Z</time>
      </trkpt>
      <trkpt lat="41.06813" lon="9.55757">
        <ele>2.54</ele>
        <time>2017-10-08T08:40:33Z</time>
      </trkpt>
      <trkpt lat="41.06851" lon="9.55801">
        <ele>2.54</ele>
        <time>2017-10-08T08:40:50Z</time>
      </trkpt>
      <trkpt lat="41.06888" lon="9.55847">
        <ele>3.02</ele>
        <time>2017-10-08T08:41:06Z</time>
      </trkpt>
      <trkpt lat="41.06925" lon="9.55896">
        <ele>3.02</ele>
        <time>2017-10-08T08:41:23Z</time>
      </trkpt>
      <trkpt lat="41.06947" lon="9.55932">
        <ele>2.54</ele>
        <time>2017-10-08T08:41:35Z</time>
      </trkpt>
      <trkpt lat="41.06975" lon="9.55975">
        <ele>3.02</ele>
        <time>2017-10-08T08:41:50Z</time>
      </trkpt>
      <trkpt lat="41.07005" lon="9.56028">
        <ele>3.02</ele>
        <time>2017-10-08T08:42:10Z</time>
      </trkpt>
      <trkpt lat="41.07033" lon="9.56085">
        <ele>3.02</ele>
        <time>2017-10-08T08:42:33Z</time>
      </trkpt>
      <trkpt lat="41.0706" lon="9.56133">
        <ele>2.06</ele>
        <time>2017-10-08T08:42:54Z</time>
      </trkpt>
      <trkpt lat="41.07088" lon="9.56187">
        <ele>2.54</ele>
        <time>2017-10-08T08:43:16Z</time>
      </trkpt>
      <trkpt lat="41.07124" lon="9.56243">
        <ele>3.02</ele>
        <time>2017-10-08T08:43:40Z</time>
      </trkpt>
      <trkpt lat="41.07156" lon="9.56294">
        <ele>3.02</ele>
        <time>2017-10-08T08:44:03Z</time>
      </trkpt>
      <trkpt lat="41.07193" lon="9.56349">
        <ele>3.02</ele>
        <time>2017-10-08T08:44:30Z</time>
      </trkpt>
      <trkpt lat="41.07222" lon="9.56395">
        <ele>1.58</ele>
        <time>2017-10-08T08:44:51Z</time>
      </trkpt>
      <trkpt lat="41.07257" lon="9.56455">
        <ele>3.5</ele>
        <time>2017-10-08T08:45:14Z</time>
      </trkpt>
      <trkpt lat="41.07276" lon="9.56487">
        <ele>3.98</ele>
        <time>2017-10-08T08:45:26Z</time>
      </trkpt>
      <trkpt lat="41.07312" lon="9.56542">
        <ele>3.98</ele>
        <time>2017-10-08T08:45:47Z</time>
      </trkpt>
      <trkpt lat="41.07342" lon="9.56583">
        <ele>3.5</ele>
        <time>2017-10-08T08:46:02Z</time>
      </trkpt>
      <trkpt lat="41.07376" lon="9.56622">
        <ele>3.5</ele>
        <time>2017-10-08T08:46:15Z</time>
      </trkpt>
      <trkpt lat="41.07417" lon="9.56669">
        <ele>3.5</ele>
        <time>2017-10-08T08:46:29Z</time>
      </trkpt>
      <trkpt lat="41.07454" lon="9.56722">
        <ele>3.98</ele>
        <time>2017-10-08T08:46:43Z</time>
      </trkpt>
      <trkpt lat="41.07492" lon="9.56777">
        <ele>3.98</ele>
        <time>2017-10-08T08:46:59Z</time>
      </trkpt>
      <trkpt lat="41.07526" lon="9.56829">
        <ele>4.46</ele>
        <time>2017-10-08T08:47:15Z</time>
      </trkpt>
      <trkpt lat="41.07562" lon="9.56891">
        <ele>3.98</ele>
        <time>2017-10-08T08:47:33Z</time>
      </trkpt>
      <trkpt lat="41.07589" lon="9.5694">
        <ele>3.02</ele>
        <time>2017-10-08T08:47:48Z</time>
      </trkpt>
      <trkpt lat="41.0761" lon="9.56997">
        <ele>3.5</ele>
        <time>2017-10-08T08:48:06Z</time>
      </trkpt>
      <trkpt lat="41.07637" lon="9.57052">
        <ele>3.5</ele>
        <time>2017-10-08T08:48:25Z</time>
      </trkpt>
      <trkpt lat="41.07664" lon="9.57106">
        <ele>3.5</ele>
        <time>2017-10-08T08:48:43Z</time>
      </trkpt>
      <trkpt lat="41.07691" lon="9.57153">
        <ele>3.02</ele>
        <time>2017-10-08T08:48:58Z</time>
      </trkpt>
      <trkpt lat="41.07718" lon="9.57204">
        <ele>3.5</ele>
        <time>2017-10-08T08:49:13Z</time>
      </trkpt>
      <trkpt lat="41.07746" lon="9.57253">
        <ele>3.5</ele>
        <time>2017-10-08T08:49:28Z</time>
      </trkpt>
      <trkpt lat="41.07775" lon="9.57306">
        <ele>3.5</ele>
        <time>2017-10-08T08:49:44Z</time>
      </trkpt>
      <trkpt lat="41.07809" lon="9.57364">
        <ele>3.5</ele>
        <time>2017-10-08T08:50:02Z</time>
      </trkpt>
      <trkpt lat="41.07839" lon="9.57413">
        <ele>2.54</ele>
        <time>2017-10-08T08:50:18Z</time>
      </trkpt>
      <trkpt lat="41.07877" lon="9.57469">
        <ele>2.06</ele>
        <time>2017-10-08T08:50:37Z</time>
      </trkpt>
      <trkpt lat="41.07916" lon="9.57528">
        <ele>2.54</ele>
        <time>2017-10-08T08:50:56Z</time>
      </trkpt>
      <trkpt lat="41.07948" lon="9.57578">
        <ele>2.06</ele>
        <time>2017-10-08T08:51:12Z</time>
      </trkpt>
      <trkpt lat="41.07987" lon="9.5764">
        <ele>2.54</ele>
        <time>2017-10-08T08:51:31Z</time>
      </trkpt>
      <trkpt lat="41.08033" lon="9.57705">
        <ele>2.54</ele>
        <time>2017-10-08T08:51:51Z</time>
      </trkpt>
      <trkpt lat="41.08077" lon="9.57775">
        <ele>2.06</ele>
        <time>2017-10-08T08:52:11Z</time>
      </trkpt>
      <trkpt lat="41.08112" lon="9.57829">
        <ele>1.58</ele>
        <time>2017-10-08T08:52:28Z</time>
      </trkpt>
      <trkpt lat="41.08148" lon="9.57881">
        <ele>2.06</ele>
        <time>2017-10-08T08:52:45Z</time>
      </trkpt>
      <trkpt lat="41.08194" lon="9.57939">
        <ele>2.54</ele>
        <time>2017-10-08T08:53:05Z</time>
      </trkpt>
      <trkpt lat="41.08251" lon="9.57997">
        <ele>3.02</ele>
        <time>2017-10-08T08:53:25Z</time>
      </trkpt>
      <trkpt lat="41.08302" lon="9.58047">
        <ele>3.5</ele>
        <time>2017-10-08T08:53:43Z</time>
      </trkpt>
      <trkpt lat="41.08327" lon="9.58083">
        <ele>3.5</ele>
        <time>2017-10-08T08:53:54Z</time>
      </trkpt>
      <trkpt lat="41.08378" lon="9.58159">
        <ele>3.02</ele>
        <time>2017-10-08T08:54:19Z</time>
      </trkpt>
      <trkpt lat="41.08412" lon="9.58219">
        <ele>3.98</ele>
        <time>2017-10-08T08:54:38Z</time>
      </trkpt>
      <trkpt lat="41.08442" lon="9.58264">
        <ele>3.5</ele>
        <time>2017-10-08T08:54:54Z</time>
      </trkpt>
      <trkpt lat="41.08475" lon="9.58314">
        <ele>3.98</ele>
        <time>2017-10-08T08:55:11Z</time>
      </trkpt>
      <trkpt lat="41.08518" lon="9.58367">
        <ele>3.5</ele>
        <time>2017-10-08T08:55:29Z</time>
      </trkpt>
      <trkpt lat="41.08564" lon="9.58424">
        <ele>3.5</ele>
        <time>2017-10-08T08:55:47Z</time>
      </trkpt>
      <trkpt lat="41.08607" lon="9.58468">
        <ele>3.02</ele>
        <time>2017-10-08T08:56:02Z</time>
      </trkpt>
      <trkpt lat="41.08651" lon="9.58512">
        <ele>3.02</ele>
        <time>2017-10-08T08:56:17Z</time>
      </trkpt>
      <trkpt lat="41.08701" lon="9.58567">
        <ele>2.54</ele>
        <time>2017-10-08T08:56:35Z</time>
      </trkpt>
      <trkpt lat="41.0875" lon="9.5861">
        <ele>2.54</ele>
        <time>2017-10-08T08:56:51Z</time>
      </trkpt>
      <trkpt lat="41.08797" lon="9.58646">
        <ele>3.02</ele>
        <time>2017-10-08T08:57:06Z</time>
      </trkpt>
      <trkpt lat="41.08852" lon="9.58676">
        <ele>3.02</ele>
        <time>2017-10-08T08:57:22Z</time>
      </trkpt>
      <trkpt lat="41.08894" lon="9.58694">
        <ele>2.54</ele>
        <time>2017-10-08T08:57:35Z</time>
      </trkpt>
      <trkpt lat="41.0895" lon="9.58715">
        <ele>3.02</ele>
        <time>2017-10-08T08:57:51Z</time>
      </trkpt>
      <trkpt lat="41.08986" lon="9.58744">
        <ele>3.5</ele>
        <time>2017-10-08T08:58:03Z</time>
      </trkpt>
      <trkpt lat="41.09035" lon="9.5879">
        <ele>3.02</ele>
        <time>2017-10-08T08:58:20Z</time>
      </trkpt>
      <trkpt lat="41.09083" lon="9.5883">
        <ele>3.02</ele>
        <time>2017-10-08T08:58:36Z</time>
      </trkpt>
      <trkpt lat="41.09126" lon="9.58868">
        <ele>2.54</ele>
        <time>2017-10-08T08:58:51Z</time>
      </trkpt>
      <trkpt lat="41.09168" lon="9.589">
        <ele>3.5</ele>
        <time>2017-10-08T08:59:05Z</time>
      </trkpt>
      <trkpt lat="41.09208" lon="9.58929">
        <ele>3.5</ele>
        <time>2017-10-08T08:59:18Z</time>
      </trkpt>
      <trkpt lat="41.09248" lon="9.58961">
        <ele>3.5</ele>
        <time>2017-10-08T08:59:31Z</time>
      </trkpt>
      <trkpt lat="41.09289" lon="9.58997">
        <ele>3.5</ele>
        <time>2017-10-08T08:59:44Z</time>
      </trkpt>
      <trkpt lat="41.09344" lon="9.59056">
        <ele>3.5</ele>
        <time>2017-10-08T09:00:03Z</time>
      </trkpt>
      <trkpt lat="41.09397" lon="9.59095">
        <ele>3.98</ele>
        <time>2017-10-08T09:00:19Z</time>
      </trkpt>
      <trkpt lat="41.09448" lon="9.59117">
        <ele>3.98</ele>
        <time>2017-10-08T09:00:33Z</time>
      </trkpt>
      <trkpt lat="41.09496" lon="9.59132">
        <ele>4.94</ele>
        <time>2017-10-08T09:00:47Z</time>
      </trkpt>
      <trkpt lat="41.09545" lon="9.59145">
        <ele>4.94</ele>
        <time>2017-10-08T09:01:01Z</time>
      </trkpt>
      <trkpt lat="41.09602" lon="9.59155">
        <ele>4.46</ele>
        <time>2017-10-08T09:01:17Z</time>
      </trkpt>
      <trkpt lat="41.09655" lon="9.59161">
        <ele>3.98</ele>
        <time>2017-10-08T09:01:31Z</time>
      </trkpt>
      <trkpt lat="41.09692" lon="9.59167">
        <ele>4.46</ele>
        <time>2017-10-08T09:01:41Z</time>
      </trkpt>
      <trkpt lat="41.09746" lon="9.59173">
        <ele>4.46</ele>
        <time>2017-10-08T09:01:55Z</time>
      </trkpt>
      <trkpt lat="41.098" lon="9.59185">
        <ele>4.46</ele>
        <time>2017-10-08T09:02:09Z</time>
      </trkpt>
      <trkpt lat="41.09853" lon="9.59191">
        <ele>3.98</ele>
        <time>2017-10-08T09:02:23Z</time>
      </trkpt>
      <trkpt lat="41.09902" lon="9.59199">
        <ele>2.54</ele>
        <time>2017-10-08T09:02:36Z</time>
      </trkpt>
      <trkpt lat="41.09939" lon="9.59198">
        <ele>2.54</ele>
        <time>2017-10-08T09:02:45Z</time>
      </trkpt>
      <trkpt lat="41.0999" lon="9.59198">
        <ele>3.02</ele>
        <time>2017-10-08T09:02:58Z</time>
      </trkpt>
      <trkpt lat="41.10032" lon="9.59197">
        <ele>3.98</ele>
        <time>2017-10-08T09:03:09Z</time>
      </trkpt>
      <trkpt lat="41.10073" lon="9.59195">
        <ele>3.98</ele>
        <time>2017-10-08T09:03:20Z</time>
      </trkpt>
      <trkpt lat="41.10121" lon="9.59193">
        <ele>3.5</ele>
        <time>2017-10-08T09:03:33Z</time>
      </trkpt>
      <trkpt lat="41.10174" lon="9.59194">
        <ele>3.5</ele>
        <time>2017-10-08T09:03:47Z</time>
      </trkpt>
      <trkpt lat="41.10216" lon="9.59194">
        <ele>3.02</ele>
        <time>2017-10-08T09:03:58Z</time>
      </trkpt>
      <trkpt lat="41.10266" lon="9.59188">
        <ele>3.02</ele>
        <time>2017-10-08T09:04:11Z</time>
      </trkpt>
      <trkpt lat="41.10284" lon="9.59182">
        <ele>3.02</ele>
        <time>2017-10-08T09:04:16Z</time>
      </trkpt>
      <trkpt lat="41.10335" lon="9.59173">
        <ele>2.54</ele>
        <time>2017-10-08T09:04:29Z</time>
      </trkpt>
      <trkpt lat="41.10377" lon="9.59165">
        <ele>3.02</ele>
        <time>2017-10-08T09:04:40Z</time>
      </trkpt>
      <trkpt lat="41.10381" lon="9.59164">
        <ele>3.02</ele>
        <time>2017-10-08T09:04:41Z</time>
      </trkpt>
      <trkpt lat="41.10397" lon="9.59159">
        <ele>3.02</ele>
        <time>2017-10-08T09:04:45Z</time>
      </trkpt>
      <trkpt lat="41.10409" lon="9.59157">
        <ele>3.02</ele>
        <time>2017-10-08T09:04:48Z</time>
      </trkpt>
      <trkpt lat="41.10425" lon="9.59153">
        <ele>3.02</ele>
        <time>2017-10-08T09:04:52Z</time>
      </trkpt>
      <trkpt lat="41.10484" lon="9.5915">
        <ele>3.5</ele>
        <time>2017-10-08T09:05:07Z</time>
      </trkpt>
      <trkpt lat="41.10529" lon="9.59139">
        <ele>3.02</ele>
        <time>2017-10-08T09:05:19Z</time>
      </trkpt>
      <trkpt lat="41.10579" lon="9.59132">
        <ele>3.02</ele>
        <time>2017-10-08T09:05:33Z</time>
      </trkpt>
      <trkpt lat="41.10625" lon="9.59127">
        <ele>3.02</ele>
        <time>2017-10-08T09:05:46Z</time>
      </trkpt>
      <trkpt lat="41.10669" lon="9.59118">
        <ele>3.5</ele>
        <time>2017-10-08T09:05:59Z</time>
      </trkpt>
      <trkpt lat="41.10684" lon="9.59095">
        <ele>3.98</ele>
        <time>2017-10-08T09:06:10Z</time>
      </trkpt>
      <trkpt lat="41.10694" lon="9.59085">
        <ele>4.46</ele>
        <time>2017-10-08T09:06:23Z</time>
      </trkpt>
      <trkpt lat="41.10711" lon="9.59086">
        <ele>3.98</ele>
        <time>2017-10-08T09:06:38Z</time>
      </trkpt>
      <trkpt lat="41.10732" lon="9.59075">
        <ele>3.98</ele>
        <time>2017-10-08T09:06:51Z</time>
      </trkpt>
      <trkpt lat="41.10741" lon="9.59068">
        <ele>4.46</ele>
        <time>2017-10-08T09:07:07Z</time>
      </trkpt>
      <trkpt lat="41.10759" lon="9.59059">
        <ele>4.94</ele>
        <time>2017-10-08T09:07:17Z</time>
      </trkpt>
      <trkpt lat="41.1078" lon="9.59034">
        <ele>3.5</ele>
        <time>2017-10-08T09:07:29Z</time>
      </trkpt>
      <trkpt lat="41.10801" lon="9.5901">
        <ele>4.46</ele>
        <time>2017-10-08T09:07:39Z</time>
      </trkpt>
      <trkpt lat="41.10801" lon="9.59002">
        <ele>4.46</ele>
        <time>2017-10-08T09:07:42Z</time>
      </trkpt>
      <trkpt lat="41.10798" lon="9.58997">
        <ele>4.46</ele>
        <time>2017-10-08T09:07:46Z</time>
      </trkpt>
      <trkpt lat="41.10777" lon="9.58994">
        <ele>3.5</ele>
        <time>2017-10-08T09:07:59Z</time>
      </trkpt>
      <trkpt lat="41.10772" lon="9.58994">
        <ele>3.98</ele>
        <time>2017-10-08T09:08:10Z</time>
      </trkpt>
      <trkpt lat="41.10771" lon="9.58996">
        <ele>2.54</ele>
        <time>2017-10-08T09:08:19Z</time>
      </trkpt>
      <trkpt lat="41.10768" lon="9.58998">
        <ele>2.54</ele>
        <time>2017-10-08T09:08:23Z</time>
      </trkpt>
      <trkpt lat="41.10746" lon="9.59018">
        <ele>2.54</ele>
        <time>2017-10-08T09:08:42Z</time>
      </trkpt>
      <trkpt lat="41.10738" lon="9.59019">
        <ele>3.02</ele>
        <time>2017-10-08T09:08:55Z</time>
      </trkpt>
      <trkpt lat="41.10719" lon="9.59029">
        <ele>3.02</ele>
        <time>2017-10-08T09:09:06Z</time>
      </trkpt>
      <trkpt lat="41.10713" lon="9.59031">
        <ele>3.98</ele>
        <time>2017-10-08T09:09:20Z</time>
      </trkpt>
      <trkpt lat="41.10714" lon="9.59038">
        <ele>4.46</ele>
        <time>2017-10-08T09:09:32Z</time>
      </trkpt>
      <trkpt lat="41.10694" lon="9.59063">
        <ele>3.02</ele>
        <time>2017-10-08T09:09:47Z</time>
      </trkpt>
      <trkpt lat="41.10681" lon="9.59086">
        <ele>3.5</ele>
        <time>2017-10-08T09:09:55Z</time>
      </trkpt>
      <trkpt lat="41.10664" lon="9.59129">
        <ele>3.02</ele>
        <time>2017-10-08T09:10:06Z</time>
      </trkpt>
      <trkpt lat="41.10659" lon="9.59182">
        <ele>3.98</ele>
        <time>2017-10-08T09:10:18Z</time>
      </trkpt>
      <trkpt lat="41.10651" lon="9.59225">
        <ele>5.91</ele>
        <time>2017-10-08T09:10:29Z</time>
      </trkpt>
      <trkpt lat="41.10638" lon="9.59262">
        <ele>4.94</ele>
        <time>2017-10-08T09:10:38Z</time>
      </trkpt>
      <trkpt lat="41.10622" lon="9.59309">
        <ele>4.94</ele>
        <time>2017-10-08T09:10:49Z</time>
      </trkpt>
      <trkpt lat="41.10609" lon="9.59358">
        <ele>4.46</ele>
        <time>2017-10-08T09:11:00Z</time>
      </trkpt>
      <trkpt lat="41.106" lon="9.59419">
        <ele>3.98</ele>
        <time>2017-10-08T09:11:15Z</time>
      </trkpt>
      <trkpt lat="41.10598" lon="9.59468">
        <ele>4.46</ele>
        <time>2017-10-08T09:11:27Z</time>
      </trkpt>
      <trkpt lat="41.10583" lon="9.59516">
        <ele>3.98</ele>
        <time>2017-10-08T09:11:38Z</time>
      </trkpt>
      <trkpt lat="41.10569" lon="9.59564">
        <ele>3.02</ele>
        <time>2017-10-08T09:11:50Z</time>
      </trkpt>
      <trkpt lat="41.10562" lon="9.59603">
        <ele>3.02</ele>
        <time>2017-10-08T09:12:00Z</time>
      </trkpt>
      <trkpt lat="41.1055" lon="9.59651">
        <ele>2.54</ele>
        <time>2017-10-08T09:12:13Z</time>
      </trkpt>
      <trkpt lat="41.10547" lon="9.59667">
        <ele>3.02</ele>
        <time>2017-10-08T09:12:17Z</time>
      </trkpt>
      <trkpt lat="41.10537" lon="9.59715">
        <ele>3.02</ele>
        <time>2017-10-08T09:12:29Z</time>
      </trkpt>
      <trkpt lat="41.10519" lon="9.59757">
        <ele>3.5</ele>
        <time>2017-10-08T09:12:40Z</time>
      </trkpt>
      <trkpt lat="41.10503" lon="9.59805">
        <ele>4.46</ele>
        <time>2017-10-08T09:12:52Z</time>
      </trkpt>
      <trkpt lat="41.10487" lon="9.59858">
        <ele>4.46</ele>
        <time>2017-10-08T09:13:04Z</time>
      </trkpt>
      <trkpt lat="41.10469" lon="9.59914">
        <ele>4.46</ele>
        <time>2017-10-08T09:13:17Z</time>
      </trkpt>
      <trkpt lat="41.10454" lon="9.59967">
        <ele>3.98</ele>
        <time>2017-10-08T09:13:29Z</time>
      </trkpt>
      <trkpt lat="41.10436" lon="9.60024">
        <ele>2.54</ele>
        <time>2017-10-08T09:13:41Z</time>
      </trkpt>
      <trkpt lat="41.10421" lon="9.60082">
        <ele>3.98</ele>
        <time>2017-10-08T09:13:53Z</time>
      </trkpt>
      <trkpt lat="41.10413" lon="9.60115">
        <ele>4.46</ele>
        <time>2017-10-08T09:14:00Z</time>
      </trkpt>
      <trkpt lat="41.10399" lon="9.60178">
        <ele>3.98</ele>
        <time>2017-10-08T09:14:13Z</time>
      </trkpt>
      <trkpt lat="41.10395" lon="9.60198">
        <ele>3.98</ele>
        <time>2017-10-08T09:14:17Z</time>
      </trkpt>
      <trkpt lat="41.10389" lon="9.60222">
        <ele>3.5</ele>
        <time>2017-10-08T09:14:22Z</time>
      </trkpt>
      <trkpt lat="41.10384" lon="9.6024">
        <ele>3.98</ele>
        <time>2017-10-08T09:14:26Z</time>
      </trkpt>
      <trkpt lat="41.10366" lon="9.60296">
        <ele>4.46</ele>
        <time>2017-10-08T09:14:38Z</time>
      </trkpt>
      <trkpt lat="41.10348" lon="9.60343">
        <ele>4.46</ele>
        <time>2017-10-08T09:14:49Z</time>
      </trkpt>
      <trkpt lat="41.10327" lon="9.60397">
        <ele>3.98</ele>
        <time>2017-10-08T09:15:02Z</time>
      </trkpt>
      <trkpt lat="41.10317" lon="9.60445">
        <ele>3.98</ele>
        <time>2017-10-08T09:15:13Z</time>
      </trkpt>
      <trkpt lat="41.10311" lon="9.60471">
        <ele>3.5</ele>
        <time>2017-10-08T09:15:19Z</time>
      </trkpt>
      <trkpt lat="41.10311" lon="9.60492">
        <ele>3.5</ele>
        <time>2017-10-08T09:15:24Z</time>
      </trkpt>
      <trkpt lat="41.10292" lon="9.60543">
        <ele>3.02</ele>
        <time>2017-10-08T09:15:37Z</time>
      </trkpt>
      <trkpt lat="41.10276" lon="9.60587">
        <ele>2.54</ele>
        <time>2017-10-08T09:15:48Z</time>
      </trkpt>
      <trkpt lat="41.10257" lon="9.60646">
        <ele>3.02</ele>
        <time>2017-10-08T09:16:02Z</time>
      </trkpt>
      <trkpt lat="41.10249" lon="9.6069">
        <ele>3.98</ele>
        <time>2017-10-08T09:16:12Z</time>
      </trkpt>
      <trkpt lat="41.10236" lon="9.60743">
        <ele>3.98</ele>
        <time>2017-10-08T09:16:25Z</time>
      </trkpt>
      <trkpt lat="41.10235" lon="9.60791">
        <ele>3.5</ele>
        <time>2017-10-08T09:16:37Z</time>
      </trkpt>
      <trkpt lat="41.10234" lon="9.60832">
        <ele>3.98</ele>
        <time>2017-10-08T09:16:47Z</time>
      </trkpt>
      <trkpt lat="41.10224" lon="9.60887">
        <ele>4.46</ele>
        <time>2017-10-08T09:17:00Z</time>
      </trkpt>
      <trkpt lat="41.10216" lon="9.60937">
        <ele>3.5</ele>
        <time>2017-10-08T09:17:12Z</time>
      </trkpt>
      <trkpt lat="41.10209" lon="9.60987">
        <ele>3.98</ele>
        <time>2017-10-08T09:17:24Z</time>
      </trkpt>
      <trkpt lat="41.10204" lon="9.61024">
        <ele>4.94</ele>
        <time>2017-10-08T09:17:33Z</time>
      </trkpt>
      <trkpt lat="41.10195" lon="9.61069">
        <ele>4.46</ele>
        <time>2017-10-08T09:17:44Z</time>
      </trkpt>
      <trkpt lat="41.10187" lon="9.61123">
        <ele>3.98</ele>
        <time>2017-10-08T09:17:57Z</time>
      </trkpt>
      <trkpt lat="41.10185" lon="9.61166">
        <ele>4.94</ele>
        <time>2017-10-08T09:18:08Z</time>
      </trkpt>
      <trkpt lat="41.10191" lon="9.61178">
        <ele>4.46</ele>
        <time>2017-10-08T09:18:12Z</time>
      </trkpt>
      <trkpt lat="41.10214" lon="9.61169">
        <ele>4.94</ele>
        <time>2017-10-08T09:18:23Z</time>
      </trkpt>
      <trkpt lat="41.10229" lon="9.61162">
        <ele>4.46</ele>
        <time>2017-10-08T09:18:29Z</time>
      </trkpt>
      <trkpt lat="41.10254" lon="9.6116">
        <ele>4.46</ele>
        <time>2017-10-08T09:18:38Z</time>
      </trkpt>
      <trkpt lat="41.10301" lon="9.61174">
        <ele>4.46</ele>
        <time>2017-10-08T09:18:52Z</time>
      </trkpt>
      <trkpt lat="41.10333" lon="9.61195">
        <ele>5.42</ele>
        <time>2017-10-08T09:19:03Z</time>
      </trkpt>
      <trkpt lat="41.10371" lon="9.61223">
        <ele>4.94</ele>
        <time>2017-10-08T09:19:17Z</time>
      </trkpt>
      <trkpt lat="41.10409" lon="9.61233">
        <ele>4.94</ele>
        <time>2017-10-08T09:19:30Z</time>
      </trkpt>
      <trkpt lat="41.10449" lon="9.61224">
        <ele>4.46</ele>
        <time>2017-10-08T09:19:43Z</time>
      </trkpt>
      <trkpt lat="41.10481" lon="9.61213">
        <ele>3.98</ele>
        <time>2017-10-08T09:19:54Z</time>
      </trkpt>
      <trkpt lat="41.10514" lon="9.61204">
        <ele>4.46</ele>
        <time>2017-10-08T09:20:05Z</time>
      </trkpt>
      <trkpt lat="41.10544" lon="9.6119">
        <ele>5.42</ele>
        <time>2017-10-08T09:20:16Z</time>
      </trkpt>
      <trkpt lat="41.10571" lon="9.61179">
        <ele>6.39</ele>
        <time>2017-10-08T09:20:26Z</time>
      </trkpt>
      <trkpt lat="41.10603" lon="9.61162">
        <ele>5.91</ele>
        <time>2017-10-08T09:20:39Z</time>
      </trkpt>
      <trkpt lat="41.1063" lon="9.61147">
        <ele>5.91</ele>
        <time>2017-10-08T09:20:50Z</time>
      </trkpt>
      <trkpt lat="41.10657" lon="9.61127">
        <ele>5.42</ele>
        <time>2017-10-08T09:21:01Z</time>
      </trkpt>
      <trkpt lat="41.10683" lon="9.61107">
        <ele>5.42</ele>
        <time>2017-10-08T09:21:11Z</time>
      </trkpt>
      <trkpt lat="41.10717" lon="9.61082">
        <ele>5.42</ele>
        <time>2017-10-08T09:21:23Z</time>
      </trkpt>
      <trkpt lat="41.10748" lon="9.61055">
        <ele>6.87</ele>
        <time>2017-10-08T09:21:34Z</time>
      </trkpt>
      <trkpt lat="41.10781" lon="9.61028">
        <ele>6.39</ele>
        <time>2017-10-08T09:21:45Z</time>
      </trkpt>
      <trkpt lat="41.10815" lon="9.61002">
        <ele>5.91</ele>
        <time>2017-10-08T09:21:56Z</time>
      </trkpt>
      <trkpt lat="41.10852" lon="9.60969">
        <ele>5.42</ele>
        <time>2017-10-08T09:22:08Z</time>
      </trkpt>
      <trkpt lat="41.10883" lon="9.60944">
        <ele>5.91</ele>
        <time>2017-10-08T09:22:18Z</time>
      </trkpt>
      <trkpt lat="41.10888" lon="9.60937">
        <ele>5.91</ele>
        <time>2017-10-08T09:22:20Z</time>
      </trkpt>
      <trkpt lat="41.10931" lon="9.60894">
        <ele>4.94</ele>
        <time>2017-10-08T09:22:34Z</time>
      </trkpt>
      <trkpt lat="41.10941" lon="9.60886">
        <ele>4.94</ele>
        <time>2017-10-08T09:22:37Z</time>
      </trkpt>
      <trkpt lat="41.10962" lon="9.60864">
        <ele>3.98</ele>
        <time>2017-10-08T09:22:44Z</time>
      </trkpt>
      <trkpt lat="41.10997" lon="9.60835">
        <ele>4.94</ele>
        <time>2017-10-08T09:22:55Z</time>
      </trkpt>
      <trkpt lat="41.11036" lon="9.60802">
        <ele>4.94</ele>
        <time>2017-10-08T09:23:07Z</time>
      </trkpt>
      <trkpt lat="41.11075" lon="9.60764">
        <ele>4.46</ele>
        <time>2017-10-08T09:23:20Z</time>
      </trkpt>
      <trkpt lat="41.1111" lon="9.60737">
        <ele>4.94</ele>
        <time>2017-10-08T09:23:31Z</time>
      </trkpt>
      <trkpt lat="41.11157" lon="9.60707">
        <ele>5.91</ele>
        <time>2017-10-08T09:23:45Z</time>
      </trkpt>
      <trkpt lat="41.11196" lon="9.6068">
        <ele>4.94</ele>
        <time>2017-10-08T09:23:57Z</time>
      </trkpt>
      <trkpt lat="41.11223" lon="9.60659">
        <ele>4.94</ele>
        <time>2017-10-08T09:24:06Z</time>
      </trkpt>
      <trkpt lat="41.11255" lon="9.60632">
        <ele>4.94</ele>
        <time>2017-10-08T09:24:18Z</time>
      </trkpt>
      <trkpt lat="41.11287" lon="9.60607">
        <ele>4.94</ele>
        <time>2017-10-08T09:24:29Z</time>
      </trkpt>
      <trkpt lat="41.11323" lon="9.60579">
        <ele>5.91</ele>
        <time>2017-10-08T09:24:40Z</time>
      </trkpt>
      <trkpt lat="41.11337" lon="9.60569">
        <ele>5.42</ele>
        <time>2017-10-08T09:24:44Z</time>
      </trkpt>
      <trkpt lat="41.11359" lon="9.60545">
        <ele>4.94</ele>
        <time>2017-10-08T09:24:52Z</time>
      </trkpt>
      <trkpt lat="41.11373" lon="9.60534">
        <ele>5.42</ele>
        <time>2017-10-08T09:24:56Z</time>
      </trkpt>
      <trkpt lat="41.11381" lon="9.60524">
        <ele>5.42</ele>
        <time>2017-10-08T09:24:59Z</time>
      </trkpt>
      <trkpt lat="41.11418" lon="9.60486">
        <ele>4.46</ele>
        <time>2017-10-08T09:25:11Z</time>
      </trkpt>
      <trkpt lat="41.11421" lon="9.60483">
        <ele>4.46</ele>
        <time>2017-10-08T09:25:12Z</time>
      </trkpt>
      <trkpt lat="41.11452" lon="9.60451">
        <ele>4.94</ele>
        <time>2017-10-08T09:25:22Z</time>
      </trkpt>
      <trkpt lat="41.11484" lon="9.60429">
        <ele>3.98</ele>
        <time>2017-10-08T09:25:32Z</time>
      </trkpt>
      <trkpt lat="41.11517" lon="9.60405">
        <ele>2.54</ele>
        <time>2017-10-08T09:25:43Z</time>
      </trkpt>
      <trkpt lat="41.11529" lon="9.60395">
        <ele>2.54</ele>
        <time>2017-10-08T09:25:47Z</time>
      </trkpt>
      <trkpt lat="41.11572" lon="9.60362">
        <ele>3.5</ele>
        <time>2017-10-08T09:26:00Z</time>
      </trkpt>
      <trkpt lat="41.11582" lon="9.60355">
        <ele>3.5</ele>
        <time>2017-10-08T09:26:03Z</time>
      </trkpt>
      <trkpt lat="41.11608" lon="9.60333">
        <ele>2.54</ele>
        <time>2017-10-08T09:26:11Z</time>
      </trkpt>
      <trkpt lat="41.11648" lon="9.60294">
        <ele>2.54</ele>
        <time>2017-10-08T09:26:24Z</time>
      </trkpt>
      <trkpt lat="41.11685" lon="9.60259">
        <ele>2.54</ele>
        <time>2017-10-08T09:26:36Z</time>
      </trkpt>
      <trkpt lat="41.11721" lon="9.60228">
        <ele>2.06</ele>
        <time>2017-10-08T09:26:47Z</time>
      </trkpt>
      <trkpt lat="41.11754" lon="9.602">
        <ele>1.1</ele>
        <time>2017-10-08T09:26:58Z</time>
      </trkpt>
      <trkpt lat="41.11781" lon="9.60181">
        <ele>1.58</ele>
        <time>2017-10-08T09:27:09Z</time>
      </trkpt>
      <trkpt lat="41.11812" lon="9.60161">
        <ele>-0.34</ele>
        <time>2017-10-08T09:27:20Z</time>
      </trkpt>
      <trkpt lat="41.11848" lon="9.60131">
        <ele>1.1</ele>
        <time>2017-10-08T09:27:33Z</time>
      </trkpt>
      <trkpt lat="41.11887" lon="9.60097">
        <ele>1.58</ele>
        <time>2017-10-08T09:27:47Z</time>
      </trkpt>
      <trkpt lat="41.11918" lon="9.60071">
        <ele>2.06</ele>
        <time>2017-10-08T09:27:58Z</time>
      </trkpt>
      <trkpt lat="41.11959" lon="9.60041">
        <ele>1.58</ele>
        <time>2017-10-08T09:28:14Z</time>
      </trkpt>
      <trkpt lat="41.11997" lon="9.60013">
        <ele>3.02</ele>
        <time>2017-10-08T09:28:29Z</time>
      </trkpt>
      <trkpt lat="41.12024" lon="9.59998">
        <ele>3.02</ele>
        <time>2017-10-08T09:28:40Z</time>
      </trkpt>
      <trkpt lat="41.12063" lon="9.59976">
        <ele>2.54</ele>
        <time>2017-10-08T09:28:55Z</time>
      </trkpt>
      <trkpt lat="41.12109" lon="9.59938">
        <ele>2.06</ele>
        <time>2017-10-08T09:29:13Z</time>
      </trkpt>
      <trkpt lat="41.12136" lon="9.59921">
        <ele>0.14</ele>
        <time>2017-10-08T09:29:25Z</time>
      </trkpt>
      <trkpt lat="41.1216" lon="9.59907">
        <ele>2.06</ele>
        <time>2017-10-08T09:29:35Z</time>
      </trkpt>
      <trkpt lat="41.12192" lon="9.59888">
        <ele>3.5</ele>
        <time>2017-10-08T09:29:49Z</time>
      </trkpt>
      <trkpt lat="41.12222" lon="9.59871">
        <ele>3.5</ele>
        <time>2017-10-08T09:30:01Z</time>
      </trkpt>
      <trkpt lat="41.12251" lon="9.59858">
        <ele>2.54</ele>
        <time>2017-10-08T09:30:13Z</time>
      </trkpt>
      <trkpt lat="41.12276" lon="9.59844">
        <ele>1.1</ele>
        <time>2017-10-08T09:30:25Z</time>
      </trkpt>
      <trkpt lat="41.12304" lon="9.59831">
        <ele>1.58</ele>
        <time>2017-10-08T09:30:37Z</time>
      </trkpt>
      <trkpt lat="41.12336" lon="9.59813">
        <ele>2.54</ele>
        <time>2017-10-08T09:30:50Z</time>
      </trkpt>
      <trkpt lat="41.12366" lon="9.5979">
        <ele>3.02</ele>
        <time>2017-10-08T09:31:02Z</time>
      </trkpt>
      <trkpt lat="41.12391" lon="9.59769">
        <ele>3.02</ele>
        <time>2017-10-08T09:31:13Z</time>
      </trkpt>
      <trkpt lat="41.12424" lon="9.59737">
        <ele>1.58</ele>
        <time>2017-10-08T09:31:27Z</time>
      </trkpt>
      <trkpt lat="41.12455" lon="9.59712">
        <ele>2.06</ele>
        <time>2017-10-08T09:31:40Z</time>
      </trkpt>
      <trkpt lat="41.12513" lon="9.59666">
        <ele>3.98</ele>
        <time>2017-10-08T09:32:04Z</time>
      </trkpt>
      <trkpt lat="41.12555" lon="9.59636">
        <ele>3.5</ele>
        <time>2017-10-08T09:32:23Z</time>
      </trkpt>
      <trkpt lat="41.12582" lon="9.59624">
        <ele>2.06</ele>
        <time>2017-10-08T09:32:37Z</time>
      </trkpt>
      <trkpt lat="41.12609" lon="9.5962">
        <ele>2.54</ele>
        <time>2017-10-08T09:32:49Z</time>
      </trkpt>
      <trkpt lat="41.12649" lon="9.59613">
        <ele>2.54</ele>
        <time>2017-10-08T09:33:01Z</time>
      </trkpt>
      <trkpt lat="41.12698" lon="9.59603">
        <ele>3.02</ele>
        <time>2017-10-08T09:33:15Z</time>
      </trkpt>
      <trkpt lat="41.1274" lon="9.59597">
        <ele>3.02</ele>
        <time>2017-10-08T09:33:27Z</time>
      </trkpt>
      <trkpt lat="41.12779" lon="9.5959">
        <ele>4.94</ele>
        <time>2017-10-08T09:33:38Z</time>
      </trkpt>
      <trkpt lat="41.12817" lon="9.59581">
        <ele>4.94</ele>
        <time>2017-10-08T09:33:49Z</time>
      </trkpt>
      <trkpt lat="41.12862" lon="9.5956">
        <ele>3.98</ele>
        <time>2017-10-08T09:34:02Z</time>
      </trkpt>
      <trkpt lat="41.12898" lon="9.59541">
        <ele>4.94</ele>
        <time>2017-10-08T09:34:13Z</time>
      </trkpt>
      <trkpt lat="41.12938" lon="9.59519">
        <ele>3.98</ele>
        <time>2017-10-08T09:34:26Z</time>
      </trkpt>
      <trkpt lat="41.12968" lon="9.59502">
        <ele>3.5</ele>
        <time>2017-10-08T09:34:37Z</time>
      </trkpt>
      <trkpt lat="41.1301" lon="9.59474">
        <ele>3.98</ele>
        <time>2017-10-08T09:34:52Z</time>
      </trkpt>
      <trkpt lat="41.13048" lon="9.59447">
        <ele>3.5</ele>
        <time>2017-10-08T09:35:06Z</time>
      </trkpt>
      <trkpt lat="41.13078" lon="9.59425">
        <ele>2.54</ele>
        <time>2017-10-08T09:35:17Z</time>
      </trkpt>
      <trkpt lat="41.13109" lon="9.59404">
        <ele>1.1</ele>
        <time>2017-10-08T09:35:28Z</time>
      </trkpt>
      <trkpt lat="41.13141" lon="9.59386">
        <ele>1.1</ele>
        <time>2017-10-08T09:35:39Z</time>
      </trkpt>
      <trkpt lat="41.13173" lon="9.59366">
        <ele>0.62</ele>
        <time>2017-10-08T09:35:51Z</time>
      </trkpt>
      <trkpt lat="41.13203" lon="9.59348">
        <ele>1.58</ele>
        <time>2017-10-08T09:36:02Z</time>
      </trkpt>
      <trkpt lat="41.1325" lon="9.59326">
        <ele>3.02</ele>
        <time>2017-10-08T09:36:16Z</time>
      </trkpt>
      <trkpt lat="41.13288" lon="9.59305">
        <ele>3.98</ele>
        <time>2017-10-08T09:36:28Z</time>
      </trkpt>
      <trkpt lat="41.13322" lon="9.59284">
        <ele>4.94</ele>
        <time>2017-10-08T09:36:39Z</time>
      </trkpt>
      <trkpt lat="41.13347" lon="9.59271">
        <ele>4.94</ele>
        <time>2017-10-08T09:36:47Z</time>
      </trkpt>
      <trkpt lat="41.13386" lon="9.5925">
        <ele>3.98</ele>
        <time>2017-10-08T09:36:59Z</time>
      </trkpt>
      <trkpt lat="41.13434" lon="9.59225">
        <ele>4.94</ele>
        <time>2017-10-08T09:37:13Z</time>
      </trkpt>
      <trkpt lat="41.1346" lon="9.59208">
        <ele>4.94</ele>
        <time>2017-10-08T09:37:21Z</time>
      </trkpt>
      <trkpt lat="41.13502" lon="9.59178">
        <ele>3.98</ele>
        <time>2017-10-08T09:37:34Z</time>
      </trkpt>
      <trkpt lat="41.13506" lon="9.59177">
        <ele>3.98</ele>
        <time>2017-10-08T09:37:35Z</time>
      </trkpt>
      <trkpt lat="41.13522" lon="9.59169">
        <ele>3.5</ele>
        <time>2017-10-08T09:37:40Z</time>
      </trkpt>
      <trkpt lat="41.13551" lon="9.59147">
        <ele>3.5</ele>
        <time>2017-10-08T09:37:49Z</time>
      </trkpt>
      <trkpt lat="41.1357" lon="9.59133">
        <ele>3.5</ele>
        <time>2017-10-08T09:37:55Z</time>
      </trkpt>
      <trkpt lat="41.13606" lon="9.59106">
        <ele>3.98</ele>
        <time>2017-10-08T09:38:07Z</time>
      </trkpt>
      <trkpt lat="41.13645" lon="9.59078">
        <ele>3.98</ele>
        <time>2017-10-08T09:38:20Z</time>
      </trkpt>
      <trkpt lat="41.13674" lon="9.59061">
        <ele>3.02</ele>
        <time>2017-10-08T09:38:30Z</time>
      </trkpt>
      <trkpt lat="41.13708" lon="9.59035">
        <ele>3.5</ele>
        <time>2017-10-08T09:38:42Z</time>
      </trkpt>
      <trkpt lat="41.13733" lon="9.59018">
        <ele>4.46</ele>
        <time>2017-10-08T09:38:51Z</time>
      </trkpt>
      <trkpt lat="41.1376" lon="9.59001">
        <ele>4.46</ele>
        <time>2017-10-08T09:39:01Z</time>
      </trkpt>
      <trkpt lat="41.13782" lon="9.58987">
        <ele>4.46</ele>
        <time>2017-10-08T09:39:09Z</time>
      </trkpt>
      <trkpt lat="41.13815" lon="9.58966">
        <ele>5.42</ele>
        <time>2017-10-08T09:39:20Z</time>
      </trkpt>
      <trkpt lat="41.13865" lon="9.58934">
        <ele>5.42</ele>
        <time>2017-10-08T09:39:36Z</time>
      </trkpt>
      <trkpt lat="41.13901" lon="9.58906">
        <ele>3.98</ele>
        <time>2017-10-08T09:39:48Z</time>
      </trkpt>
      <trkpt lat="41.13936" lon="9.58876">
        <ele>4.46</ele>
        <time>2017-10-08T09:40:00Z</time>
      </trkpt>
      <trkpt lat="41.13976" lon="9.5885">
        <ele>4.46</ele>
        <time>2017-10-08T09:40:13Z</time>
      </trkpt>
      <trkpt lat="41.14024" lon="9.58825">
        <ele>3.98</ele>
        <time>2017-10-08T09:40:28Z</time>
      </trkpt>
      <trkpt lat="41.14072" lon="9.58789">
        <ele>3.5</ele>
        <time>2017-10-08T09:40:44Z</time>
      </trkpt>
      <trkpt lat="41.14117" lon="9.58753">
        <ele>3.02</ele>
        <time>2017-10-08T09:40:59Z</time>
      </trkpt>
      <trkpt lat="41.14148" lon="9.58725">
        <ele>3.5</ele>
        <time>2017-10-08T09:41:10Z</time>
      </trkpt>
      <trkpt lat="41.14181" lon="9.58694">
        <ele>3.98</ele>
        <time>2017-10-08T09:41:22Z</time>
      </trkpt>
      <trkpt lat="41.14184" lon="9.58692">
        <ele>3.98</ele>
        <time>2017-10-08T09:41:23Z</time>
      </trkpt>
      <trkpt lat="41.14216" lon="9.58657">
        <ele>3.02</ele>
        <time>2017-10-08T09:41:35Z</time>
      </trkpt>
      <trkpt lat="41.14251" lon="9.58624">
        <ele>2.06</ele>
        <time>2017-10-08T09:41:48Z</time>
      </trkpt>
      <trkpt lat="41.14292" lon="9.58587">
        <ele>1.1</ele>
        <time>2017-10-08T09:42:03Z</time>
      </trkpt>
      <trkpt lat="41.14327" lon="9.58558">
        <ele>0.62</ele>
        <time>2017-10-08T09:42:16Z</time>
      </trkpt>
      <trkpt lat="41.14364" lon="9.58527">
        <ele>2.06</ele>
        <time>2017-10-08T09:42:30Z</time>
      </trkpt>
      <trkpt lat="41.14402" lon="9.58498">
        <ele>3.02</ele>
        <time>2017-10-08T09:42:43Z</time>
      </trkpt>
      <trkpt lat="41.14447" lon="9.5847">
        <ele>1.1</ele>
        <time>2017-10-08T09:42:57Z</time>
      </trkpt>
      <trkpt lat="41.1449" lon="9.58439">
        <ele>1.1</ele>
        <time>2017-10-08T09:43:12Z</time>
      </trkpt>
      <trkpt lat="41.1453" lon="9.58409">
        <ele>1.58</ele>
        <time>2017-10-08T09:43:27Z</time>
      </trkpt>
      <trkpt lat="41.14559" lon="9.5839">
        <ele>2.06</ele>
        <time>2017-10-08T09:43:38Z</time>
      </trkpt>
      <trkpt lat="41.14582" lon="9.5838">
        <ele>2.06</ele>
        <time>2017-10-08T09:43:47Z</time>
      </trkpt>
      <trkpt lat="41.14619" lon="9.58369">
        <ele>3.5</ele>
        <time>2017-10-08T09:43:59Z</time>
      </trkpt>
      <trkpt lat="41.14668" lon="9.58353">
        <ele>4.46</ele>
        <time>2017-10-08T09:44:13Z</time>
      </trkpt>
      <trkpt lat="41.14706" lon="9.58338">
        <ele>4.46</ele>
        <time>2017-10-08T09:44:24Z</time>
      </trkpt>
      <trkpt lat="41.14745" lon="9.58322">
        <ele>4.94</ele>
        <time>2017-10-08T09:44:36Z</time>
      </trkpt>
      <trkpt lat="41.14778" lon="9.58307">
        <ele>3.98</ele>
        <time>2017-10-08T09:44:47Z</time>
      </trkpt>
      <trkpt lat="41.14801" lon="9.58296">
        <ele>3.5</ele>
        <time>2017-10-08T09:44:55Z</time>
      </trkpt>
      <trkpt lat="41.14834" lon="9.58277">
        <ele>3.98</ele>
        <time>2017-10-08T09:45:06Z</time>
      </trkpt>
      <trkpt lat="41.14867" lon="9.58256">
        <ele>4.94</ele>
        <time>2017-10-08T09:45:17Z</time>
      </trkpt>
      <trkpt lat="41.14898" lon="9.58236">
        <ele>2.54</ele>
        <time>2017-10-08T09:45:27Z</time>
      </trkpt>
      <trkpt lat="41.14939" lon="9.58214">
        <ele>0.14</ele>
        <time>2017-10-08T09:45:40Z</time>
      </trkpt>
      <trkpt lat="41.14974" lon="9.58197">
        <ele>-0.34</ele>
        <time>2017-10-08T09:45:51Z</time>
      </trkpt>
      <trkpt lat="41.15022" lon="9.58167">
        <ele>-1.79</ele>
        <time>2017-10-08T09:46:07Z</time>
      </trkpt>
      <trkpt lat="41.15062" lon="9.58143">
        <ele>-1.3</ele>
        <time>2017-10-08T09:46:21Z</time>
      </trkpt>
      <trkpt lat="41.15101" lon="9.58118">
        <ele>-0.34</ele>
        <time>2017-10-08T09:46:35Z</time>
      </trkpt>
      <trkpt lat="41.1514" lon="9.58095">
        <ele>0.62</ele>
        <time>2017-10-08T09:46:48Z</time>
      </trkpt>
      <trkpt lat="41.15184" lon="9.58072">
        <ele>1.1</ele>
        <time>2017-10-08T09:47:02Z</time>
      </trkpt>
      <trkpt lat="41.15245" lon="9.58043">
        <ele>0.62</ele>
        <time>2017-10-08T09:47:20Z</time>
      </trkpt>
      <trkpt lat="41.15295" lon="9.58017">
        <ele>-0.34</ele>
        <time>2017-10-08T09:47:35Z</time>
      </trkpt>
      <trkpt lat="41.15314" lon="9.58006">
        <ele>0.62</ele>
        <time>2017-10-08T09:47:41Z</time>
      </trkpt>
      <trkpt lat="41.15358" lon="9.57981">
        <ele>-0.34</ele>
        <time>2017-10-08T09:47:55Z</time>
      </trkpt>
      <trkpt lat="41.15401" lon="9.5795">
        <ele>1.1</ele>
        <time>2017-10-08T09:48:09Z</time>
      </trkpt>
      <trkpt lat="41.15438" lon="9.57924">
        <ele>3.5</ele>
        <time>2017-10-08T09:48:21Z</time>
      </trkpt>
      <trkpt lat="41.1548" lon="9.57901">
        <ele>3.02</ele>
        <time>2017-10-08T09:48:33Z</time>
      </trkpt>
      <trkpt lat="41.15527" lon="9.57878">
        <ele>3.02</ele>
        <time>2017-10-08T09:48:47Z</time>
      </trkpt>
      <trkpt lat="41.15564" lon="9.57859">
        <ele>1.58</ele>
        <time>2017-10-08T09:48:58Z</time>
      </trkpt>
      <trkpt lat="41.15602" lon="9.57834">
        <ele>2.06</ele>
        <time>2017-10-08T09:49:10Z</time>
      </trkpt>
      <trkpt lat="41.15643" lon="9.57806">
        <ele>1.58</ele>
        <time>2017-10-08T09:49:23Z</time>
      </trkpt>
      <trkpt lat="41.15681" lon="9.57781">
        <ele>1.1</ele>
        <time>2017-10-08T09:49:36Z</time>
      </trkpt>
      <trkpt lat="41.15723" lon="9.57756">
        <ele>1.1</ele>
        <time>2017-10-08T09:49:50Z</time>
      </trkpt>
      <trkpt lat="41.15763" lon="9.57732">
        <ele>1.1</ele>
        <time>2017-10-08T09:50:03Z</time>
      </trkpt>
      <trkpt lat="41.15806" lon="9.57711">
        <ele>1.1</ele>
        <time>2017-10-08T09:50:17Z</time>
      </trkpt>
      <trkpt lat="41.15845" lon="9.57691">
        <ele>2.06</ele>
        <time>2017-10-08T09:50:31Z</time>
      </trkpt>
      <trkpt lat="41.15875" lon="9.57677">
        <ele>2.06</ele>
        <time>2017-10-08T09:50:42Z</time>
      </trkpt>
      <trkpt lat="41.15909" lon="9.57654">
        <ele>2.54</ele>
        <time>2017-10-08T09:50:57Z</time>
      </trkpt>
      <trkpt lat="41.15932" lon="9.57645">
        <ele>2.06</ele>
        <time>2017-10-08T09:51:07Z</time>
      </trkpt>
      <trkpt lat="41.15963" lon="9.57629">
        <ele>2.54</ele>
        <time>2017-10-08T09:51:18Z</time>
      </trkpt>
      <trkpt lat="41.15988" lon="9.5762">
        <ele>3.02</ele>
        <time>2017-10-08T09:51:27Z</time>
      </trkpt>
      <trkpt lat="41.16023" lon="9.57608">
        <ele>3.5</ele>
        <time>2017-10-08T09:51:38Z</time>
      </trkpt>
      <trkpt lat="41.16034" lon="9.57605">
        <ele>2.54</ele>
        <time>2017-10-08T09:51:41Z</time>
      </trkpt>
      <trkpt lat="41.1605" lon="9.576">
        <ele>2.54</ele>
        <time>2017-10-08T09:51:45Z</time>
      </trkpt>
      <trkpt lat="41.16093" lon="9.57585">
        <ele>-0.34</ele>
        <time>2017-10-08T09:51:57Z</time>
      </trkpt>
      <trkpt lat="41.16128" lon="9.57572">
        <ele>-0.82</ele>
        <time>2017-10-08T09:52:08Z</time>
      </trkpt>
      <trkpt lat="41.16156" lon="9.57562">
        <ele>-1.3</ele>
        <time>2017-10-08T09:52:18Z</time>
      </trkpt>
      <trkpt lat="41.16186" lon="9.57549">
        <ele>1.58</ele>
        <time>2017-10-08T09:52:28Z</time>
      </trkpt>
      <trkpt lat="41.1622" lon="9.57542">
        <ele>3.02</ele>
        <time>2017-10-08T09:52:38Z</time>
      </trkpt>
      <trkpt lat="41.16253" lon="9.57538">
        <ele>3.98</ele>
        <time>2017-10-08T09:52:48Z</time>
      </trkpt>
      <trkpt lat="41.16262" lon="9.57533">
        <ele>3.98</ele>
        <time>2017-10-08T09:52:51Z</time>
      </trkpt>
      <trkpt lat="41.16278" lon="9.57526">
        <ele>4.46</ele>
        <time>2017-10-08T09:52:56Z</time>
      </trkpt>
      <trkpt lat="41.16311" lon="9.57513">
        <ele>4.94</ele>
        <time>2017-10-08T09:53:07Z</time>
      </trkpt>
      <trkpt lat="41.16353" lon="9.575">
        <ele>3.98</ele>
        <time>2017-10-08T09:53:20Z</time>
      </trkpt>
      <trkpt lat="41.16389" lon="9.57487">
        <ele>4.94</ele>
        <time>2017-10-08T09:53:31Z</time>
      </trkpt>
      <trkpt lat="41.16422" lon="9.57477">
        <ele>5.91</ele>
        <time>2017-10-08T09:53:41Z</time>
      </trkpt>
      <trkpt lat="41.16465" lon="9.57467">
        <ele>5.91</ele>
        <time>2017-10-08T09:53:53Z</time>
      </trkpt>
      <trkpt lat="41.16477" lon="9.57462">
        <ele>5.42</ele>
        <time>2017-10-08T09:53:57Z</time>
      </trkpt>
      <trkpt lat="41.16476" lon="9.57452">
        <ele>5.42</ele>
        <time>2017-10-08T09:54:01Z</time>
      </trkpt>
      <trkpt lat="41.16473" lon="9.57449">
        <ele>4.94</ele>
        <time>2017-10-08T09:54:03Z</time>
      </trkpt>
      <trkpt lat="41.1645" lon="9.57442">
        <ele>3.98</ele>
        <time>2017-10-08T09:54:13Z</time>
      </trkpt>
      <trkpt lat="41.16421" lon="9.57442">
        <ele>3.5</ele>
        <time>2017-10-08T09:54:23Z</time>
      </trkpt>
      <trkpt lat="41.1641" lon="9.57445">
        <ele>3.5</ele>
        <time>2017-10-08T09:54:26Z</time>
      </trkpt>
      <trkpt lat="41.1638" lon="9.57426">
        <ele>2.06</ele>
        <time>2017-10-08T09:54:37Z</time>
      </trkpt>
      <trkpt lat="41.1635" lon="9.57416">
        <ele>2.06</ele>
        <time>2017-10-08T09:54:46Z</time>
      </trkpt>
      <trkpt lat="41.16308" lon="9.57403">
        <ele>1.58</ele>
        <time>2017-10-08T09:54:58Z</time>
      </trkpt>
      <trkpt lat="41.16273" lon="9.5738">
        <ele>1.58</ele>
        <time>2017-10-08T09:55:09Z</time>
      </trkpt>
      <trkpt lat="41.16249" lon="9.57354">
        <ele>0.62</ele>
        <time>2017-10-08T09:55:18Z</time>
      </trkpt>
      <trkpt lat="41.16225" lon="9.57325">
        <ele>-0.34</ele>
        <time>2017-10-08T09:55:28Z</time>
      </trkpt>
      <trkpt lat="41.16196" lon="9.57294">
        <ele>1.1</ele>
        <time>2017-10-08T09:55:39Z</time>
      </trkpt>
      <trkpt lat="41.16175" lon="9.57262">
        <ele>2.54</ele>
        <time>2017-10-08T09:55:49Z</time>
      </trkpt>
      <trkpt lat="41.16146" lon="9.57234">
        <ele>2.54</ele>
        <time>2017-10-08T09:55:59Z</time>
      </trkpt>
      <trkpt lat="41.16122" lon="9.57201">
        <ele>3.02</ele>
        <time>2017-10-08T09:56:10Z</time>
      </trkpt>
      <trkpt lat="41.1609" lon="9.5717">
        <ele>3.02</ele>
        <time>2017-10-08T09:56:22Z</time>
      </trkpt>
      <trkpt lat="41.16065" lon="9.57138">
        <ele>4.46</ele>
        <time>2017-10-08T09:56:32Z</time>
      </trkpt>
      <trkpt lat="41.16042" lon="9.5711">
        <ele>3.98</ele>
        <time>2017-10-08T09:56:42Z</time>
      </trkpt>
      <trkpt lat="41.16015" lon="9.57085">
        <ele>2.54</ele>
        <time>2017-10-08T09:56:52Z</time>
      </trkpt>
      <trkpt lat="41.15993" lon="9.5706">
        <ele>2.54</ele>
        <time>2017-10-08T09:57:01Z</time>
      </trkpt>
      <trkpt lat="41.15965" lon="9.57034">
        <ele>3.5</ele>
        <time>2017-10-08T09:57:11Z</time>
      </trkpt>
      <trkpt lat="41.15939" lon="9.57011">
        <ele>3.02</ele>
        <time>2017-10-08T09:57:20Z</time>
      </trkpt>
      <trkpt lat="41.15932" lon="9.57009">
        <ele>3.02</ele>
        <time>2017-10-08T09:57:22Z</time>
      </trkpt>
      <trkpt lat="41.15923" lon="9.57008">
        <ele>3.5</ele>
        <time>2017-10-08T09:57:24Z</time>
      </trkpt>
      <trkpt lat="41.15901" lon="9.56992">
        <ele>3.5</ele>
        <time>2017-10-08T09:57:35Z</time>
      </trkpt>
      <trkpt lat="41.15901" lon="9.56992">
        <ele>3.02</ele>
        <time>2017-10-08T09:57:40Z</time>
      </trkpt>
      <trkpt lat="41.15919" lon="9.57006">
        <ele>2.54</ele>
        <time>2017-10-08T09:57:52Z</time>
      </trkpt>
      <trkpt lat="41.15929" lon="9.57003">
        <ele>3.02</ele>
        <time>2017-10-08T09:57:59Z</time>
      </trkpt>
      <trkpt lat="41.15936" lon="9.57005">
        <ele>2.54</ele>
        <time>2017-10-08T09:58:04Z</time>
      </trkpt>
      <trkpt lat="41.15959" lon="9.57003">
        <ele>2.54</ele>
        <time>2017-10-08T09:58:15Z</time>
      </trkpt>
      <trkpt lat="41.15973" lon="9.56995">
        <ele>0.62</ele>
        <time>2017-10-08T09:58:26Z</time>
      </trkpt>
      <trkpt lat="41.15974" lon="9.56996">
        <ele>1.1</ele>
        <time>2017-10-08T09:58:28Z</time>
      </trkpt>
      <trkpt lat="41.15994" lon="9.57001">
        <ele>1.1</ele>
        <time>2017-10-08T09:58:42Z</time>
      </trkpt>
      <trkpt lat="41.15999" lon="9.57001">
        <ele>2.06</ele>
        <time>2017-10-08T09:58:52Z</time>
      </trkpt>
      <trkpt lat="41.16" lon="9.57001">
        <ele>2.06</ele>
        <time>2017-10-08T09:58:53Z</time>
      </trkpt>
      <trkpt lat="41.16002" lon="9.57003">
        <ele>2.06</ele>
        <time>2017-10-08T09:58:55Z</time>
      </trkpt>
      <trkpt lat="41.16017" lon="9.57007">
        <ele>0.14</ele>
        <time>2017-10-08T09:59:04Z</time>
      </trkpt>
      <trkpt lat="41.16037" lon="9.57005">
        <ele>0.14</ele>
        <time>2017-10-08T09:59:14Z</time>
      </trkpt>
      <trkpt lat="41.16045" lon="9.57002">
        <ele>1.1</ele>
        <time>2017-10-08T09:59:18Z</time>
      </trkpt>
      <trkpt lat="41.16076" lon="9.56994">
        <ele>0.14</ele>
        <time>2017-10-08T09:59:31Z</time>
      </trkpt>
      <trkpt lat="41.16105" lon="9.56995">
        <ele>0.14</ele>
        <time>2017-10-08T09:59:42Z</time>
      </trkpt>
      <trkpt lat="41.16143" lon="9.57001">
        <ele>1.1</ele>
        <time>2017-10-08T09:59:53Z</time>
      </trkpt>
      <trkpt lat="41.16172" lon="9.5702">
        <ele>1.1</ele>
        <time>2017-10-08T10:00:02Z</time>
      </trkpt>
      <trkpt lat="41.16201" lon="9.57042">
        <ele>2.54</ele>
        <time>2017-10-08T10:00:12Z</time>
      </trkpt>
      <trkpt lat="41.16222" lon="9.57062">
        <ele>2.06</ele>
        <time>2017-10-08T10:00:19Z</time>
      </trkpt>
      <trkpt lat="41.16247" lon="9.57087">
        <ele>0.62</ele>
        <time>2017-10-08T10:00:28Z</time>
      </trkpt>
      <trkpt lat="41.16268" lon="9.57126">
        <ele>0.62</ele>
        <time>2017-10-08T10:00:40Z</time>
      </trkpt>
      <trkpt lat="41.16289" lon="9.57164">
        <ele>1.1</ele>
        <time>2017-10-08T10:00:52Z</time>
      </trkpt>
      <trkpt lat="41.16298" lon="9.57174">
        <ele>0.62</ele>
        <time>2017-10-08T10:00:56Z</time>
      </trkpt>
      <trkpt lat="41.16308" lon="9.57212">
        <ele>0.62</ele>
        <time>2017-10-08T10:01:07Z</time>
      </trkpt>
      <trkpt lat="41.16308" lon="9.57222">
        <ele>0.14</ele>
        <time>2017-10-08T10:01:10Z</time>
      </trkpt>
      <trkpt lat="41.16308" lon="9.57262">
        <ele>0.14</ele>
        <time>2017-10-08T10:01:22Z</time>
      </trkpt>
      <trkpt lat="41.16333" lon="9.5728">
        <ele>1.58</ele>
        <time>2017-10-08T10:01:33Z</time>
      </trkpt>
      <trkpt lat="41.16335" lon="9.57281">
        <ele>2.06</ele>
        <time>2017-10-08T10:01:34Z</time>
      </trkpt>
      <trkpt lat="41.16348" lon="9.57278">
        <ele>2.06</ele>
        <time>2017-10-08T10:01:40Z</time>
      </trkpt>
      <trkpt lat="41.1638" lon="9.57278">
        <ele>1.58</ele>
        <time>2017-10-08T10:01:55Z</time>
      </trkpt>
      <trkpt lat="41.16406" lon="9.57279">
        <ele>2.54</ele>
        <time>2017-10-08T10:02:06Z</time>
      </trkpt>
      <trkpt lat="41.16434" lon="9.57274">
        <ele>2.06</ele>
        <time>2017-10-08T10:02:17Z</time>
      </trkpt>
      <trkpt lat="41.16461" lon="9.57265">
        <ele>2.54</ele>
        <time>2017-10-08T10:02:29Z</time>
      </trkpt>
      <trkpt lat="41.16487" lon="9.57262">
        <ele>2.54</ele>
        <time>2017-10-08T10:02:41Z</time>
      </trkpt>
      <trkpt lat="41.16507" lon="9.5726">
        <ele>3.02</ele>
        <time>2017-10-08T10:02:51Z</time>
      </trkpt>
      <trkpt lat="41.16514" lon="9.5726">
        <ele>1.1</ele>
        <time>2017-10-08T10:02:56Z</time>
      </trkpt>
      <trkpt lat="41.16523" lon="9.57261">
        <ele>1.1</ele>
        <time>2017-10-08T10:03:00Z</time>
      </trkpt>
      <trkpt lat="41.16529" lon="9.57263">
        <ele>1.58</ele>
        <time>2017-10-08T10:03:04Z</time>
      </trkpt>
      <trkpt lat="41.16551" lon="9.57267">
        <ele>0.62</ele>
        <time>2017-10-08T10:03:15Z</time>
      </trkpt>
      <trkpt lat="41.16561" lon="9.5727">
        <ele>0.14</ele>
        <time>2017-10-08T10:03:20Z</time>
      </trkpt>
      <trkpt lat="41.16571" lon="9.5727">
        <ele>0.14</ele>
        <time>2017-10-08T10:03:25Z</time>
      </trkpt>
      <trkpt lat="41.16599" lon="9.57267">
        <ele>2.54</ele>
        <time>2017-10-08T10:03:36Z</time>
      </trkpt>
      <trkpt lat="41.16602" lon="9.57267">
        <ele>2.54</ele>
        <time>2017-10-08T10:03:37Z</time>
      </trkpt>
      <trkpt lat="41.16613" lon="9.57267">
        <ele>3.02</ele>
        <time>2017-10-08T10:03:41Z</time>
      </trkpt>
      <trkpt lat="41.16619" lon="9.57267">
        <ele>3.02</ele>
        <time>2017-10-08T10:03:43Z</time>
      </trkpt>
      <trkpt lat="41.1663" lon="9.57267">
        <ele>3.5</ele>
        <time>2017-10-08T10:03:47Z</time>
      </trkpt>
      <trkpt lat="41.16658" lon="9.57268">
        <ele>3.98</ele>
        <time>2017-10-08T10:03:58Z</time>
      </trkpt>
      <trkpt lat="41.1669" lon="9.57267">
        <ele>4.46</ele>
        <time>2017-10-08T10:04:10Z</time>
      </trkpt>
      <trkpt lat="41.16724" lon="9.57264">
        <ele>4.94</ele>
        <time>2017-10-08T10:04:22Z</time>
      </trkpt>
      <trkpt lat="41.16749" lon="9.5726">
        <ele>5.42</ele>
        <time>2017-10-08T10:04:31Z</time>
      </trkpt>
      <trkpt lat="41.16759" lon="9.57257">
        <ele>5.42</ele>
        <time>2017-10-08T10:04:35Z</time>
      </trkpt>
      <trkpt lat="41.16776" lon="9.57256">
        <ele>5.42</ele>
        <time>2017-10-08T10:04:43Z</time>
      </trkpt>
      <trkpt lat="41.16791" lon="9.57256">
        <ele>4.46</ele>
        <time>2017-10-08T10:04:51Z</time>
      </trkpt>
      <trkpt lat="41.16807" lon="9.57252">
        <ele>3.5</ele>
        <time>2017-10-08T10:04:59Z</time>
      </trkpt>
      <trkpt lat="41.16816" lon="9.57252">
        <ele>3.5</ele>
        <time>2017-10-08T10:05:03Z</time>
      </trkpt>
      <trkpt lat="41.16843" lon="9.57252">
        <ele>1.58</ele>
        <time>2017-10-08T10:05:14Z</time>
      </trkpt>
      <trkpt lat="41.1687" lon="9.57247">
        <ele>0.14</ele>
        <time>2017-10-08T10:05:26Z</time>
      </trkpt>
      <trkpt lat="41.16887" lon="9.57243">
        <ele>1.1</ele>
        <time>2017-10-08T10:05:36Z</time>
      </trkpt>
      <trkpt lat="41.16896" lon="9.57244">
        <ele>2.06</ele>
        <time>2017-10-08T10:05:41Z</time>
      </trkpt>
      <trkpt lat="41.1692" lon="9.57239">
        <ele>0.62</ele>
        <time>2017-10-08T10:05:54Z</time>
      </trkpt>
      <trkpt lat="41.16949" lon="9.57228">
        <ele>1.1</ele>
        <time>2017-10-08T10:06:05Z</time>
      </trkpt>
      <trkpt lat="41.16978" lon="9.57215">
        <ele>1.1</ele>
        <time>2017-10-08T10:06:15Z</time>
      </trkpt>
      <trkpt lat="41.1698" lon="9.57213">
        <ele>1.1</ele>
        <time>2017-10-08T10:06:16Z</time>
      </trkpt>
      <trkpt lat="41.17007" lon="9.57198">
        <ele>2.54</ele>
        <time>2017-10-08T10:06:26Z</time>
      </trkpt>
      <trkpt lat="41.17028" lon="9.57189">
        <ele>3.02</ele>
        <time>2017-10-08T10:06:34Z</time>
      </trkpt>
      <trkpt lat="41.17055" lon="9.5718">
        <ele>3.5</ele>
        <time>2017-10-08T10:06:46Z</time>
      </trkpt>
      <trkpt lat="41.17087" lon="9.57172">
        <ele>3.98</ele>
        <time>2017-10-08T10:06:58Z</time>
      </trkpt>
      <trkpt lat="41.17116" lon="9.57163">
        <ele>4.46</ele>
        <time>2017-10-08T10:07:09Z</time>
      </trkpt>
      <trkpt lat="41.17145" lon="9.57151">
        <ele>3.98</ele>
        <time>2017-10-08T10:07:21Z</time>
      </trkpt>
      <trkpt lat="41.17173" lon="9.57146">
        <ele>3.5</ele>
        <time>2017-10-08T10:07:32Z</time>
      </trkpt>
      <trkpt lat="41.1721" lon="9.57133">
        <ele>3.5</ele>
        <time>2017-10-08T10:07:45Z</time>
      </trkpt>
      <trkpt lat="41.17239" lon="9.57125">
        <ele>3.98</ele>
        <time>2017-10-08T10:07:56Z</time>
      </trkpt>
      <trkpt lat="41.17274" lon="9.57118">
        <ele>3.5</ele>
        <time>2017-10-08T10:08:08Z</time>
      </trkpt>
      <trkpt lat="41.17296" lon="9.57111">
        <ele>2.54</ele>
        <time>2017-10-08T10:08:16Z</time>
      </trkpt>
      <trkpt lat="41.17328" lon="9.57101">
        <ele>3.98</ele>
        <time>2017-10-08T10:08:28Z</time>
      </trkpt>
      <trkpt lat="41.17352" lon="9.57094">
        <ele>3.98</ele>
        <time>2017-10-08T10:08:37Z</time>
      </trkpt>
      <trkpt lat="41.17384" lon="9.5708">
        <ele>3.98</ele>
        <time>2017-10-08T10:08:49Z</time>
      </trkpt>
      <trkpt lat="41.17411" lon="9.57067">
        <ele>5.42</ele>
        <time>2017-10-08T10:09:00Z</time>
      </trkpt>
      <trkpt lat="41.17438" lon="9.57055">
        <ele>4.94</ele>
        <time>2017-10-08T10:09:11Z</time>
      </trkpt>
      <trkpt lat="41.17472" lon="9.57041">
        <ele>7.83</ele>
        <time>2017-10-08T10:09:24Z</time>
      </trkpt>
      <trkpt lat="41.17502" lon="9.57024">
        <ele>7.35</ele>
        <time>2017-10-08T10:09:36Z</time>
      </trkpt>
      <trkpt lat="41.17534" lon="9.57009">
        <ele>6.39</ele>
        <time>2017-10-08T10:09:48Z</time>
      </trkpt>
      <trkpt lat="41.17564" lon="9.56994">
        <ele>5.91</ele>
        <time>2017-10-08T10:09:59Z</time>
      </trkpt>
      <trkpt lat="41.17595" lon="9.56982">
        <ele>5.42</ele>
        <time>2017-10-08T10:10:10Z</time>
      </trkpt>
      <trkpt lat="41.17601" lon="9.5698">
        <ele>4.94</ele>
        <time>2017-10-08T10:10:12Z</time>
      </trkpt>
      <trkpt lat="41.17635" lon="9.56968">
        <ele>3.5</ele>
        <time>2017-10-08T10:10:24Z</time>
      </trkpt>
      <trkpt lat="41.17656" lon="9.56958">
        <ele>3.5</ele>
        <time>2017-10-08T10:10:33Z</time>
      </trkpt>
      <trkpt lat="41.17682" lon="9.56941">
        <ele>3.5</ele>
        <time>2017-10-08T10:10:45Z</time>
      </trkpt>
      <trkpt lat="41.17709" lon="9.56932">
        <ele>3.98</ele>
        <time>2017-10-08T10:10:56Z</time>
      </trkpt>
      <trkpt lat="41.17744" lon="9.56915">
        <ele>3.5</ele>
        <time>2017-10-08T10:11:09Z</time>
      </trkpt>
      <trkpt lat="41.17778" lon="9.569">
        <ele>3.98</ele>
        <time>2017-10-08T10:11:21Z</time>
      </trkpt>
      <trkpt lat="41.17802" lon="9.56891">
        <ele>3.98</ele>
        <time>2017-10-08T10:11:29Z</time>
      </trkpt>
      <trkpt lat="41.17839" lon="9.56873">
        <ele>3.02</ele>
        <time>2017-10-08T10:11:42Z</time>
      </trkpt>
      <trkpt lat="41.1788" lon="9.56856">
        <ele>3.02</ele>
        <time>2017-10-08T10:11:56Z</time>
      </trkpt>
      <trkpt lat="41.17905" lon="9.56844">
        <ele>3.02</ele>
        <time>2017-10-08T10:12:05Z</time>
      </trkpt>
      <trkpt lat="41.17931" lon="9.56832">
        <ele>2.54</ele>
        <time>2017-10-08T10:12:14Z</time>
      </trkpt>
      <trkpt lat="41.17947" lon="9.56824">
        <ele>3.02</ele>
        <time>2017-10-08T10:12:20Z</time>
      </trkpt>
      <trkpt lat="41.17984" lon="9.56804">
        <ele>2.54</ele>
        <time>2017-10-08T10:12:33Z</time>
      </trkpt>
      <trkpt lat="41.18018" lon="9.56785">
        <ele>3.02</ele>
        <time>2017-10-08T10:12:45Z</time>
      </trkpt>
      <trkpt lat="41.18051" lon="9.56768">
        <ele>3.98</ele>
        <time>2017-10-08T10:12:57Z</time>
      </trkpt>
      <trkpt lat="41.18077" lon="9.56756">
        <ele>3.5</ele>
        <time>2017-10-08T10:13:07Z</time>
      </trkpt>
      <trkpt lat="41.18105" lon="9.56741">
        <ele>3.5</ele>
        <time>2017-10-08T10:13:17Z</time>
      </trkpt>
      <trkpt lat="41.18143" lon="9.56721">
        <ele>3.5</ele>
        <time>2017-10-08T10:13:31Z</time>
      </trkpt>
      <trkpt lat="41.1817" lon="9.56704">
        <ele>3.5</ele>
        <time>2017-10-08T10:13:42Z</time>
      </trkpt>
      <trkpt lat="41.18197" lon="9.56692">
        <ele>3.02</ele>
        <time>2017-10-08T10:13:54Z</time>
      </trkpt>
      <trkpt lat="41.18218" lon="9.56682">
        <ele>3.02</ele>
        <time>2017-10-08T10:14:04Z</time>
      </trkpt>
      <trkpt lat="41.18244" lon="9.56677">
        <ele>3.98</ele>
        <time>2017-10-08T10:14:17Z</time>
      </trkpt>
      <trkpt lat="41.18278" lon="9.56667">
        <ele>4.46</ele>
        <time>2017-10-08T10:14:30Z</time>
      </trkpt>
      <trkpt lat="41.18302" lon="9.56661">
        <ele>3.5</ele>
        <time>2017-10-08T10:14:40Z</time>
      </trkpt>
      <trkpt lat="41.18324" lon="9.56653">
        <ele>2.54</ele>
        <time>2017-10-08T10:14:51Z</time>
      </trkpt>
      <trkpt lat="41.18334" lon="9.56652">
        <ele>3.02</ele>
        <time>2017-10-08T10:14:58Z</time>
      </trkpt>
      <trkpt lat="41.18341" lon="9.56653">
        <ele>3.02</ele>
        <time>2017-10-08T10:15:03Z</time>
      </trkpt>
      <trkpt lat="41.18367" lon="9.56657">
        <ele>3.02</ele>
        <time>2017-10-08T10:15:15Z</time>
      </trkpt>
      <trkpt lat="41.18399" lon="9.56646">
        <ele>3.02</ele>
        <time>2017-10-08T10:15:27Z</time>
      </trkpt>
      <trkpt lat="41.18425" lon="9.56633">
        <ele>3.02</ele>
        <time>2017-10-08T10:15:37Z</time>
      </trkpt>
      <trkpt lat="41.18452" lon="9.56624">
        <ele>3.5</ele>
        <time>2017-10-08T10:15:49Z</time>
      </trkpt>
      <trkpt lat="41.18468" lon="9.56614">
        <ele>3.5</ele>
        <time>2017-10-08T10:15:56Z</time>
      </trkpt>
      <trkpt lat="41.18492" lon="9.56605">
        <ele>3.5</ele>
        <time>2017-10-08T10:16:07Z</time>
      </trkpt>
      <trkpt lat="41.18526" lon="9.56588">
        <ele>3.98</ele>
        <time>2017-10-08T10:16:21Z</time>
      </trkpt>
      <trkpt lat="41.18549" lon="9.5658">
        <ele>3.98</ele>
        <time>2017-10-08T10:16:31Z</time>
      </trkpt>
      <trkpt lat="41.18577" lon="9.56569">
        <ele>3.02</ele>
        <time>2017-10-08T10:16:44Z</time>
      </trkpt>
      <trkpt lat="41.186" lon="9.56562">
        <ele>3.02</ele>
        <time>2017-10-08T10:16:54Z</time>
      </trkpt>
      <trkpt lat="41.18609" lon="9.56559">
        <ele>3.02</ele>
        <time>2017-10-08T10:16:58Z</time>
      </trkpt>
      <trkpt lat="41.18634" lon="9.56548">
        <ele>3.5</ele>
        <time>2017-10-08T10:17:08Z</time>
      </trkpt>
      <trkpt lat="41.18663" lon="9.56533">
        <ele>3.5</ele>
        <time>2017-10-08T10:17:19Z</time>
      </trkpt>
      <trkpt lat="41.18692" lon="9.56518">
        <ele>3.98</ele>
        <time>2017-10-08T10:17:30Z</time>
      </trkpt>
      <trkpt lat="41.18717" lon="9.56507">
        <ele>3.98</ele>
        <time>2017-10-08T10:17:39Z</time>
      </trkpt>
      <trkpt lat="41.18739" lon="9.56495">
        <ele>3.5</ele>
        <time>2017-10-08T10:17:48Z</time>
      </trkpt>
      <trkpt lat="41.1877" lon="9.56481">
        <ele>3.5</ele>
        <time>2017-10-08T10:18:00Z</time>
      </trkpt>
      <trkpt lat="41.18798" lon="9.56467">
        <ele>3.5</ele>
        <time>2017-10-08T10:18:11Z</time>
      </trkpt>
      <trkpt lat="41.18826" lon="9.56453">
        <ele>3.02</ele>
        <time>2017-10-08T10:18:22Z</time>
      </trkpt>
      <trkpt lat="41.18849" lon="9.56442">
        <ele>3.98</ele>
        <time>2017-10-08T10:18:32Z</time>
      </trkpt>
      <trkpt lat="41.18874" lon="9.56427">
        <ele>3.5</ele>
        <time>2017-10-08T10:18:42Z</time>
      </trkpt>
      <trkpt lat="41.189" lon="9.56418">
        <ele>3.98</ele>
        <time>2017-10-08T10:18:52Z</time>
      </trkpt>
      <trkpt lat="41.18931" lon="9.56403">
        <ele>3.5</ele>
        <time>2017-10-08T10:19:04Z</time>
      </trkpt>
      <trkpt lat="41.18954" lon="9.56394">
        <ele>3.02</ele>
        <time>2017-10-08T10:19:13Z</time>
      </trkpt>
      <trkpt lat="41.18981" lon="9.56384">
        <ele>2.54</ele>
        <time>2017-10-08T10:19:24Z</time>
      </trkpt>
      <trkpt lat="41.19007" lon="9.5638">
        <ele>2.06</ele>
        <time>2017-10-08T10:19:34Z</time>
      </trkpt>
      <trkpt lat="41.19034" lon="9.56371">
        <ele>2.54</ele>
        <time>2017-10-08T10:19:44Z</time>
      </trkpt>
      <trkpt lat="41.19064" lon="9.5636">
        <ele>3.02</ele>
        <time>2017-10-08T10:19:55Z</time>
      </trkpt>
      <trkpt lat="41.19088" lon="9.5635">
        <ele>3.02</ele>
        <time>2017-10-08T10:20:04Z</time>
      </trkpt>
      <trkpt lat="41.19108" lon="9.56342">
        <ele>3.02</ele>
        <time>2017-10-08T10:20:13Z</time>
      </trkpt>
      <trkpt lat="41.19128" lon="9.56335">
        <ele>3.5</ele>
        <time>2017-10-08T10:20:22Z</time>
      </trkpt>
      <trkpt lat="41.19153" lon="9.56325">
        <ele>3.5</ele>
        <time>2017-10-08T10:20:32Z</time>
      </trkpt>
      <trkpt lat="41.19157" lon="9.56324">
        <ele>3.5</ele>
        <time>2017-10-08T10:20:34Z</time>
      </trkpt>
      <trkpt lat="41.19185" lon="9.56313">
        <ele>3.02</ele>
        <time>2017-10-08T10:20:46Z</time>
      </trkpt>
      <trkpt lat="41.19207" lon="9.56303">
        <ele>3.5</ele>
        <time>2017-10-08T10:20:56Z</time>
      </trkpt>
      <trkpt lat="41.1923" lon="9.56295">
        <ele>3.98</ele>
        <time>2017-10-08T10:21:05Z</time>
      </trkpt>
      <trkpt lat="41.19255" lon="9.56283">
        <ele>3.02</ele>
        <time>2017-10-08T10:21:15Z</time>
      </trkpt>
      <trkpt lat="41.1928" lon="9.56268">
        <ele>3.02</ele>
        <time>2017-10-08T10:21:25Z</time>
      </trkpt>
      <trkpt lat="41.19282" lon="9.56267">
        <ele>2.54</ele>
        <time>2017-10-08T10:21:26Z</time>
      </trkpt>
      <trkpt lat="41.19294" lon="9.56262">
        <ele>2.06</ele>
        <time>2017-10-08T10:21:31Z</time>
      </trkpt>
      <trkpt lat="41.19322" lon="9.56249">
        <ele>2.54</ele>
        <time>2017-10-08T10:21:43Z</time>
      </trkpt>
      <trkpt lat="41.19349" lon="9.56235">
        <ele>3.02</ele>
        <time>2017-10-08T10:21:54Z</time>
      </trkpt>
      <trkpt lat="41.19375" lon="9.56222">
        <ele>3.02</ele>
        <time>2017-10-08T10:22:05Z</time>
      </trkpt>
      <trkpt lat="41.194" lon="9.56207">
        <ele>3.02</ele>
        <time>2017-10-08T10:22:16Z</time>
      </trkpt>
      <trkpt lat="41.19419" lon="9.56199">
        <ele>3.5</ele>
        <time>2017-10-08T10:22:25Z</time>
      </trkpt>
      <trkpt lat="41.1945" lon="9.56184">
        <ele>3.5</ele>
        <time>2017-10-08T10:22:38Z</time>
      </trkpt>
      <trkpt lat="41.19475" lon="9.5617">
        <ele>3.5</ele>
        <time>2017-10-08T10:22:49Z</time>
      </trkpt>
      <trkpt lat="41.19496" lon="9.56161">
        <ele>3.5</ele>
        <time>2017-10-08T10:22:57Z</time>
      </trkpt>
      <trkpt lat="41.19505" lon="9.56155">
        <ele>3.02</ele>
        <time>2017-10-08T10:23:01Z</time>
      </trkpt>
      <trkpt lat="41.19531" lon="9.56138">
        <ele>3.02</ele>
        <time>2017-10-08T10:23:11Z</time>
      </trkpt>
      <trkpt lat="41.19554" lon="9.56121">
        <ele>3.02</ele>
        <time>2017-10-08T10:23:20Z</time>
      </trkpt>
      <trkpt lat="41.1958" lon="9.56108">
        <ele>3.02</ele>
        <time>2017-10-08T10:23:29Z</time>
      </trkpt>
      <trkpt lat="41.19605" lon="9.56094">
        <ele>3.5</ele>
        <time>2017-10-08T10:23:38Z</time>
      </trkpt>
      <trkpt lat="41.19633" lon="9.56071">
        <ele>3.5</ele>
        <time>2017-10-08T10:23:49Z</time>
      </trkpt>
      <trkpt lat="41.19655" lon="9.56055">
        <ele>3.02</ele>
        <time>2017-10-08T10:23:59Z</time>
      </trkpt>
      <trkpt lat="41.19672" lon="9.56051">
        <ele>2.54</ele>
        <time>2017-10-08T10:24:06Z</time>
      </trkpt>
      <trkpt lat="41.19693" lon="9.56043">
        <ele>2.54</ele>
        <time>2017-10-08T10:24:16Z</time>
      </trkpt>
      <trkpt lat="41.19695" lon="9.56042">
        <ele>2.06</ele>
        <time>2017-10-08T10:24:17Z</time>
      </trkpt>
      <trkpt lat="41.19703" lon="9.56038">
        <ele>2.54</ele>
        <time>2017-10-08T10:24:21Z</time>
      </trkpt>
      <trkpt lat="41.19721" lon="9.56028">
        <ele>1.58</ele>
        <time>2017-10-08T10:24:30Z</time>
      </trkpt>
      <trkpt lat="41.19746" lon="9.56017">
        <ele>2.06</ele>
        <time>2017-10-08T10:24:41Z</time>
      </trkpt>
      <trkpt lat="41.19769" lon="9.56006">
        <ele>2.06</ele>
        <time>2017-10-08T10:24:51Z</time>
      </trkpt>
      <trkpt lat="41.19789" lon="9.55996">
        <ele>2.06</ele>
        <time>2017-10-08T10:25:00Z</time>
      </trkpt>
      <trkpt lat="41.19804" lon="9.5599">
        <ele>2.54</ele>
        <time>2017-10-08T10:25:06Z</time>
      </trkpt>
      <trkpt lat="41.19825" lon="9.5598">
        <ele>2.06</ele>
        <time>2017-10-08T10:25:16Z</time>
      </trkpt>
      <trkpt lat="41.19834" lon="9.55978">
        <ele>1.58</ele>
        <time>2017-10-08T10:25:21Z</time>
      </trkpt>
      <trkpt lat="41.19855" lon="9.55974">
        <ele>1.58</ele>
        <time>2017-10-08T10:25:32Z</time>
      </trkpt>
      <trkpt lat="41.19882" lon="9.55965">
        <ele>2.06</ele>
        <time>2017-10-08T10:25:45Z</time>
      </trkpt>
      <trkpt lat="41.19909" lon="9.55955">
        <ele>2.06</ele>
        <time>2017-10-08T10:25:57Z</time>
      </trkpt>
      <trkpt lat="41.19937" lon="9.55943">
        <ele>2.06</ele>
        <time>2017-10-08T10:26:10Z</time>
      </trkpt>
      <trkpt lat="41.19961" lon="9.55932">
        <ele>3.02</ele>
        <time>2017-10-08T10:26:21Z</time>
      </trkpt>
      <trkpt lat="41.19986" lon="9.55923">
        <ele>3.02</ele>
        <time>2017-10-08T10:26:32Z</time>
      </trkpt>
      <trkpt lat="41.19995" lon="9.55918">
        <ele>3.02</ele>
        <time>2017-10-08T10:26:36Z</time>
      </trkpt>
      <trkpt lat="41.20014" lon="9.55911">
        <ele>2.54</ele>
        <time>2017-10-08T10:26:45Z</time>
      </trkpt>
      <trkpt lat="41.20016" lon="9.55911">
        <ele>2.54</ele>
        <time>2017-10-08T10:26:46Z</time>
      </trkpt>
      <trkpt lat="41.20029" lon="9.55908">
        <ele>2.54</ele>
        <time>2017-10-08T10:26:53Z</time>
      </trkpt>
      <trkpt lat="41.20048" lon="9.55908">
        <ele>2.06</ele>
        <time>2017-10-08T10:27:02Z</time>
      </trkpt>
      <trkpt lat="41.20078" lon="9.55896">
        <ele>2.06</ele>
        <time>2017-10-08T10:27:15Z</time>
      </trkpt>
      <trkpt lat="41.20103" lon="9.55883">
        <ele>1.58</ele>
        <time>2017-10-08T10:27:25Z</time>
      </trkpt>
      <trkpt lat="41.20129" lon="9.5587">
        <ele>1.58</ele>
        <time>2017-10-08T10:27:36Z</time>
      </trkpt>
      <trkpt lat="41.2016" lon="9.55856">
        <ele>1.58</ele>
        <time>2017-10-08T10:27:50Z</time>
      </trkpt>
      <trkpt lat="41.20184" lon="9.55848">
        <ele>1.58</ele>
        <time>2017-10-08T10:28:01Z</time>
      </trkpt>
      <trkpt lat="41.20213" lon="9.55836">
        <ele>2.54</ele>
        <time>2017-10-08T10:28:14Z</time>
      </trkpt>
      <trkpt lat="41.20238" lon="9.55824">
        <ele>3.5</ele>
        <time>2017-10-08T10:28:25Z</time>
      </trkpt>
      <trkpt lat="41.20272" lon="9.55813">
        <ele>3.98</ele>
        <time>2017-10-08T10:28:39Z</time>
      </trkpt>
      <trkpt lat="41.20298" lon="9.55802">
        <ele>3.98</ele>
        <time>2017-10-08T10:28:49Z</time>
      </trkpt>
      <trkpt lat="41.20331" lon="9.55788">
        <ele>3.5</ele>
        <time>2017-10-08T10:29:01Z</time>
      </trkpt>
      <trkpt lat="41.2036" lon="9.55774">
        <ele>3.5</ele>
        <time>2017-10-08T10:29:12Z</time>
      </trkpt>
      <trkpt lat="41.20386" lon="9.55765">
        <ele>3.98</ele>
        <time>2017-10-08T10:29:22Z</time>
      </trkpt>
      <trkpt lat="41.20423" lon="9.55751">
        <ele>4.46</ele>
        <time>2017-10-08T10:29:35Z</time>
      </trkpt>
      <trkpt lat="41.20449" lon="9.55742">
        <ele>4.94</ele>
        <time>2017-10-08T10:29:45Z</time>
      </trkpt>
      <trkpt lat="41.20472" lon="9.55733">
        <ele>4.94</ele>
        <time>2017-10-08T10:29:54Z</time>
      </trkpt>
      <trkpt lat="41.20503" lon="9.55722">
        <ele>3.98</ele>
        <time>2017-10-08T10:30:05Z</time>
      </trkpt>
      <trkpt lat="41.20535" lon="9.55708">
        <ele>3.02</ele>
        <time>2017-10-08T10:30:17Z</time>
      </trkpt>
      <trkpt lat="41.20558" lon="9.55697">
        <ele>3.02</ele>
        <time>2017-10-08T10:30:26Z</time>
      </trkpt>
      <trkpt lat="41.20594" lon="9.55682">
        <ele>3.02</ele>
        <time>2017-10-08T10:30:40Z</time>
      </trkpt>
      <trkpt lat="41.20617" lon="9.5567">
        <ele>3.02</ele>
        <time>2017-10-08T10:30:50Z</time>
      </trkpt>
      <trkpt lat="41.20651" lon="9.55651">
        <ele>3.5</ele>
        <time>2017-10-08T10:31:04Z</time>
      </trkpt>
      <trkpt lat="41.20675" lon="9.55641">
        <ele>4.94</ele>
        <time>2017-10-08T10:31:14Z</time>
      </trkpt>
      <trkpt lat="41.20699" lon="9.5563">
        <ele>4.46</ele>
        <time>2017-10-08T10:31:24Z</time>
      </trkpt>
      <trkpt lat="41.2072" lon="9.55618">
        <ele>4.46</ele>
        <time>2017-10-08T10:31:33Z</time>
      </trkpt>
      <trkpt lat="41.20743" lon="9.55608">
        <ele>3.5</ele>
        <time>2017-10-08T10:31:45Z</time>
      </trkpt>
      <trkpt lat="41.20768" lon="9.55602">
        <ele>3.98</ele>
        <time>2017-10-08T10:31:56Z</time>
      </trkpt>
      <trkpt lat="41.20777" lon="9.55596">
        <ele>3.02</ele>
        <time>2017-10-08T10:32:01Z</time>
      </trkpt>
      <trkpt lat="41.20797" lon="9.55587">
        <ele>3.02</ele>
        <time>2017-10-08T10:32:11Z</time>
      </trkpt>
      <trkpt lat="41.20804" lon="9.55584">
        <ele>3.02</ele>
        <time>2017-10-08T10:32:14Z</time>
      </trkpt>
      <trkpt lat="41.20829" lon="9.55577">
        <ele>3.5</ele>
        <time>2017-10-08T10:32:25Z</time>
      </trkpt>
      <trkpt lat="41.20838" lon="9.55572">
        <ele>3.02</ele>
        <time>2017-10-08T10:32:29Z</time>
      </trkpt>
      <trkpt lat="41.20856" lon="9.55562">
        <ele>2.54</ele>
        <time>2017-10-08T10:32:38Z</time>
      </trkpt>
      <trkpt lat="41.20876" lon="9.55554">
        <ele>3.98</ele>
        <time>2017-10-08T10:32:48Z</time>
      </trkpt>
      <trkpt lat="41.20888" lon="9.5555">
        <ele>3.5</ele>
        <time>2017-10-08T10:32:54Z</time>
      </trkpt>
      <trkpt lat="41.20892" lon="9.55549">
        <ele>3.98</ele>
        <time>2017-10-08T10:32:56Z</time>
      </trkpt>
      <trkpt lat="41.209" lon="9.55545">
        <ele>3.98</ele>
        <time>2017-10-08T10:33:00Z</time>
      </trkpt>
      <trkpt lat="41.20915" lon="9.55535">
        <ele>3.98</ele>
        <time>2017-10-08T10:33:09Z</time>
      </trkpt>
      <trkpt lat="41.20941" lon="9.55521">
        <ele>4.46</ele>
        <time>2017-10-08T10:33:22Z</time>
      </trkpt>
      <trkpt lat="41.20946" lon="9.55516">
        <ele>3.98</ele>
        <time>2017-10-08T10:33:25Z</time>
      </trkpt>
      <trkpt lat="41.20963" lon="9.55505">
        <ele>4.94</ele>
        <time>2017-10-08T10:33:34Z</time>
      </trkpt>
      <trkpt lat="41.20965" lon="9.55504">
        <ele>4.94</ele>
        <time>2017-10-08T10:33:35Z</time>
      </trkpt>
      <trkpt lat="41.20984" lon="9.55492">
        <ele>4.94</ele>
        <time>2017-10-08T10:33:46Z</time>
      </trkpt>
      <trkpt lat="41.21009" lon="9.55479">
        <ele>4.94</ele>
        <time>2017-10-08T10:33:58Z</time>
      </trkpt>
      <trkpt lat="41.21033" lon="9.55467">
        <ele>4.46</ele>
        <time>2017-10-08T10:34:09Z</time>
      </trkpt>
      <trkpt lat="41.21055" lon="9.55456">
        <ele>3.02</ele>
        <time>2017-10-08T10:34:19Z</time>
      </trkpt>
      <trkpt lat="41.21068" lon="9.55448">
        <ele>3.02</ele>
        <time>2017-10-08T10:34:25Z</time>
      </trkpt>
      <trkpt lat="41.21095" lon="9.55434">
        <ele>3.5</ele>
        <time>2017-10-08T10:34:37Z</time>
      </trkpt>
      <trkpt lat="41.21097" lon="9.55433">
        <ele>3.5</ele>
        <time>2017-10-08T10:34:38Z</time>
      </trkpt>
      <trkpt lat="41.21119" lon="9.55416">
        <ele>3.5</ele>
        <time>2017-10-08T10:34:49Z</time>
      </trkpt>
      <trkpt lat="41.21133" lon="9.55408">
        <ele>3.02</ele>
        <time>2017-10-08T10:34:56Z</time>
      </trkpt>
      <trkpt lat="41.21156" lon="9.55399">
        <ele>3.5</ele>
        <time>2017-10-08T10:35:07Z</time>
      </trkpt>
      <trkpt lat="41.21161" lon="9.55396">
        <ele>3.5</ele>
        <time>2017-10-08T10:35:09Z</time>
      </trkpt>
      <trkpt lat="41.21169" lon="9.5539">
        <ele>3.02</ele>
        <time>2017-10-08T10:35:13Z</time>
      </trkpt>
      <trkpt lat="41.21184" lon="9.55379">
        <ele>3.98</ele>
        <time>2017-10-08T10:35:21Z</time>
      </trkpt>
      <trkpt lat="41.212" lon="9.55372">
        <ele>3.98</ele>
        <time>2017-10-08T10:35:29Z</time>
      </trkpt>
      <trkpt lat="41.2121" lon="9.55366">
        <ele>3.98</ele>
        <time>2017-10-08T10:35:34Z</time>
      </trkpt>
      <trkpt lat="41.21225" lon="9.55354">
        <ele>3.5</ele>
        <time>2017-10-08T10:35:42Z</time>
      </trkpt>
      <trkpt lat="41.21229" lon="9.55352">
        <ele>3.5</ele>
        <time>2017-10-08T10:35:44Z</time>
      </trkpt>
      <trkpt lat="41.21252" lon="9.55336">
        <ele>3.5</ele>
        <time>2017-10-08T10:35:55Z</time>
      </trkpt>
      <trkpt lat="41.21275" lon="9.5532">
        <ele>3.5</ele>
        <time>2017-10-08T10:36:06Z</time>
      </trkpt>
      <trkpt lat="41.21283" lon="9.55317">
        <ele>3.5</ele>
        <time>2017-10-08T10:36:10Z</time>
      </trkpt>
      <trkpt lat="41.21291" lon="9.55315">
        <ele>3.5</ele>
        <time>2017-10-08T10:36:14Z</time>
      </trkpt>
      <trkpt lat="41.21307" lon="9.55307">
        <ele>3.5</ele>
        <time>2017-10-08T10:36:25Z</time>
      </trkpt>
      <trkpt lat="41.21314" lon="9.55307">
        <ele>3.02</ele>
        <time>2017-10-08T10:36:29Z</time>
      </trkpt>
      <trkpt lat="41.2132" lon="9.55307">
        <ele>2.54</ele>
        <time>2017-10-08T10:36:32Z</time>
      </trkpt>
      <trkpt lat="41.21332" lon="9.55304">
        <ele>2.54</ele>
        <time>2017-10-08T10:36:38Z</time>
      </trkpt>
      <trkpt lat="41.21355" lon="9.55288">
        <ele>3.5</ele>
        <time>2017-10-08T10:36:52Z</time>
      </trkpt>
      <trkpt lat="41.21362" lon="9.55282">
        <ele>3.5</ele>
        <time>2017-10-08T10:36:57Z</time>
      </trkpt>
      <trkpt lat="41.21379" lon="9.55274">
        <ele>3.5</ele>
        <time>2017-10-08T10:37:09Z</time>
      </trkpt>
      <trkpt lat="41.21394" lon="9.55269">
        <ele>4.94</ele>
        <time>2017-10-08T10:37:19Z</time>
      </trkpt>
      <trkpt lat="41.21399" lon="9.55267">
        <ele>4.46</ele>
        <time>2017-10-08T10:37:23Z</time>
      </trkpt>
      <trkpt lat="41.21415" lon="9.55267">
        <ele>5.42</ele>
        <time>2017-10-08T10:37:35Z</time>
      </trkpt>
      <trkpt lat="41.21429" lon="9.55263">
        <ele>3.98</ele>
        <time>2017-10-08T10:37:47Z</time>
      </trkpt>
      <trkpt lat="41.21444" lon="9.55258">
        <ele>2.54</ele>
        <time>2017-10-08T10:37:59Z</time>
      </trkpt>
      <trkpt lat="41.21447" lon="9.55256">
        <ele>2.54</ele>
        <time>2017-10-08T10:38:03Z</time>
      </trkpt>
      <trkpt lat="41.21456" lon="9.55255">
        <ele>3.02</ele>
        <time>2017-10-08T10:38:10Z</time>
      </trkpt>
      <trkpt lat="41.21464" lon="9.55254">
        <ele>3.5</ele>
        <time>2017-10-08T10:38:15Z</time>
      </trkpt>
      <trkpt lat="41.21477" lon="9.5525">
        <ele>3.02</ele>
        <time>2017-10-08T10:38:25Z</time>
      </trkpt>
      <trkpt lat="41.2149" lon="9.5525">
        <ele>3.02</ele>
        <time>2017-10-08T10:38:33Z</time>
      </trkpt>
      <trkpt lat="41.21499" lon="9.55242">
        <ele>3.5</ele>
        <time>2017-10-08T10:38:43Z</time>
      </trkpt>
      <trkpt lat="41.21501" lon="9.55241">
        <ele>3.5</ele>
        <time>2017-10-08T10:38:46Z</time>
      </trkpt>
      <trkpt lat="41.21522" lon="9.55243">
        <ele>3.02</ele>
        <time>2017-10-08T10:38:59Z</time>
      </trkpt>
      <trkpt lat="41.21537" lon="9.55234">
        <ele>3.5</ele>
        <time>2017-10-08T10:39:10Z</time>
      </trkpt>
      <trkpt lat="41.21551" lon="9.55227">
        <ele>3.5</ele>
        <time>2017-10-08T10:39:21Z</time>
      </trkpt>
      <trkpt lat="41.21552" lon="9.55226">
        <ele>3.5</ele>
        <time>2017-10-08T10:39:22Z</time>
      </trkpt>
      <trkpt lat="41.2156" lon="9.55224">
        <ele>3.98</ele>
        <time>2017-10-08T10:39:27Z</time>
      </trkpt>
      <trkpt lat="41.21576" lon="9.55215">
        <ele>3.98</ele>
        <time>2017-10-08T10:39:38Z</time>
      </trkpt>
      <trkpt lat="41.21583" lon="9.55206">
        <ele>3.5</ele>
        <time>2017-10-08T10:39:46Z</time>
      </trkpt>
      <trkpt lat="41.21597" lon="9.55206">
        <ele>3.98</ele>
        <time>2017-10-08T10:39:56Z</time>
      </trkpt>
      <trkpt lat="41.21613" lon="9.55207">
        <ele>4.46</ele>
        <time>2017-10-08T10:40:06Z</time>
      </trkpt>
      <trkpt lat="41.2162" lon="9.55204">
        <ele>4.46</ele>
        <time>2017-10-08T10:40:11Z</time>
      </trkpt>
      <trkpt lat="41.21624" lon="9.55202">
        <ele>3.98</ele>
        <time>2017-10-08T10:40:15Z</time>
      </trkpt>
      <trkpt lat="41.21639" lon="9.55197">
        <ele>3.98</ele>
        <time>2017-10-08T10:40:28Z</time>
      </trkpt>
      <trkpt lat="41.21655" lon="9.55197">
        <ele>3.98</ele>
        <time>2017-10-08T10:40:42Z</time>
      </trkpt>
      <trkpt lat="41.21667" lon="9.55193">
        <ele>3.5</ele>
        <time>2017-10-08T10:40:51Z</time>
      </trkpt>
      <trkpt lat="41.21671" lon="9.55189">
        <ele>3.5</ele>
        <time>2017-10-08T10:40:55Z</time>
      </trkpt>
      <trkpt lat="41.21687" lon="9.55185">
        <ele>2.06</ele>
        <time>2017-10-08T10:41:06Z</time>
      </trkpt>
      <trkpt lat="41.21704" lon="9.55179">
        <ele>2.54</ele>
        <time>2017-10-08T10:41:18Z</time>
      </trkpt>
      <trkpt lat="41.21705" lon="9.55176">
        <ele>2.54</ele>
        <time>2017-10-08T10:41:29Z</time>
      </trkpt>
      <trkpt lat="41.21706" lon="9.55175">
        <ele>2.06</ele>
        <time>2017-10-08T10:41:34Z</time>
      </trkpt>
      <trkpt lat="41.217" lon="9.55179">
        <ele>3.02</ele>
        <time>2017-10-08T10:41:40Z</time>
      </trkpt>
      <trkpt lat="41.21679" lon="9.55189">
        <ele>3.5</ele>
        <time>2017-10-08T10:41:51Z</time>
      </trkpt>
      <trkpt lat="41.21671" lon="9.55186">
        <ele>3.98</ele>
        <time>2017-10-08T10:41:55Z</time>
      </trkpt>
      <trkpt lat="41.21664" lon="9.55178">
        <ele>3.02</ele>
        <time>2017-10-08T10:42:01Z</time>
      </trkpt>
      <trkpt lat="41.2166" lon="9.55173">
        <ele>2.54</ele>
        <time>2017-10-08T10:42:05Z</time>
      </trkpt>
      <trkpt lat="41.21637" lon="9.5516">
        <ele>1.1</ele>
        <time>2017-10-08T10:42:19Z</time>
      </trkpt>
      <trkpt lat="41.21617" lon="9.55141">
        <ele>1.58</ele>
        <time>2017-10-08T10:42:31Z</time>
      </trkpt>
      <trkpt lat="41.21611" lon="9.55135">
        <ele>2.06</ele>
        <time>2017-10-08T10:42:36Z</time>
      </trkpt>
      <trkpt lat="41.21604" lon="9.55131">
        <ele>2.06</ele>
        <time>2017-10-08T10:42:41Z</time>
      </trkpt>
      <trkpt lat="41.21591" lon="9.55129">
        <ele>2.54</ele>
        <time>2017-10-08T10:42:47Z</time>
      </trkpt>
      <trkpt lat="41.21585" lon="9.55125">
        <ele>3.02</ele>
        <time>2017-10-08T10:42:51Z</time>
      </trkpt>
      <trkpt lat="41.21562" lon="9.55113">
        <ele>3.5</ele>
        <time>2017-10-08T10:43:03Z</time>
      </trkpt>
      <trkpt lat="41.2156" lon="9.55113">
        <ele>3.98</ele>
        <time>2017-10-08T10:43:04Z</time>
      </trkpt>
      <trkpt lat="41.21546" lon="9.55103">
        <ele>3.98</ele>
        <time>2017-10-08T10:43:11Z</time>
      </trkpt>
      <trkpt lat="41.21523" lon="9.55093">
        <ele>2.54</ele>
        <time>2017-10-08T10:43:21Z</time>
      </trkpt>
      <trkpt lat="41.21515" lon="9.55091">
        <ele>3.02</ele>
        <time>2017-10-08T10:43:24Z</time>
      </trkpt>
      <trkpt lat="41.21479" lon="9.55068">
        <ele>3.98</ele>
        <time>2017-10-08T10:43:37Z</time>
      </trkpt>
      <trkpt lat="41.21451" lon="9.55052">
        <ele>3.98</ele>
        <time>2017-10-08T10:43:47Z</time>
      </trkpt>
      <trkpt lat="41.21416" lon="9.55031">
        <ele>5.42</ele>
        <time>2017-10-08T10:44:00Z</time>
      </trkpt>
      <trkpt lat="41.21389" lon="9.55009">
        <ele>5.42</ele>
        <time>2017-10-08T10:44:10Z</time>
      </trkpt>
      <trkpt lat="41.21362" lon="9.54988">
        <ele>4.46</ele>
        <time>2017-10-08T10:44:20Z</time>
      </trkpt>
      <trkpt lat="41.21331" lon="9.54968">
        <ele>4.94</ele>
        <time>2017-10-08T10:44:31Z</time>
      </trkpt>
      <trkpt lat="41.21314" lon="9.54958">
        <ele>4.94</ele>
        <time>2017-10-08T10:44:37Z</time>
      </trkpt>
      <trkpt lat="41.21303" lon="9.54948">
        <ele>4.46</ele>
        <time>2017-10-08T10:44:41Z</time>
      </trkpt>
      <trkpt lat="41.21294" lon="9.5494">
        <ele>4.46</ele>
        <time>2017-10-08T10:44:44Z</time>
      </trkpt>
      <trkpt lat="41.21259" lon="9.54915">
        <ele>4.46</ele>
        <time>2017-10-08T10:44:56Z</time>
      </trkpt>
      <trkpt lat="41.2123" lon="9.54892">
        <ele>4.46</ele>
        <time>2017-10-08T10:45:06Z</time>
      </trkpt>
      <trkpt lat="41.212" lon="9.54863">
        <ele>4.46</ele>
        <time>2017-10-08T10:45:17Z</time>
      </trkpt>
      <trkpt lat="41.21171" lon="9.54838">
        <ele>4.46</ele>
        <time>2017-10-08T10:45:28Z</time>
      </trkpt>
      <trkpt lat="41.21146" lon="9.54817">
        <ele>4.46</ele>
        <time>2017-10-08T10:45:38Z</time>
      </trkpt>
      <trkpt lat="41.21135" lon="9.54811">
        <ele>4.46</ele>
        <time>2017-10-08T10:45:42Z</time>
      </trkpt>
      <trkpt lat="41.21114" lon="9.54802">
        <ele>4.46</ele>
        <time>2017-10-08T10:45:50Z</time>
      </trkpt>
      <trkpt lat="41.21093" lon="9.5479">
        <ele>3.98</ele>
        <time>2017-10-08T10:45:59Z</time>
      </trkpt>
      <trkpt lat="41.21082" lon="9.54782">
        <ele>3.5</ele>
        <time>2017-10-08T10:46:04Z</time>
      </trkpt>
      <trkpt lat="41.2107" lon="9.5478">
        <ele>3.98</ele>
        <time>2017-10-08T10:46:09Z</time>
      </trkpt>
      <trkpt lat="41.2106" lon="9.54779">
        <ele>3.98</ele>
        <time>2017-10-08T10:46:13Z</time>
      </trkpt>
      <trkpt lat="41.21034" lon="9.5477">
        <ele>4.46</ele>
        <time>2017-10-08T10:46:23Z</time>
      </trkpt>
      <trkpt lat="41.2101" lon="9.54758">
        <ele>4.46</ele>
        <time>2017-10-08T10:46:33Z</time>
      </trkpt>
      <trkpt lat="41.20984" lon="9.54746">
        <ele>4.94</ele>
        <time>2017-10-08T10:46:44Z</time>
      </trkpt>
      <trkpt lat="41.20956" lon="9.54726">
        <ele>4.94</ele>
        <time>2017-10-08T10:46:55Z</time>
      </trkpt>
      <trkpt lat="41.20934" lon="9.54703">
        <ele>3.98</ele>
        <time>2017-10-08T10:47:05Z</time>
      </trkpt>
      <trkpt lat="41.2092" lon="9.54689">
        <ele>3.98</ele>
        <time>2017-10-08T10:47:11Z</time>
      </trkpt>
      <trkpt lat="41.20909" lon="9.54679">
        <ele>3.02</ele>
        <time>2017-10-08T10:47:16Z</time>
      </trkpt>
      <trkpt lat="41.20882" lon="9.54655">
        <ele>3.5</ele>
        <time>2017-10-08T10:47:28Z</time>
      </trkpt>
      <trkpt lat="41.20856" lon="9.54635">
        <ele>3.5</ele>
        <time>2017-10-08T10:47:39Z</time>
      </trkpt>
      <trkpt lat="41.20833" lon="9.54623">
        <ele>3.98</ele>
        <time>2017-10-08T10:47:49Z</time>
      </trkpt>
      <trkpt lat="41.208" lon="9.5461">
        <ele>3.02</ele>
        <time>2017-10-08T10:48:01Z</time>
      </trkpt>
      <trkpt lat="41.20777" lon="9.54599">
        <ele>3.02</ele>
        <time>2017-10-08T10:48:10Z</time>
      </trkpt>
      <trkpt lat="41.20767" lon="9.54595">
        <ele>3.98</ele>
        <time>2017-10-08T10:48:14Z</time>
      </trkpt>
      <trkpt lat="41.20754" lon="9.54588">
        <ele>4.46</ele>
        <time>2017-10-08T10:48:19Z</time>
      </trkpt>
      <trkpt lat="41.20726" lon="9.54574">
        <ele>4.46</ele>
        <time>2017-10-08T10:48:29Z</time>
      </trkpt>
      <trkpt lat="41.20703" lon="9.5456">
        <ele>3.98</ele>
        <time>2017-10-08T10:48:38Z</time>
      </trkpt>
      <trkpt lat="41.20677" lon="9.54548">
        <ele>4.94</ele>
        <time>2017-10-08T10:48:48Z</time>
      </trkpt>
      <trkpt lat="41.20673" lon="9.54544">
        <ele>4.46</ele>
        <time>2017-10-08T10:48:50Z</time>
      </trkpt>
      <trkpt lat="41.20647" lon="9.54528">
        <ele>3.5</ele>
        <time>2017-10-08T10:49:00Z</time>
      </trkpt>
      <trkpt lat="41.20643" lon="9.54524">
        <ele>3.5</ele>
        <time>2017-10-08T10:49:02Z</time>
      </trkpt>
      <trkpt lat="41.20633" lon="9.54517">
        <ele>3.02</ele>
        <time>2017-10-08T10:49:06Z</time>
      </trkpt>
      <trkpt lat="41.20601" lon="9.54498">
        <ele>3.5</ele>
        <time>2017-10-08T10:49:18Z</time>
      </trkpt>
      <trkpt lat="41.20577" lon="9.54481">
        <ele>3.5</ele>
        <time>2017-10-08T10:49:27Z</time>
      </trkpt>
      <trkpt lat="41.20544" lon="9.54455">
        <ele>4.46</ele>
        <time>2017-10-08T10:49:39Z</time>
      </trkpt>
      <trkpt lat="41.20519" lon="9.54438">
        <ele>3.98</ele>
        <time>2017-10-08T10:49:48Z</time>
      </trkpt>
      <trkpt lat="41.20503" lon="9.54426">
        <ele>3.98</ele>
        <time>2017-10-08T10:49:54Z</time>
      </trkpt>
      <trkpt lat="41.20489" lon="9.54412">
        <ele>3.5</ele>
        <time>2017-10-08T10:50:00Z</time>
      </trkpt>
      <trkpt lat="41.2047" lon="9.54391">
        <ele>3.5</ele>
        <time>2017-10-08T10:50:09Z</time>
      </trkpt>
      <trkpt lat="41.2046" lon="9.54381">
        <ele>3.5</ele>
        <time>2017-10-08T10:50:14Z</time>
      </trkpt>
      <trkpt lat="41.20438" lon="9.54362">
        <ele>3.98</ele>
        <time>2017-10-08T10:50:24Z</time>
      </trkpt>
      <trkpt lat="41.20412" lon="9.54338">
        <ele>3.5</ele>
        <time>2017-10-08T10:50:35Z</time>
      </trkpt>
      <trkpt lat="41.20391" lon="9.54316">
        <ele>3.5</ele>
        <time>2017-10-08T10:50:45Z</time>
      </trkpt>
      <trkpt lat="41.2037" lon="9.54294">
        <ele>3.02</ele>
        <time>2017-10-08T10:50:55Z</time>
      </trkpt>
      <trkpt lat="41.20356" lon="9.54282">
        <ele>2.54</ele>
        <time>2017-10-08T10:51:01Z</time>
      </trkpt>
      <trkpt lat="41.20334" lon="9.54264">
        <ele>3.02</ele>
        <time>2017-10-08T10:51:10Z</time>
      </trkpt>
      <trkpt lat="41.2032" lon="9.54254">
        <ele>3.5</ele>
        <time>2017-10-08T10:51:15Z</time>
      </trkpt>
      <trkpt lat="41.20288" lon="9.54229">
        <ele>3.5</ele>
        <time>2017-10-08T10:51:27Z</time>
      </trkpt>
      <trkpt lat="41.20262" lon="9.54209">
        <ele>2.54</ele>
        <time>2017-10-08T10:51:37Z</time>
      </trkpt>
      <trkpt lat="41.2024" lon="9.54191">
        <ele>2.54</ele>
        <time>2017-10-08T10:51:46Z</time>
      </trkpt>
      <trkpt lat="41.2021" lon="9.54163">
        <ele>2.54</ele>
        <time>2017-10-08T10:51:58Z</time>
      </trkpt>
      <trkpt lat="41.20182" lon="9.54142">
        <ele>2.06</ele>
        <time>2017-10-08T10:52:09Z</time>
      </trkpt>
      <trkpt lat="41.20156" lon="9.54118">
        <ele>2.54</ele>
        <time>2017-10-08T10:52:20Z</time>
      </trkpt>
      <trkpt lat="41.2012" lon="9.5409">
        <ele>3.02</ele>
        <time>2017-10-08T10:52:35Z</time>
      </trkpt>
      <trkpt lat="41.2009" lon="9.54065">
        <ele>2.54</ele>
        <time>2017-10-08T10:52:49Z</time>
      </trkpt>
      <trkpt lat="41.20062" lon="9.54039">
        <ele>1.58</ele>
        <time>2017-10-08T10:53:02Z</time>
      </trkpt>
      <trkpt lat="41.20037" lon="9.54014">
        <ele>2.06</ele>
        <time>2017-10-08T10:53:14Z</time>
      </trkpt>
      <trkpt lat="41.20027" lon="9.54006">
        <ele>2.06</ele>
        <time>2017-10-08T10:53:19Z</time>
      </trkpt>
      <trkpt lat="41.20007" lon="9.53992">
        <ele>2.06</ele>
        <time>2017-10-08T10:53:30Z</time>
      </trkpt>
      <trkpt lat="41.1998" lon="9.53978">
        <ele>-0.34</ele>
        <time>2017-10-08T10:53:42Z</time>
      </trkpt>
      <trkpt lat="41.1996" lon="9.53959">
        <ele>1.1</ele>
        <time>2017-10-08T10:53:53Z</time>
      </trkpt>
      <trkpt lat="41.19951" lon="9.53951">
        <ele>1.1</ele>
        <time>2017-10-08T10:53:58Z</time>
      </trkpt>
      <trkpt lat="41.19938" lon="9.53945">
        <ele>1.58</ele>
        <time>2017-10-08T10:54:05Z</time>
      </trkpt>
      <trkpt lat="41.19913" lon="9.53936">
        <ele>1.58</ele>
        <time>2017-10-08T10:54:17Z</time>
      </trkpt>
      <trkpt lat="41.19894" lon="9.53927">
        <ele>-0.34</ele>
        <time>2017-10-08T10:54:26Z</time>
      </trkpt>
      <trkpt lat="41.19886" lon="9.53921">
        <ele>0.14</ele>
        <time>2017-10-08T10:54:30Z</time>
      </trkpt>
      <trkpt lat="41.19866" lon="9.53901">
        <ele>1.58</ele>
        <time>2017-10-08T10:54:41Z</time>
      </trkpt>
      <trkpt lat="41.19864" lon="9.539">
        <ele>1.58</ele>
        <time>2017-10-08T10:54:42Z</time>
      </trkpt>
      <trkpt lat="41.19833" lon="9.53877">
        <ele>2.54</ele>
        <time>2017-10-08T10:54:57Z</time>
      </trkpt>
      <trkpt lat="41.19812" lon="9.53855">
        <ele>2.54</ele>
        <time>2017-10-08T10:55:08Z</time>
      </trkpt>
      <trkpt lat="41.19791" lon="9.53834">
        <ele>2.54</ele>
        <time>2017-10-08T10:55:18Z</time>
      </trkpt>
      <trkpt lat="41.19768" lon="9.53811">
        <ele>2.54</ele>
        <time>2017-10-08T10:55:30Z</time>
      </trkpt>
      <trkpt lat="41.19764" lon="9.53808">
        <ele>3.5</ele>
        <time>2017-10-08T10:55:32Z</time>
      </trkpt>
      <trkpt lat="41.19752" lon="9.53795">
        <ele>3.98</ele>
        <time>2017-10-08T10:55:38Z</time>
      </trkpt>
      <trkpt lat="41.19744" lon="9.53787">
        <ele>3.98</ele>
        <time>2017-10-08T10:55:42Z</time>
      </trkpt>
      <trkpt lat="41.19733" lon="9.53773">
        <ele>3.98</ele>
        <time>2017-10-08T10:55:48Z</time>
      </trkpt>
      <trkpt lat="41.19717" lon="9.53752">
        <ele>3.98</ele>
        <time>2017-10-08T10:55:57Z</time>
      </trkpt>
      <trkpt lat="41.197" lon="9.53732">
        <ele>3.5</ele>
        <time>2017-10-08T10:56:06Z</time>
      </trkpt>
      <trkpt lat="41.19688" lon="9.53716">
        <ele>3.98</ele>
        <time>2017-10-08T10:56:13Z</time>
      </trkpt>
      <trkpt lat="41.19669" lon="9.53696">
        <ele>3.5</ele>
        <time>2017-10-08T10:56:23Z</time>
      </trkpt>
      <trkpt lat="41.19664" lon="9.53689">
        <ele>3.5</ele>
        <time>2017-10-08T10:56:26Z</time>
      </trkpt>
      <trkpt lat="41.19647" lon="9.53668">
        <ele>2.54</ele>
        <time>2017-10-08T10:56:37Z</time>
      </trkpt>
      <trkpt lat="41.19629" lon="9.53653">
        <ele>2.06</ele>
        <time>2017-10-08T10:56:47Z</time>
      </trkpt>
      <trkpt lat="41.19608" lon="9.5363">
        <ele>2.06</ele>
        <time>2017-10-08T10:56:58Z</time>
      </trkpt>
      <trkpt lat="41.19591" lon="9.53611">
        <ele>2.54</ele>
        <time>2017-10-08T10:57:08Z</time>
      </trkpt>
      <trkpt lat="41.19574" lon="9.53592">
        <ele>3.02</ele>
        <time>2017-10-08T10:57:20Z</time>
      </trkpt>
      <trkpt lat="41.1956" lon="9.53583">
        <ele>2.54</ele>
        <time>2017-10-08T10:57:28Z</time>
      </trkpt>
      <trkpt lat="41.19536" lon="9.53567">
        <ele>3.98</ele>
        <time>2017-10-08T10:57:41Z</time>
      </trkpt>
      <trkpt lat="41.19525" lon="9.53555">
        <ele>4.46</ele>
        <time>2017-10-08T10:57:49Z</time>
      </trkpt>
      <trkpt lat="41.19512" lon="9.53544">
        <ele>4.46</ele>
        <time>2017-10-08T10:57:57Z</time>
      </trkpt>
      <trkpt lat="41.1949" lon="9.5353">
        <ele>5.42</ele>
        <time>2017-10-08T10:58:09Z</time>
      </trkpt>
      <trkpt lat="41.19488" lon="9.53529">
        <ele>5.42</ele>
        <time>2017-10-08T10:58:10Z</time>
      </trkpt>
      <trkpt lat="41.19479" lon="9.53523">
        <ele>4.94</ele>
        <time>2017-10-08T10:58:15Z</time>
      </trkpt>
      <trkpt lat="41.19451" lon="9.53502">
        <ele>3.98</ele>
        <time>2017-10-08T10:58:30Z</time>
      </trkpt>
      <trkpt lat="41.19433" lon="9.53483">
        <ele>3.98</ele>
        <time>2017-10-08T10:58:42Z</time>
      </trkpt>
      <trkpt lat="41.19417" lon="9.5347">
        <ele>3.5</ele>
        <time>2017-10-08T10:58:53Z</time>
      </trkpt>
      <trkpt lat="41.19408" lon="9.53465">
        <ele>3.98</ele>
        <time>2017-10-08T10:58:58Z</time>
      </trkpt>
      <trkpt lat="41.19394" lon="9.53457">
        <ele>3.98</ele>
        <time>2017-10-08T10:59:06Z</time>
      </trkpt>
      <trkpt lat="41.19363" lon="9.53424">
        <ele>3.98</ele>
        <time>2017-10-08T10:59:24Z</time>
      </trkpt>
      <trkpt lat="41.19359" lon="9.53417">
        <ele>3.5</ele>
        <time>2017-10-08T10:59:27Z</time>
      </trkpt>
      <trkpt lat="41.1934" lon="9.53403">
        <ele>3.98</ele>
        <time>2017-10-08T10:59:38Z</time>
      </trkpt>
      <trkpt lat="41.19321" lon="9.53386">
        <ele>2.54</ele>
        <time>2017-10-08T10:59:48Z</time>
      </trkpt>
      <trkpt lat="41.19306" lon="9.53368">
        <ele>3.02</ele>
        <time>2017-10-08T10:59:57Z</time>
      </trkpt>
      <trkpt lat="41.193" lon="9.53362">
        <ele>3.02</ele>
        <time>2017-10-08T11:00:01Z</time>
      </trkpt>
      <trkpt lat="41.19293" lon="9.53356">
        <ele>3.02</ele>
        <time>2017-10-08T11:00:06Z</time>
      </trkpt>
      <trkpt lat="41.19273" lon="9.53346">
        <ele>3.5</ele>
        <time>2017-10-08T11:00:18Z</time>
      </trkpt>
      <trkpt lat="41.1927" lon="9.53343">
        <ele>3.5</ele>
        <time>2017-10-08T11:00:20Z</time>
      </trkpt>
      <trkpt lat="41.19261" lon="9.53334">
        <ele>3.02</ele>
        <time>2017-10-08T11:00:28Z</time>
      </trkpt>
      <trkpt lat="41.19241" lon="9.53326">
        <ele>1.58</ele>
        <time>2017-10-08T11:00:41Z</time>
      </trkpt>
      <trkpt lat="41.19239" lon="9.53325">
        <ele>2.06</ele>
        <time>2017-10-08T11:00:42Z</time>
      </trkpt>
      <trkpt lat="41.19226" lon="9.53314">
        <ele>1.58</ele>
        <time>2017-10-08T11:00:50Z</time>
      </trkpt>
      <trkpt lat="41.19219" lon="9.53308">
        <ele>2.06</ele>
        <time>2017-10-08T11:00:54Z</time>
      </trkpt>
      <trkpt lat="41.19203" lon="9.53297">
        <ele>1.58</ele>
        <time>2017-10-08T11:01:03Z</time>
      </trkpt>
      <trkpt lat="41.19177" lon="9.53277">
        <ele>3.02</ele>
        <time>2017-10-08T11:01:16Z</time>
      </trkpt>
      <trkpt lat="41.19154" lon="9.53259">
        <ele>2.54</ele>
        <time>2017-10-08T11:01:27Z</time>
      </trkpt>
      <trkpt lat="41.19135" lon="9.5324">
        <ele>2.54</ele>
        <time>2017-10-08T11:01:37Z</time>
      </trkpt>
      <trkpt lat="41.19115" lon="9.53218">
        <ele>2.54</ele>
        <time>2017-10-08T11:01:49Z</time>
      </trkpt>
      <trkpt lat="41.19095" lon="9.53203">
        <ele>3.02</ele>
        <time>2017-10-08T11:01:59Z</time>
      </trkpt>
      <trkpt lat="41.19083" lon="9.53194">
        <ele>3.02</ele>
        <time>2017-10-08T11:02:05Z</time>
      </trkpt>
      <trkpt lat="41.19053" lon="9.53166">
        <ele>3.5</ele>
        <time>2017-10-08T11:02:19Z</time>
      </trkpt>
      <trkpt lat="41.19027" lon="9.53141">
        <ele>3.02</ele>
        <time>2017-10-08T11:02:31Z</time>
      </trkpt>
      <trkpt lat="41.19001" lon="9.53116">
        <ele>3.02</ele>
        <time>2017-10-08T11:02:43Z</time>
      </trkpt>
      <trkpt lat="41.1898" lon="9.53097">
        <ele>2.54</ele>
        <time>2017-10-08T11:02:53Z</time>
      </trkpt>
      <trkpt lat="41.18959" lon="9.53076">
        <ele>3.02</ele>
        <time>2017-10-08T11:03:03Z</time>
      </trkpt>
      <trkpt lat="41.18948" lon="9.53064">
        <ele>2.54</ele>
        <time>2017-10-08T11:03:09Z</time>
      </trkpt>
      <trkpt lat="41.18928" lon="9.5305">
        <ele>2.54</ele>
        <time>2017-10-08T11:03:18Z</time>
      </trkpt>
      <trkpt lat="41.18903" lon="9.53026">
        <ele>2.06</ele>
        <time>2017-10-08T11:03:29Z</time>
      </trkpt>
      <trkpt lat="41.1888" lon="9.53002">
        <ele>3.5</ele>
        <time>2017-10-08T11:03:40Z</time>
      </trkpt>
      <trkpt lat="41.18857" lon="9.52975">
        <ele>3.02</ele>
        <time>2017-10-08T11:03:51Z</time>
      </trkpt>
      <trkpt lat="41.18847" lon="9.52963">
        <ele>3.5</ele>
        <time>2017-10-08T11:03:56Z</time>
      </trkpt>
      <trkpt lat="41.18834" lon="9.5295">
        <ele>3.02</ele>
        <time>2017-10-08T11:04:02Z</time>
      </trkpt>
      <trkpt lat="41.18812" lon="9.52927">
        <ele>3.98</ele>
        <time>2017-10-08T11:04:12Z</time>
      </trkpt>
      <trkpt lat="41.1879" lon="9.52898">
        <ele>3.02</ele>
        <time>2017-10-08T11:04:23Z</time>
      </trkpt>
      <trkpt lat="41.18782" lon="9.52886">
        <ele>3.5</ele>
        <time>2017-10-08T11:04:28Z</time>
      </trkpt>
      <trkpt lat="41.18759" lon="9.52868">
        <ele>2.06</ele>
        <time>2017-10-08T11:04:39Z</time>
      </trkpt>
      <trkpt lat="41.18732" lon="9.52843">
        <ele>2.06</ele>
        <time>2017-10-08T11:04:51Z</time>
      </trkpt>
      <trkpt lat="41.1871" lon="9.52816">
        <ele>2.54</ele>
        <time>2017-10-08T11:05:01Z</time>
      </trkpt>
      <trkpt lat="41.18684" lon="9.52786">
        <ele>2.06</ele>
        <time>2017-10-08T11:05:13Z</time>
      </trkpt>
      <trkpt lat="41.18658" lon="9.52757">
        <ele>1.58</ele>
        <time>2017-10-08T11:05:25Z</time>
      </trkpt>
      <trkpt lat="41.18629" lon="9.52722">
        <ele>2.54</ele>
        <time>2017-10-08T11:05:38Z</time>
      </trkpt>
      <trkpt lat="41.18602" lon="9.52691">
        <ele>3.98</ele>
        <time>2017-10-08T11:05:50Z</time>
      </trkpt>
      <trkpt lat="41.18576" lon="9.52659">
        <ele>3.02</ele>
        <time>2017-10-08T11:06:02Z</time>
      </trkpt>
      <trkpt lat="41.18555" lon="9.52632">
        <ele>2.06</ele>
        <time>2017-10-08T11:06:13Z</time>
      </trkpt>
      <trkpt lat="41.18543" lon="9.52623">
        <ele>2.54</ele>
        <time>2017-10-08T11:06:18Z</time>
      </trkpt>
      <trkpt lat="41.18512" lon="9.52592">
        <ele>3.5</ele>
        <time>2017-10-08T11:06:32Z</time>
      </trkpt>
      <trkpt lat="41.18507" lon="9.52587">
        <ele>3.5</ele>
        <time>2017-10-08T11:06:34Z</time>
      </trkpt>
      <trkpt lat="41.18479" lon="9.52554">
        <ele>4.46</ele>
        <time>2017-10-08T11:06:47Z</time>
      </trkpt>
      <trkpt lat="41.18453" lon="9.52524">
        <ele>4.46</ele>
        <time>2017-10-08T11:06:59Z</time>
      </trkpt>
      <trkpt lat="41.18447" lon="9.52517">
        <ele>4.46</ele>
        <time>2017-10-08T11:07:02Z</time>
      </trkpt>
      <trkpt lat="41.18436" lon="9.52507">
        <ele>4.46</ele>
        <time>2017-10-08T11:07:07Z</time>
      </trkpt>
      <trkpt lat="41.18409" lon="9.52485">
        <ele>4.46</ele>
        <time>2017-10-08T11:07:19Z</time>
      </trkpt>
      <trkpt lat="41.18387" lon="9.52468">
        <ele>4.94</ele>
        <time>2017-10-08T11:07:29Z</time>
      </trkpt>
      <trkpt lat="41.18366" lon="9.52452">
        <ele>5.42</ele>
        <time>2017-10-08T11:07:38Z</time>
      </trkpt>
      <trkpt lat="41.18343" lon="9.52434">
        <ele>5.42</ele>
        <time>2017-10-08T11:07:48Z</time>
      </trkpt>
      <trkpt lat="41.18341" lon="9.52432">
        <ele>4.94</ele>
        <time>2017-10-08T11:07:49Z</time>
      </trkpt>
      <trkpt lat="41.18314" lon="9.52407">
        <ele>4.94</ele>
        <time>2017-10-08T11:08:01Z</time>
      </trkpt>
      <trkpt lat="41.18287" lon="9.52384">
        <ele>4.46</ele>
        <time>2017-10-08T11:08:13Z</time>
      </trkpt>
      <trkpt lat="41.18259" lon="9.5236">
        <ele>4.46</ele>
        <time>2017-10-08T11:08:26Z</time>
      </trkpt>
      <trkpt lat="41.18233" lon="9.52337">
        <ele>3.98</ele>
        <time>2017-10-08T11:08:38Z</time>
      </trkpt>
      <trkpt lat="41.18231" lon="9.52335">
        <ele>3.5</ele>
        <time>2017-10-08T11:08:39Z</time>
      </trkpt>
      <trkpt lat="41.18213" lon="9.52324">
        <ele>2.54</ele>
        <time>2017-10-08T11:08:48Z</time>
      </trkpt>
      <trkpt lat="41.18184" lon="9.52304">
        <ele>2.54</ele>
        <time>2017-10-08T11:09:01Z</time>
      </trkpt>
      <trkpt lat="41.18159" lon="9.52282">
        <ele>3.02</ele>
        <time>2017-10-08T11:09:13Z</time>
      </trkpt>
      <trkpt lat="41.18136" lon="9.52264">
        <ele>2.54</ele>
        <time>2017-10-08T11:09:24Z</time>
      </trkpt>
      <trkpt lat="41.18109" lon="9.52243">
        <ele>3.02</ele>
        <time>2017-10-08T11:09:36Z</time>
      </trkpt>
      <trkpt lat="41.18087" lon="9.52224">
        <ele>2.06</ele>
        <time>2017-10-08T11:09:47Z</time>
      </trkpt>
      <trkpt lat="41.18063" lon="9.52204">
        <ele>0.62</ele>
        <time>2017-10-08T11:09:58Z</time>
      </trkpt>
      <trkpt lat="41.18045" lon="9.52188">
        <ele>-0.82</ele>
        <time>2017-10-08T11:10:06Z</time>
      </trkpt>
      <trkpt lat="41.18042" lon="9.52186">
        <ele>-1.3</ele>
        <time>2017-10-08T11:10:07Z</time>
      </trkpt>
      <trkpt lat="41.18018" lon="9.52165">
        <ele>-3.71</ele>
        <time>2017-10-08T11:10:17Z</time>
      </trkpt>
      <trkpt lat="41.1799" lon="9.52137">
        <ele>-3.23</ele>
        <time>2017-10-08T11:10:28Z</time>
      </trkpt>
      <trkpt lat="41.17967" lon="9.52117">
        <ele>-2.27</ele>
        <time>2017-10-08T11:10:37Z</time>
      </trkpt>
      <trkpt lat="41.17945" lon="9.52097">
        <ele>-2.75</ele>
        <time>2017-10-08T11:10:46Z</time>
      </trkpt>
      <trkpt lat="41.17924" lon="9.52081">
        <ele>-3.71</ele>
        <time>2017-10-08T11:10:54Z</time>
      </trkpt>
      <trkpt lat="41.17903" lon="9.52059">
        <ele>-5.15</ele>
        <time>2017-10-08T11:11:03Z</time>
      </trkpt>
      <trkpt lat="41.1788" lon="9.52036">
        <ele>-2.75</ele>
        <time>2017-10-08T11:11:13Z</time>
      </trkpt>
      <trkpt lat="41.17857" lon="9.52014">
        <ele>-1.79</ele>
        <time>2017-10-08T11:11:23Z</time>
      </trkpt>
      <trkpt lat="41.17832" lon="9.51991">
        <ele>-1.3</ele>
        <time>2017-10-08T11:11:33Z</time>
      </trkpt>
      <trkpt lat="41.17819" lon="9.51977">
        <ele>-1.79</ele>
        <time>2017-10-08T11:11:39Z</time>
      </trkpt>
      <trkpt lat="41.1779" lon="9.51947">
        <ele>-3.71</ele>
        <time>2017-10-08T11:11:52Z</time>
      </trkpt>
      <trkpt lat="41.17754" lon="9.51912">
        <ele>-2.27</ele>
        <time>2017-10-08T11:12:07Z</time>
      </trkpt>
      <trkpt lat="41.17724" lon="9.51881">
        <ele>-1.79</ele>
        <time>2017-10-08T11:12:20Z</time>
      </trkpt>
      <trkpt lat="41.17695" lon="9.51854">
        <ele>-2.27</ele>
        <time>2017-10-08T11:12:35Z</time>
      </trkpt>
      <trkpt lat="41.17672" lon="9.51834">
        <ele>-2.27</ele>
        <time>2017-10-08T11:12:46Z</time>
      </trkpt>
      <trkpt lat="41.1764" lon="9.51805">
        <ele>-1.79</ele>
        <time>2017-10-08T11:12:59Z</time>
      </trkpt>
      <trkpt lat="41.17614" lon="9.51779">
        <ele>-1.79</ele>
        <time>2017-10-08T11:13:11Z</time>
      </trkpt>
      <trkpt lat="41.17583" lon="9.51748">
        <ele>0.14</ele>
        <time>2017-10-08T11:13:24Z</time>
      </trkpt>
      <trkpt lat="41.17559" lon="9.51724">
        <ele>-1.3</ele>
        <time>2017-10-08T11:13:35Z</time>
      </trkpt>
      <trkpt lat="41.17546" lon="9.51711">
        <ele>-1.79</ele>
        <time>2017-10-08T11:13:41Z</time>
      </trkpt>
      <trkpt lat="41.17516" lon="9.51683">
        <ele>-0.82</ele>
        <time>2017-10-08T11:13:55Z</time>
      </trkpt>
      <trkpt lat="41.1748" lon="9.51654">
        <ele>-0.82</ele>
        <time>2017-10-08T11:14:11Z</time>
      </trkpt>
      <trkpt lat="41.17453" lon="9.51637">
        <ele>-1.3</ele>
        <time>2017-10-08T11:14:23Z</time>
      </trkpt>
      <trkpt lat="41.17426" lon="9.51618">
        <ele>-0.82</ele>
        <time>2017-10-08T11:14:34Z</time>
      </trkpt>
      <trkpt lat="41.174" lon="9.51596">
        <ele>-0.34</ele>
        <time>2017-10-08T11:14:45Z</time>
      </trkpt>
      <trkpt lat="41.17372" lon="9.51575">
        <ele>-2.27</ele>
        <time>2017-10-08T11:14:56Z</time>
      </trkpt>
      <trkpt lat="41.17343" lon="9.51548">
        <ele>-1.3</ele>
        <time>2017-10-08T11:15:08Z</time>
      </trkpt>
      <trkpt lat="41.17313" lon="9.51522">
        <ele>-0.82</ele>
        <time>2017-10-08T11:15:21Z</time>
      </trkpt>
      <trkpt lat="41.17286" lon="9.51501">
        <ele>-0.34</ele>
        <time>2017-10-08T11:15:33Z</time>
      </trkpt>
      <trkpt lat="41.17268" lon="9.51481">
        <ele>0.14</ele>
        <time>2017-10-08T11:15:43Z</time>
      </trkpt>
      <trkpt lat="41.17239" lon="9.51459">
        <ele>-0.82</ele>
        <time>2017-10-08T11:15:57Z</time>
      </trkpt>
      <trkpt lat="41.17211" lon="9.51437">
        <ele>-1.3</ele>
        <time>2017-10-08T11:16:09Z</time>
      </trkpt>
      <trkpt lat="41.17174" lon="9.51409">
        <ele>-1.79</ele>
        <time>2017-10-08T11:16:24Z</time>
      </trkpt>
      <trkpt lat="41.17143" lon="9.51383">
        <ele>-0.34</ele>
        <time>2017-10-08T11:16:37Z</time>
      </trkpt>
      <trkpt lat="41.17104" lon="9.51351">
        <ele>0.14</ele>
        <time>2017-10-08T11:16:53Z</time>
      </trkpt>
      <trkpt lat="41.17074" lon="9.5133">
        <ele>-0.82</ele>
        <time>2017-10-08T11:17:05Z</time>
      </trkpt>
      <trkpt lat="41.17036" lon="9.51301">
        <ele>-0.34</ele>
        <time>2017-10-08T11:17:21Z</time>
      </trkpt>
      <trkpt lat="41.16997" lon="9.51277">
        <ele>0.14</ele>
        <time>2017-10-08T11:17:37Z</time>
      </trkpt>
      <trkpt lat="41.16968" lon="9.5126">
        <ele>-0.34</ele>
        <time>2017-10-08T11:17:48Z</time>
      </trkpt>
      <trkpt lat="41.16924" lon="9.51233">
        <ele>-0.34</ele>
        <time>2017-10-08T11:18:03Z</time>
      </trkpt>
      <trkpt lat="41.16884" lon="9.51201">
        <ele>1.1</ele>
        <time>2017-10-08T11:18:17Z</time>
      </trkpt>
      <trkpt lat="41.16853" lon="9.51175">
        <ele>1.1</ele>
        <time>2017-10-08T11:18:30Z</time>
      </trkpt>
      <trkpt lat="41.16818" lon="9.51151">
        <ele>1.1</ele>
        <time>2017-10-08T11:18:45Z</time>
      </trkpt>
      <trkpt lat="41.16794" lon="9.51134">
        <ele>1.1</ele>
        <time>2017-10-08T11:18:55Z</time>
      </trkpt>
      <trkpt lat="41.1676" lon="9.51108">
        <ele>0.14</ele>
        <time>2017-10-08T11:19:09Z</time>
      </trkpt>
      <trkpt lat="41.16728" lon="9.51085">
        <ele>-1.3</ele>
        <time>2017-10-08T11:19:22Z</time>
      </trkpt>
      <trkpt lat="41.16697" lon="9.5106">
        <ele>-2.27</ele>
        <time>2017-10-08T11:19:35Z</time>
      </trkpt>
      <trkpt lat="41.16669" lon="9.51035">
        <ele>-2.75</ele>
        <time>2017-10-08T11:19:47Z</time>
      </trkpt>
      <trkpt lat="41.16633" lon="9.51008">
        <ele>-0.34</ele>
        <time>2017-10-08T11:20:02Z</time>
      </trkpt>
      <trkpt lat="41.16598" lon="9.50983">
        <ele>-0.34</ele>
        <time>2017-10-08T11:20:16Z</time>
      </trkpt>
      <trkpt lat="41.16582" lon="9.50969">
        <ele>0.62</ele>
        <time>2017-10-08T11:20:25Z</time>
      </trkpt>
      <trkpt lat="41.16573" lon="9.50963">
        <ele>0.62</ele>
        <time>2017-10-08T11:20:31Z</time>
      </trkpt>
      <trkpt lat="41.16549" lon="9.50946">
        <ele>1.58</ele>
        <time>2017-10-08T11:20:45Z</time>
      </trkpt>
      <trkpt lat="41.16529" lon="9.50926">
        <ele>1.58</ele>
        <time>2017-10-08T11:20:58Z</time>
      </trkpt>
      <trkpt lat="41.16503" lon="9.50907">
        <ele>0.62</ele>
        <time>2017-10-08T11:21:12Z</time>
      </trkpt>
      <trkpt lat="41.1648" lon="9.50893">
        <ele>-0.34</ele>
        <time>2017-10-08T11:21:22Z</time>
      </trkpt>
      <trkpt lat="41.16442" lon="9.50864">
        <ele>-0.82</ele>
        <time>2017-10-08T11:21:37Z</time>
      </trkpt>
      <trkpt lat="41.16408" lon="9.50838">
        <ele>-0.34</ele>
        <time>2017-10-08T11:21:50Z</time>
      </trkpt>
      <trkpt lat="41.16379" lon="9.50813">
        <ele>-1.3</ele>
        <time>2017-10-08T11:22:02Z</time>
      </trkpt>
      <trkpt lat="41.16344" lon="9.50783">
        <ele>-0.82</ele>
        <time>2017-10-08T11:22:15Z</time>
      </trkpt>
      <trkpt lat="41.16312" lon="9.50756">
        <ele>0.14</ele>
        <time>2017-10-08T11:22:27Z</time>
      </trkpt>
      <trkpt lat="41.16278" lon="9.50722">
        <ele>0.62</ele>
        <time>2017-10-08T11:22:40Z</time>
      </trkpt>
      <trkpt lat="41.16251" lon="9.50695">
        <ele>0.62</ele>
        <time>2017-10-08T11:22:51Z</time>
      </trkpt>
      <trkpt lat="41.16226" lon="9.50663">
        <ele>-0.34</ele>
        <time>2017-10-08T11:23:04Z</time>
      </trkpt>
      <trkpt lat="41.16202" lon="9.50631">
        <ele>0.62</ele>
        <time>2017-10-08T11:23:19Z</time>
      </trkpt>
      <trkpt lat="41.16183" lon="9.50608">
        <ele>0.14</ele>
        <time>2017-10-08T11:23:30Z</time>
      </trkpt>
      <trkpt lat="41.16168" lon="9.50589">
        <ele>0.14</ele>
        <time>2017-10-08T11:23:44Z</time>
      </trkpt>
      <trkpt lat="41.16144" lon="9.50565">
        <ele>-0.34</ele>
        <time>2017-10-08T11:23:58Z</time>
      </trkpt>
      <trkpt lat="41.16121" lon="9.50535">
        <ele>-1.3</ele>
        <time>2017-10-08T11:24:10Z</time>
      </trkpt>
      <trkpt lat="41.16096" lon="9.50511">
        <ele>-1.79</ele>
        <time>2017-10-08T11:24:21Z</time>
      </trkpt>
      <trkpt lat="41.16072" lon="9.50489">
        <ele>-0.34</ele>
        <time>2017-10-08T11:24:32Z</time>
      </trkpt>
      <trkpt lat="41.16044" lon="9.50466">
        <ele>-1.79</ele>
        <time>2017-10-08T11:24:44Z</time>
      </trkpt>
      <trkpt lat="41.1602" lon="9.50443">
        <ele>-0.34</ele>
        <time>2017-10-08T11:24:56Z</time>
      </trkpt>
      <trkpt lat="41.15994" lon="9.5042">
        <ele>0.62</ele>
        <time>2017-10-08T11:25:09Z</time>
      </trkpt>
      <trkpt lat="41.15968" lon="9.504">
        <ele>1.58</ele>
        <time>2017-10-08T11:25:22Z</time>
      </trkpt>
      <trkpt lat="41.15942" lon="9.50376">
        <ele>1.58</ele>
        <time>2017-10-08T11:25:35Z</time>
      </trkpt>
      <trkpt lat="41.15913" lon="9.50353">
        <ele>2.06</ele>
        <time>2017-10-08T11:25:49Z</time>
      </trkpt>
      <trkpt lat="41.15883" lon="9.50326">
        <ele>2.06</ele>
        <time>2017-10-08T11:26:02Z</time>
      </trkpt>
      <trkpt lat="41.15857" lon="9.50304">
        <ele>1.1</ele>
        <time>2017-10-08T11:26:13Z</time>
      </trkpt>
      <trkpt lat="41.15829" lon="9.50279">
        <ele>1.58</ele>
        <time>2017-10-08T11:26:25Z</time>
      </trkpt>
      <trkpt lat="41.15804" lon="9.50253">
        <ele>3.5</ele>
        <time>2017-10-08T11:26:37Z</time>
      </trkpt>
      <trkpt lat="41.15774" lon="9.50221">
        <ele>3.5</ele>
        <time>2017-10-08T11:26:51Z</time>
      </trkpt>
      <trkpt lat="41.15751" lon="9.502">
        <ele>3.02</ele>
        <time>2017-10-08T11:27:02Z</time>
      </trkpt>
      <trkpt lat="41.15726" lon="9.50177">
        <ele>2.54</ele>
        <time>2017-10-08T11:27:15Z</time>
      </trkpt>
      <trkpt lat="41.15696" lon="9.50155">
        <ele>0.14</ele>
        <time>2017-10-08T11:27:30Z</time>
      </trkpt>
      <trkpt lat="41.15669" lon="9.50134">
        <ele>-1.3</ele>
        <time>2017-10-08T11:27:44Z</time>
      </trkpt>
      <trkpt lat="41.15644" lon="9.50115">
        <ele>-1.79</ele>
        <time>2017-10-08T11:27:56Z</time>
      </trkpt>
      <trkpt lat="41.15618" lon="9.50094">
        <ele>-0.34</ele>
        <time>2017-10-08T11:28:07Z</time>
      </trkpt>
      <trkpt lat="41.15618" lon="9.5009">
        <ele>-0.34</ele>
        <time>2017-10-08T11:28:09Z</time>
      </trkpt>
      <trkpt lat="41.15625" lon="9.50087">
        <ele>0.14</ele>
        <time>2017-10-08T11:28:15Z</time>
      </trkpt>
      <trkpt lat="41.15652" lon="9.50096">
        <ele>0.14</ele>
        <time>2017-10-08T11:28:29Z</time>
      </trkpt>
      <trkpt lat="41.1568" lon="9.50099">
        <ele>-0.34</ele>
        <time>2017-10-08T11:28:42Z</time>
      </trkpt>
      <trkpt lat="41.15704" lon="9.5011">
        <ele>-0.34</ele>
        <time>2017-10-08T11:28:53Z</time>
      </trkpt>
      <trkpt lat="41.15706" lon="9.50112">
        <ele>-0.34</ele>
        <time>2017-10-08T11:28:54Z</time>
      </trkpt>
      <trkpt lat="41.15726" lon="9.5013">
        <ele>-0.34</ele>
        <time>2017-10-08T11:29:03Z</time>
      </trkpt>
      <trkpt lat="41.15728" lon="9.50131">
        <ele>-0.34</ele>
        <time>2017-10-08T11:29:04Z</time>
      </trkpt>
      <trkpt lat="41.15741" lon="9.50132">
        <ele>-0.34</ele>
        <time>2017-10-08T11:29:09Z</time>
      </trkpt>
      <trkpt lat="41.15769" lon="9.50141">
        <ele>-1.3</ele>
        <time>2017-10-08T11:29:21Z</time>
      </trkpt>
      <trkpt lat="41.15799" lon="9.50144">
        <ele>-1.79</ele>
        <time>2017-10-08T11:29:33Z</time>
      </trkpt>
      <trkpt lat="41.15816" lon="9.5014">
        <ele>-2.75</ele>
        <time>2017-10-08T11:29:40Z</time>
      </trkpt>
      <trkpt lat="41.15846" lon="9.50133">
        <ele>-2.27</ele>
        <time>2017-10-08T11:29:53Z</time>
      </trkpt>
      <trkpt lat="41.15877" lon="9.50122">
        <ele>-0.82</ele>
        <time>2017-10-08T11:30:06Z</time>
      </trkpt>
      <trkpt lat="41.15916" lon="9.50109">
        <ele>-0.34</ele>
        <time>2017-10-08T11:30:20Z</time>
      </trkpt>
      <trkpt lat="41.15956" lon="9.50091">
        <ele>-0.82</ele>
        <time>2017-10-08T11:30:34Z</time>
      </trkpt>
      <trkpt lat="41.15995" lon="9.50062">
        <ele>0.14</ele>
        <time>2017-10-08T11:30:48Z</time>
      </trkpt>
      <trkpt lat="41.16022" lon="9.50041">
        <ele>-0.34</ele>
        <time>2017-10-08T11:30:59Z</time>
      </trkpt>
      <trkpt lat="41.16051" lon="9.50014">
        <ele>0.14</ele>
        <time>2017-10-08T11:31:13Z</time>
      </trkpt>
      <trkpt lat="41.16085" lon="9.4999">
        <ele>0.62</ele>
        <time>2017-10-08T11:31:28Z</time>
      </trkpt>
      <trkpt lat="41.16119" lon="9.49966">
        <ele>1.1</ele>
        <time>2017-10-08T11:31:41Z</time>
      </trkpt>
      <trkpt lat="41.16155" lon="9.49945">
        <ele>2.06</ele>
        <time>2017-10-08T11:31:54Z</time>
      </trkpt>
      <trkpt lat="41.16191" lon="9.49925">
        <ele>1.1</ele>
        <time>2017-10-08T11:32:06Z</time>
      </trkpt>
      <trkpt lat="41.16226" lon="9.49907">
        <ele>0.62</ele>
        <time>2017-10-08T11:32:18Z</time>
      </trkpt>
      <trkpt lat="41.16257" lon="9.49888">
        <ele>-1.79</ele>
        <time>2017-10-08T11:32:29Z</time>
      </trkpt>
      <trkpt lat="41.16301" lon="9.49862">
        <ele>-3.23</ele>
        <time>2017-10-08T11:32:45Z</time>
      </trkpt>
      <trkpt lat="41.16338" lon="9.49838">
        <ele>-2.27</ele>
        <time>2017-10-08T11:32:59Z</time>
      </trkpt>
      <trkpt lat="41.16369" lon="9.49817">
        <ele>-2.27</ele>
        <time>2017-10-08T11:33:13Z</time>
      </trkpt>
      <trkpt lat="41.164" lon="9.49803">
        <ele>-2.27</ele>
        <time>2017-10-08T11:33:26Z</time>
      </trkpt>
      <trkpt lat="41.16433" lon="9.49789">
        <ele>-1.3</ele>
        <time>2017-10-08T11:33:40Z</time>
      </trkpt>
      <trkpt lat="41.16471" lon="9.49774">
        <ele>-0.82</ele>
        <time>2017-10-08T11:33:54Z</time>
      </trkpt>
      <trkpt lat="41.16508" lon="9.4976">
        <ele>-0.34</ele>
        <time>2017-10-08T11:34:07Z</time>
      </trkpt>
      <trkpt lat="41.1654" lon="9.49746">
        <ele>-1.79</ele>
        <time>2017-10-08T11:34:19Z</time>
      </trkpt>
      <trkpt lat="41.16573" lon="9.49731">
        <ele>-0.34</ele>
        <time>2017-10-08T11:34:33Z</time>
      </trkpt>
      <trkpt lat="41.16607" lon="9.49715">
        <ele>-0.34</ele>
        <time>2017-10-08T11:34:48Z</time>
      </trkpt>
      <trkpt lat="41.16644" lon="9.49697">
        <ele>0.62</ele>
        <time>2017-10-08T11:35:04Z</time>
      </trkpt>
      <trkpt lat="41.16677" lon="9.4968">
        <ele>1.58</ele>
        <time>2017-10-08T11:35:18Z</time>
      </trkpt>
      <trkpt lat="41.16718" lon="9.49655">
        <ele>1.58</ele>
        <time>2017-10-08T11:35:35Z</time>
      </trkpt>
      <trkpt lat="41.16751" lon="9.49634">
        <ele>-0.34</ele>
        <time>2017-10-08T11:35:48Z</time>
      </trkpt>
      <trkpt lat="41.1679" lon="9.49613">
        <ele>-2.27</ele>
        <time>2017-10-08T11:36:02Z</time>
      </trkpt>
      <trkpt lat="41.16826" lon="9.49587">
        <ele>-2.75</ele>
        <time>2017-10-08T11:36:16Z</time>
      </trkpt>
      <trkpt lat="41.16859" lon="9.49567">
        <ele>-3.71</ele>
        <time>2017-10-08T11:36:28Z</time>
      </trkpt>
      <trkpt lat="41.16891" lon="9.49547">
        <ele>-2.27</ele>
        <time>2017-10-08T11:36:39Z</time>
      </trkpt>
      <trkpt lat="41.16926" lon="9.4952">
        <ele>-1.79</ele>
        <time>2017-10-08T11:36:52Z</time>
      </trkpt>
      <trkpt lat="41.16952" lon="9.49502">
        <ele>-0.82</ele>
        <time>2017-10-08T11:37:02Z</time>
      </trkpt>
      <trkpt lat="41.16989" lon="9.49475">
        <ele>-0.34</ele>
        <time>2017-10-08T11:37:16Z</time>
      </trkpt>
      <trkpt lat="41.17034" lon="9.49443">
        <ele>-0.82</ele>
        <time>2017-10-08T11:37:32Z</time>
      </trkpt>
      <trkpt lat="41.17068" lon="9.4942">
        <ele>-0.34</ele>
        <time>2017-10-08T11:37:44Z</time>
      </trkpt>
      <trkpt lat="41.17103" lon="9.49396">
        <ele>-1.3</ele>
        <time>2017-10-08T11:37:57Z</time>
      </trkpt>
      <trkpt lat="41.17136" lon="9.49371">
        <ele>-0.34</ele>
        <time>2017-10-08T11:38:09Z</time>
      </trkpt>
      <trkpt lat="41.17167" lon="9.49346">
        <ele>0.62</ele>
        <time>2017-10-08T11:38:21Z</time>
      </trkpt>
      <trkpt lat="41.17202" lon="9.49321">
        <ele>0.62</ele>
        <time>2017-10-08T11:38:34Z</time>
      </trkpt>
      <trkpt lat="41.17237" lon="9.49308">
        <ele>0.14</ele>
        <time>2017-10-08T11:38:45Z</time>
      </trkpt>
      <trkpt lat="41.17272" lon="9.49299">
        <ele>-0.82</ele>
        <time>2017-10-08T11:38:56Z</time>
      </trkpt>
      <trkpt lat="41.17306" lon="9.49294">
        <ele>0.14</ele>
        <time>2017-10-08T11:39:07Z</time>
      </trkpt>
      <trkpt lat="41.1734" lon="9.49287">
        <ele>1.1</ele>
        <time>2017-10-08T11:39:18Z</time>
      </trkpt>
      <trkpt lat="41.17381" lon="9.4928">
        <ele>1.1</ele>
        <time>2017-10-08T11:39:32Z</time>
      </trkpt>
      <trkpt lat="41.17429" lon="9.49272">
        <ele>0.62</ele>
        <time>2017-10-08T11:39:47Z</time>
      </trkpt>
      <trkpt lat="41.17473" lon="9.49264">
        <ele>0.62</ele>
        <time>2017-10-08T11:40:00Z</time>
      </trkpt>
      <trkpt lat="41.17522" lon="9.49254">
        <ele>0.62</ele>
        <time>2017-10-08T11:40:15Z</time>
      </trkpt>
      <trkpt lat="41.17565" lon="9.49243">
        <ele>1.1</ele>
        <time>2017-10-08T11:40:28Z</time>
      </trkpt>
      <trkpt lat="41.17601" lon="9.4923">
        <ele>0.62</ele>
        <time>2017-10-08T11:40:40Z</time>
      </trkpt>
      <trkpt lat="41.17602" lon="9.49224">
        <ele>0.14</ele>
        <time>2017-10-08T11:40:43Z</time>
      </trkpt>
      <trkpt lat="41.17601" lon="9.49216">
        <ele>0.14</ele>
        <time>2017-10-08T11:40:51Z</time>
      </trkpt>
      <trkpt lat="41.17607" lon="9.49214">
        <ele>0.14</ele>
        <time>2017-10-08T11:40:56Z</time>
      </trkpt>
      <trkpt lat="41.17638" lon="9.49216">
        <ele>-0.82</ele>
        <time>2017-10-08T11:41:10Z</time>
      </trkpt>
      <trkpt lat="41.17674" lon="9.49215">
        <ele>-0.34</ele>
        <time>2017-10-08T11:41:22Z</time>
      </trkpt>
      <trkpt lat="41.17716" lon="9.49204">
        <ele>0.14</ele>
        <time>2017-10-08T11:41:36Z</time>
      </trkpt>
      <trkpt lat="41.17748" lon="9.49193">
        <ele>0.62</ele>
        <time>2017-10-08T11:41:46Z</time>
      </trkpt>
      <trkpt lat="41.17797" lon="9.49194">
        <ele>1.1</ele>
        <time>2017-10-08T11:42:01Z</time>
      </trkpt>
      <trkpt lat="41.17831" lon="9.49188">
        <ele>0.62</ele>
        <time>2017-10-08T11:42:12Z</time>
      </trkpt>
      <trkpt lat="41.17865" lon="9.49186">
        <ele>0.62</ele>
        <time>2017-10-08T11:42:23Z</time>
      </trkpt>
      <trkpt lat="41.17902" lon="9.49182">
        <ele>0.62</ele>
        <time>2017-10-08T11:42:34Z</time>
      </trkpt>
      <trkpt lat="41.17938" lon="9.49178">
        <ele>1.1</ele>
        <time>2017-10-08T11:42:45Z</time>
      </trkpt>
      <trkpt lat="41.17988" lon="9.4917">
        <ele>1.1</ele>
        <time>2017-10-08T11:43:00Z</time>
      </trkpt>
      <trkpt lat="41.18044" lon="9.49164">
        <ele>0.62</ele>
        <time>2017-10-08T11:43:16Z</time>
      </trkpt>
      <trkpt lat="41.18086" lon="9.49159">
        <ele>0.62</ele>
        <time>2017-10-08T11:43:28Z</time>
      </trkpt>
      <trkpt lat="41.18127" lon="9.4915">
        <ele>1.1</ele>
        <time>2017-10-08T11:43:40Z</time>
      </trkpt>
      <trkpt lat="41.18166" lon="9.49144">
        <ele>1.1</ele>
        <time>2017-10-08T11:43:52Z</time>
      </trkpt>
      <trkpt lat="41.18206" lon="9.49142">
        <ele>0.62</ele>
        <time>2017-10-08T11:44:04Z</time>
      </trkpt>
      <trkpt lat="41.18262" lon="9.49137">
        <ele>1.1</ele>
        <time>2017-10-08T11:44:21Z</time>
      </trkpt>
      <trkpt lat="41.18298" lon="9.4913">
        <ele>1.1</ele>
        <time>2017-10-08T11:44:33Z</time>
      </trkpt>
      <trkpt lat="41.18334" lon="9.49118">
        <ele>-0.82</ele>
        <time>2017-10-08T11:44:46Z</time>
      </trkpt>
      <trkpt lat="41.18386" lon="9.491">
        <ele>0.14</ele>
        <time>2017-10-08T11:45:02Z</time>
      </trkpt>
      <trkpt lat="41.18389" lon="9.491">
        <ele>0.14</ele>
        <time>2017-10-08T11:45:03Z</time>
      </trkpt>
      <trkpt lat="41.1843" lon="9.4909">
        <ele>0.14</ele>
        <time>2017-10-08T11:45:16Z</time>
      </trkpt>
      <trkpt lat="41.18477" lon="9.49083">
        <ele>0.62</ele>
        <time>2017-10-08T11:45:31Z</time>
      </trkpt>
      <trkpt lat="41.18521" lon="9.49073">
        <ele>1.1</ele>
        <time>2017-10-08T11:45:45Z</time>
      </trkpt>
      <trkpt lat="41.18555" lon="9.49063">
        <ele>1.58</ele>
        <time>2017-10-08T11:45:56Z</time>
      </trkpt>
      <trkpt lat="41.18607" lon="9.49044">
        <ele>0.62</ele>
        <time>2017-10-08T11:46:13Z</time>
      </trkpt>
      <trkpt lat="41.18645" lon="9.49035">
        <ele>1.1</ele>
        <time>2017-10-08T11:46:25Z</time>
      </trkpt>
      <trkpt lat="41.18688" lon="9.4902">
        <ele>2.54</ele>
        <time>2017-10-08T11:46:38Z</time>
      </trkpt>
      <trkpt lat="41.18741" lon="9.49002">
        <ele>2.54</ele>
        <time>2017-10-08T11:46:54Z</time>
      </trkpt>
      <trkpt lat="41.18793" lon="9.48986">
        <ele>-0.34</ele>
        <time>2017-10-08T11:47:09Z</time>
      </trkpt>
      <trkpt lat="41.1884" lon="9.48972">
        <ele>0.62</ele>
        <time>2017-10-08T11:47:22Z</time>
      </trkpt>
      <trkpt lat="41.18887" lon="9.48959">
        <ele>1.58</ele>
        <time>2017-10-08T11:47:35Z</time>
      </trkpt>
      <trkpt lat="41.18943" lon="9.48942">
        <ele>1.58</ele>
        <time>2017-10-08T11:47:51Z</time>
      </trkpt>
      <trkpt lat="41.19001" lon="9.48919">
        <ele>2.54</ele>
        <time>2017-10-08T11:48:08Z</time>
      </trkpt>
      <trkpt lat="41.19055" lon="9.489">
        <ele>2.06</ele>
        <time>2017-10-08T11:48:24Z</time>
      </trkpt>
      <trkpt lat="41.19094" lon="9.48885">
        <ele>2.06</ele>
        <time>2017-10-08T11:48:36Z</time>
      </trkpt>
      <trkpt lat="41.19142" lon="9.48866">
        <ele>3.02</ele>
        <time>2017-10-08T11:48:50Z</time>
      </trkpt>
      <trkpt lat="41.19193" lon="9.48845">
        <ele>1.58</ele>
        <time>2017-10-08T11:49:06Z</time>
      </trkpt>
      <trkpt lat="41.19249" lon="9.48823">
        <ele>1.58</ele>
        <time>2017-10-08T11:49:22Z</time>
      </trkpt>
      <trkpt lat="41.19299" lon="9.48804">
        <ele>2.06</ele>
        <time>2017-10-08T11:49:37Z</time>
      </trkpt>
      <trkpt lat="41.19352" lon="9.4878">
        <ele>3.5</ele>
        <time>2017-10-08T11:49:53Z</time>
      </trkpt>
      <trkpt lat="41.19405" lon="9.48758">
        <ele>2.06</ele>
        <time>2017-10-08T11:50:09Z</time>
      </trkpt>
      <trkpt lat="41.19454" lon="9.48737">
        <ele>1.1</ele>
        <time>2017-10-08T11:50:24Z</time>
      </trkpt>
      <trkpt lat="41.19504" lon="9.48705">
        <ele>0.62</ele>
        <time>2017-10-08T11:50:39Z</time>
      </trkpt>
      <trkpt lat="41.1954" lon="9.48684">
        <ele>0.14</ele>
        <time>2017-10-08T11:50:51Z</time>
      </trkpt>
      <trkpt lat="41.19577" lon="9.48659">
        <ele>1.1</ele>
        <time>2017-10-08T11:51:05Z</time>
      </trkpt>
      <trkpt lat="41.19611" lon="9.48643">
        <ele>1.1</ele>
        <time>2017-10-08T11:51:18Z</time>
      </trkpt>
      <trkpt lat="41.19655" lon="9.48629">
        <ele>1.58</ele>
        <time>2017-10-08T11:51:35Z</time>
      </trkpt>
      <trkpt lat="41.1969" lon="9.48618">
        <ele>0.14</ele>
        <time>2017-10-08T11:51:49Z</time>
      </trkpt>
      <trkpt lat="41.19718" lon="9.48608">
        <ele>-0.82</ele>
        <time>2017-10-08T11:52:03Z</time>
      </trkpt>
      <trkpt lat="41.19739" lon="9.48603">
        <ele>-1.3</ele>
        <time>2017-10-08T11:52:17Z</time>
      </trkpt>
      <trkpt lat="41.19754" lon="9.486">
        <ele>-0.34</ele>
        <time>2017-10-08T11:52:27Z</time>
      </trkpt>
      <trkpt lat="41.19775" lon="9.48594">
        <ele>-0.82</ele>
        <time>2017-10-08T11:52:39Z</time>
      </trkpt>
      <trkpt lat="41.19792" lon="9.48589">
        <ele>-0.34</ele>
        <time>2017-10-08T11:52:48Z</time>
      </trkpt>
      <trkpt lat="41.19801" lon="9.48587">
        <ele>-1.3</ele>
        <time>2017-10-08T11:52:52Z</time>
      </trkpt>
      <trkpt lat="41.19838" lon="9.48578">
        <ele>-2.27</ele>
        <time>2017-10-08T11:53:10Z</time>
      </trkpt>
      <trkpt lat="41.19866" lon="9.48575">
        <ele>-1.79</ele>
        <time>2017-10-08T11:53:23Z</time>
      </trkpt>
      <trkpt lat="41.19892" lon="9.48571">
        <ele>-1.79</ele>
        <time>2017-10-08T11:53:35Z</time>
      </trkpt>
      <trkpt lat="41.19922" lon="9.48562">
        <ele>-2.75</ele>
        <time>2017-10-08T11:53:50Z</time>
      </trkpt>
      <trkpt lat="41.19948" lon="9.48552">
        <ele>-4.67</ele>
        <time>2017-10-08T11:54:02Z</time>
      </trkpt>
      <trkpt lat="41.1999" lon="9.48536">
        <ele>-4.67</ele>
        <time>2017-10-08T11:54:24Z</time>
      </trkpt>
      <trkpt lat="41.20014" lon="9.48525">
        <ele>-4.19</ele>
        <time>2017-10-08T11:54:34Z</time>
      </trkpt>
      <trkpt lat="41.20039" lon="9.48511">
        <ele>-3.23</ele>
        <time>2017-10-08T11:54:47Z</time>
      </trkpt>
      <trkpt lat="41.20065" lon="9.48494">
        <ele>-0.34</ele>
        <time>2017-10-08T11:55:01Z</time>
      </trkpt>
      <trkpt lat="41.20091" lon="9.48474">
        <ele>0.14</ele>
        <time>2017-10-08T11:55:16Z</time>
      </trkpt>
      <trkpt lat="41.20103" lon="9.48465">
        <ele>0.62</ele>
        <time>2017-10-08T11:55:23Z</time>
      </trkpt>
      <trkpt lat="41.20127" lon="9.48445">
        <ele>1.58</ele>
        <time>2017-10-08T11:55:37Z</time>
      </trkpt>
      <trkpt lat="41.20154" lon="9.48431">
        <ele>2.54</ele>
        <time>2017-10-08T11:55:52Z</time>
      </trkpt>
      <trkpt lat="41.20182" lon="9.48416">
        <ele>5.42</ele>
        <time>2017-10-08T11:56:08Z</time>
      </trkpt>
      <trkpt lat="41.20199" lon="9.48403">
        <ele>4.94</ele>
        <time>2017-10-08T11:56:20Z</time>
      </trkpt>
      <trkpt lat="41.20218" lon="9.48386">
        <ele>3.02</ele>
        <time>2017-10-08T11:56:33Z</time>
      </trkpt>
      <trkpt lat="41.20239" lon="9.4837">
        <ele>1.58</ele>
        <time>2017-10-08T11:56:46Z</time>
      </trkpt>
      <trkpt lat="41.20258" lon="9.48357">
        <ele>2.06</ele>
        <time>2017-10-08T11:56:58Z</time>
      </trkpt>
      <trkpt lat="41.20279" lon="9.48337">
        <ele>2.54</ele>
        <time>2017-10-08T11:57:12Z</time>
      </trkpt>
      <trkpt lat="41.20298" lon="9.48318">
        <ele>2.54</ele>
        <time>2017-10-08T11:57:26Z</time>
      </trkpt>
      <trkpt lat="41.20316" lon="9.48299">
        <ele>2.54</ele>
        <time>2017-10-08T11:57:41Z</time>
      </trkpt>
      <trkpt lat="41.20335" lon="9.48279">
        <ele>0.62</ele>
        <time>2017-10-08T11:57:53Z</time>
      </trkpt>
      <trkpt lat="41.20362" lon="9.48255">
        <ele>-2.75</ele>
        <time>2017-10-08T11:58:10Z</time>
      </trkpt>
      <trkpt lat="41.20382" lon="9.4823">
        <ele>-0.82</ele>
        <time>2017-10-08T11:58:26Z</time>
      </trkpt>
      <trkpt lat="41.20399" lon="9.48208">
        <ele>-1.3</ele>
        <time>2017-10-08T11:58:39Z</time>
      </trkpt>
      <trkpt lat="41.20411" lon="9.48204">
        <ele>-0.82</ele>
        <time>2017-10-08T11:58:46Z</time>
      </trkpt>
      <trkpt lat="41.20411" lon="9.48226">
        <ele>-0.34</ele>
        <time>2017-10-08T11:58:55Z</time>
      </trkpt>
      <trkpt lat="41.20402" lon="9.48232">
        <ele>0.14</ele>
        <time>2017-10-08T11:59:02Z</time>
      </trkpt>
      <trkpt lat="41.2039" lon="9.4824">
        <ele>-0.34</ele>
        <time>2017-10-08T11:59:16Z</time>
      </trkpt>
      <trkpt lat="41.20385" lon="9.48243">
        <ele>-0.82</ele>
        <time>2017-10-08T11:59:24Z</time>
      </trkpt>
      <trkpt lat="41.20374" lon="9.48263">
        <ele>-0.82</ele>
        <time>2017-10-08T11:59:40Z</time>
      </trkpt>
      <trkpt lat="41.20384" lon="9.48278">
        <ele>-0.34</ele>
        <time>2017-10-08T11:59:52Z</time>
      </trkpt>
      <trkpt lat="41.20396" lon="9.48276">
        <ele>0.62</ele>
        <time>2017-10-08T12:00:05Z</time>
      </trkpt>
      <trkpt lat="41.20401" lon="9.48275">
        <ele>-0.34</ele>
        <time>2017-10-08T12:00:10Z</time>
      </trkpt>
      <trkpt lat="41.20418" lon="9.48281">
        <ele>-0.34</ele>
        <time>2017-10-08T12:00:29Z</time>
      </trkpt>
      <trkpt lat="41.20431" lon="9.48287">
        <ele>0.62</ele>
        <time>2017-10-08T12:00:44Z</time>
      </trkpt>
      <trkpt lat="41.20446" lon="9.48296">
        <ele>1.1</ele>
        <time>2017-10-08T12:01:00Z</time>
      </trkpt>
      <trkpt lat="41.20462" lon="9.48307">
        <ele>1.1</ele>
        <time>2017-10-08T12:01:19Z</time>
      </trkpt>
      <trkpt lat="41.20473" lon="9.48313">
        <ele>1.1</ele>
        <time>2017-10-08T12:01:31Z</time>
      </trkpt>
      <trkpt lat="41.20493" lon="9.48312">
        <ele>0.62</ele>
        <time>2017-10-08T12:01:48Z</time>
      </trkpt>
      <trkpt lat="41.20518" lon="9.48296">
        <ele>0.14</ele>
        <time>2017-10-08T12:02:08Z</time>
      </trkpt>
      <trkpt lat="41.20533" lon="9.48277">
        <ele>-0.34</ele>
        <time>2017-10-08T12:02:24Z</time>
      </trkpt>
      <trkpt lat="41.20549" lon="9.48249">
        <ele>-0.34</ele>
        <time>2017-10-08T12:02:43Z</time>
      </trkpt>
      <trkpt lat="41.20557" lon="9.48236">
        <ele>-1.3</ele>
        <time>2017-10-08T12:02:52Z</time>
      </trkpt>
      <trkpt lat="41.20581" lon="9.48221">
        <ele>-1.3</ele>
        <time>2017-10-08T12:03:10Z</time>
      </trkpt>
      <trkpt lat="41.20601" lon="9.48206">
        <ele>-0.82</ele>
        <time>2017-10-08T12:03:25Z</time>
      </trkpt>
      <trkpt lat="41.2061" lon="9.48195">
        <ele>-0.82</ele>
        <time>2017-10-08T12:03:33Z</time>
      </trkpt>
      <trkpt lat="41.20615" lon="9.48189">
        <ele>-0.82</ele>
        <time>2017-10-08T12:03:37Z</time>
      </trkpt>
      <trkpt lat="41.20633" lon="9.48161">
        <ele>-1.79</ele>
        <time>2017-10-08T12:03:56Z</time>
      </trkpt>
      <trkpt lat="41.20642" lon="9.48143">
        <ele>-1.3</ele>
        <time>2017-10-08T12:04:14Z</time>
      </trkpt>
      <trkpt lat="41.20646" lon="9.48125">
        <ele>-0.34</ele>
        <time>2017-10-08T12:04:32Z</time>
      </trkpt>
      <trkpt lat="41.2065" lon="9.48112">
        <ele>-0.82</ele>
        <time>2017-10-08T12:04:49Z</time>
      </trkpt>
      <trkpt lat="41.20654" lon="9.48103">
        <ele>-0.34</ele>
        <time>2017-10-08T12:04:59Z</time>
      </trkpt>
      <trkpt lat="41.20657" lon="9.48088">
        <ele>-0.34</ele>
        <time>2017-10-08T12:05:12Z</time>
      </trkpt>
      <trkpt lat="41.20656" lon="9.48081">
        <ele>-0.82</ele>
        <time>2017-10-08T12:05:16Z</time>
      </trkpt>
      <trkpt lat="41.20654" lon="9.48058">
        <ele>-0.34</ele>
        <time>2017-10-08T12:05:30Z</time>
      </trkpt>
      <trkpt lat="41.2065" lon="9.48029">
        <ele>0.14</ele>
        <time>2017-10-08T12:05:46Z</time>
      </trkpt>
      <trkpt lat="41.20647" lon="9.48012">
        <ele>0.14</ele>
        <time>2017-10-08T12:05:54Z</time>
      </trkpt>
      <trkpt lat="41.20646" lon="9.48006">
        <ele>-0.34</ele>
        <time>2017-10-08T12:05:58Z</time>
      </trkpt>
      <trkpt lat="41.20636" lon="9.47973">
        <ele>0.62</ele>
        <time>2017-10-08T12:06:17Z</time>
      </trkpt>
      <trkpt lat="41.20634" lon="9.47967">
        <ele>1.1</ele>
        <time>2017-10-08T12:06:20Z</time>
      </trkpt>
      <trkpt lat="41.20632" lon="9.47958">
        <ele>2.06</ele>
        <time>2017-10-08T12:06:25Z</time>
      </trkpt>
      <trkpt lat="41.20627" lon="9.47936">
        <ele>2.06</ele>
        <time>2017-10-08T12:06:37Z</time>
      </trkpt>
      <trkpt lat="41.20618" lon="9.47905">
        <ele>2.06</ele>
        <time>2017-10-08T12:06:53Z</time>
      </trkpt>
      <trkpt lat="41.20609" lon="9.47877">
        <ele>2.06</ele>
        <time>2017-10-08T12:07:08Z</time>
      </trkpt>
      <trkpt lat="41.20598" lon="9.47851">
        <ele>1.58</ele>
        <time>2017-10-08T12:07:22Z</time>
      </trkpt>
      <trkpt lat="41.20586" lon="9.47822">
        <ele>1.58</ele>
        <time>2017-10-08T12:07:37Z</time>
      </trkpt>
      <trkpt lat="41.20585" lon="9.47818">
        <ele>1.58</ele>
        <time>2017-10-08T12:07:39Z</time>
      </trkpt>
      <trkpt lat="41.20574" lon="9.4779">
        <ele>0.14</ele>
        <time>2017-10-08T12:07:57Z</time>
      </trkpt>
      <trkpt lat="41.20565" lon="9.47763">
        <ele>0.62</ele>
        <time>2017-10-08T12:08:14Z</time>
      </trkpt>
      <trkpt lat="41.20559" lon="9.47746">
        <ele>0.14</ele>
        <time>2017-10-08T12:08:24Z</time>
      </trkpt>
      <trkpt lat="41.20551" lon="9.47717">
        <ele>-0.34</ele>
        <time>2017-10-08T12:08:39Z</time>
      </trkpt>
      <trkpt lat="41.20539" lon="9.47694">
        <ele>1.58</ele>
        <time>2017-10-08T12:08:56Z</time>
      </trkpt>
      <trkpt lat="41.20529" lon="9.47679">
        <ele>0.14</ele>
        <time>2017-10-08T12:09:11Z</time>
      </trkpt>
      <trkpt lat="41.20525" lon="9.47669">
        <ele>0.14</ele>
        <time>2017-10-08T12:09:21Z</time>
      </trkpt>
      <trkpt lat="41.2052" lon="9.47655">
        <ele>1.58</ele>
        <time>2017-10-08T12:09:38Z</time>
      </trkpt>
      <trkpt lat="41.20517" lon="9.47642">
        <ele>0.62</ele>
        <time>2017-10-08T12:09:56Z</time>
      </trkpt>
      <trkpt lat="41.20514" lon="9.47632">
        <ele>0.62</ele>
        <time>2017-10-08T12:10:14Z</time>
      </trkpt>
      <trkpt lat="41.20511" lon="9.47633">
        <ele>0.62</ele>
        <time>2017-10-08T12:10:29Z</time>
      </trkpt>
      <trkpt lat="41.20509" lon="9.47635">
        <ele>0.62</ele>
        <time>2017-10-08T12:10:50Z</time>
      </trkpt>
      <trkpt lat="41.20511" lon="9.4764">
        <ele>1.1</ele>
        <time>2017-10-08T12:11:08Z</time>
      </trkpt>
      <trkpt lat="41.20514" lon="9.47641">
        <ele>1.58</ele>
        <time>2017-10-08T12:11:24Z</time>
      </trkpt>
      <trkpt lat="41.2052" lon="9.47642">
        <ele>2.06</ele>
        <time>2017-10-08T12:11:45Z</time>
      </trkpt>
      <trkpt lat="41.20521" lon="9.47644">
        <ele>2.54</ele>
        <time>2017-10-08T12:12:05Z</time>
      </trkpt>
      <trkpt lat="41.20521" lon="9.47644">
        <ele>2.06</ele>
        <time>2017-10-08T12:12:27Z</time>
      </trkpt>
      <trkpt lat="41.20521" lon="9.47645">
        <ele>2.06</ele>
        <time>2017-10-08T12:12:44Z</time>
      </trkpt>
      <trkpt lat="41.20519" lon="9.47647">
        <ele>1.58</ele>
        <time>2017-10-08T12:13:03Z</time>
      </trkpt>
      <trkpt lat="41.20517" lon="9.47648">
        <ele>2.06</ele>
        <time>2017-10-08T12:13:19Z</time>
      </trkpt>
      <trkpt lat="41.20516" lon="9.47649">
        <ele>1.58</ele>
        <time>2017-10-08T12:13:35Z</time>
      </trkpt>
      <trkpt lat="41.20515" lon="9.47649">
        <ele>1.58</ele>
        <time>2017-10-08T12:13:52Z</time>
      </trkpt>
      <trkpt lat="41.20514" lon="9.47649">
        <ele>1.58</ele>
        <time>2017-10-08T12:14:09Z</time>
      </trkpt>
      <trkpt lat="41.20513" lon="9.47651">
        <ele>2.06</ele>
        <time>2017-10-08T12:14:34Z</time>
      </trkpt>
      <trkpt lat="41.20513" lon="9.47651">
        <ele>2.06</ele>
        <time>2017-10-08T12:14:49Z</time>
      </trkpt>
      <trkpt lat="41.20514" lon="9.4765">
        <ele>2.06</ele>
        <time>2017-10-08T12:15:05Z</time>
      </trkpt>
      <trkpt lat="41.20514" lon="9.47649">
        <ele>2.06</ele>
        <time>2017-10-08T12:15:20Z</time>
      </trkpt>
      <trkpt lat="41.20514" lon="9.47649">
        <ele>2.06</ele>
        <time>2017-10-08T12:15:21Z</time>
      </trkpt>
      <trkpt lat="41.20516" lon="9.47656">
        <ele>0.62</ele>
        <time>2017-10-08T12:15:34Z</time>
      </trkpt>
      <trkpt lat="41.20516" lon="9.47658">
        <ele>0.14</ele>
        <time>2017-10-08T12:15:43Z</time>
      </trkpt>
      <trkpt lat="41.20599" lon="9.47887">
        <ele>1.58</ele>
        <time>2017-10-08T14:18:58Z</time>
      </trkpt>
      <trkpt lat="41.20611" lon="9.47931">
        <ele>0.62</ele>
        <time>2017-10-08T14:19:16Z</time>
      </trkpt>
      <trkpt lat="41.20621" lon="9.47962">
        <ele>-0.82</ele>
        <time>2017-10-08T14:19:29Z</time>
      </trkpt>
      <trkpt lat="41.20629" lon="9.48012">
        <ele>-0.82</ele>
        <time>2017-10-08T14:19:47Z</time>
      </trkpt>
      <trkpt lat="41.20632" lon="9.48072">
        <ele>0.14</ele>
        <time>2017-10-08T14:20:07Z</time>
      </trkpt>
      <trkpt lat="41.20642" lon="9.48137">
        <ele>-1.3</ele>
        <time>2017-10-08T14:20:29Z</time>
      </trkpt>
      <trkpt lat="41.20648" lon="9.4817">
        <ele>-1.79</ele>
        <time>2017-10-08T14:20:41Z</time>
      </trkpt>
      <trkpt lat="41.20661" lon="9.48234">
        <ele>-0.82</ele>
        <time>2017-10-08T14:21:03Z</time>
      </trkpt>
      <trkpt lat="41.20677" lon="9.48292">
        <ele>1.58</ele>
        <time>2017-10-08T14:21:22Z</time>
      </trkpt>
      <trkpt lat="41.20683" lon="9.48339">
        <ele>2.54</ele>
        <time>2017-10-08T14:21:36Z</time>
      </trkpt>
      <trkpt lat="41.20697" lon="9.48392">
        <ele>2.54</ele>
        <time>2017-10-08T14:21:53Z</time>
      </trkpt>
      <trkpt lat="41.20718" lon="9.48443">
        <ele>2.54</ele>
        <time>2017-10-08T14:22:12Z</time>
      </trkpt>
      <trkpt lat="41.20741" lon="9.48489">
        <ele>2.54</ele>
        <time>2017-10-08T14:22:31Z</time>
      </trkpt>
      <trkpt lat="41.20769" lon="9.48533">
        <ele>1.58</ele>
        <time>2017-10-08T14:22:50Z</time>
      </trkpt>
      <trkpt lat="41.20789" lon="9.48569">
        <ele>0.62</ele>
        <time>2017-10-08T14:23:05Z</time>
      </trkpt>
      <trkpt lat="41.20802" lon="9.48619">
        <ele>0.62</ele>
        <time>2017-10-08T14:23:21Z</time>
      </trkpt>
      <trkpt lat="41.20824" lon="9.48667">
        <ele>2.06</ele>
        <time>2017-10-08T14:23:39Z</time>
      </trkpt>
      <trkpt lat="41.20851" lon="9.48719">
        <ele>1.58</ele>
        <time>2017-10-08T14:23:58Z</time>
      </trkpt>
      <trkpt lat="41.20882" lon="9.48778">
        <ele>1.58</ele>
        <time>2017-10-08T14:24:20Z</time>
      </trkpt>
      <trkpt lat="41.2091" lon="9.48826">
        <ele>0.14</ele>
        <time>2017-10-08T14:24:40Z</time>
      </trkpt>
      <trkpt lat="41.20932" lon="9.48881">
        <ele>0.14</ele>
        <time>2017-10-08T14:25:01Z</time>
      </trkpt>
      <trkpt lat="41.20962" lon="9.48932">
        <ele>0.14</ele>
        <time>2017-10-08T14:25:22Z</time>
      </trkpt>
      <trkpt lat="41.20975" lon="9.48975">
        <ele>0.62</ele>
        <time>2017-10-08T14:25:38Z</time>
      </trkpt>
      <trkpt lat="41.20984" lon="9.49017">
        <ele>0.62</ele>
        <time>2017-10-08T14:25:53Z</time>
      </trkpt>
      <trkpt lat="41.20971" lon="9.49045">
        <ele>-0.82</ele>
        <time>2017-10-08T14:26:06Z</time>
      </trkpt>
      <trkpt lat="41.20954" lon="9.49044">
        <ele>-0.34</ele>
        <time>2017-10-08T14:26:21Z</time>
      </trkpt>
      <trkpt lat="41.20948" lon="9.49044">
        <ele>-0.34</ele>
        <time>2017-10-08T14:26:30Z</time>
      </trkpt>
      <trkpt lat="41.20941" lon="9.49043">
        <ele>0.14</ele>
        <time>2017-10-08T14:26:37Z</time>
      </trkpt>
      <trkpt lat="41.20926" lon="9.49023">
        <ele>1.1</ele>
        <time>2017-10-08T14:26:55Z</time>
      </trkpt>
      <trkpt lat="41.20917" lon="9.49003">
        <ele>1.1</ele>
        <time>2017-10-08T14:27:13Z</time>
      </trkpt>
      <trkpt lat="41.20903" lon="9.48985">
        <ele>0.62</ele>
        <time>2017-10-08T14:27:30Z</time>
      </trkpt>
      <trkpt lat="41.20894" lon="9.48964">
        <ele>-0.34</ele>
        <time>2017-10-08T14:27:45Z</time>
      </trkpt>
      <trkpt lat="41.2088" lon="9.48941">
        <ele>-2.27</ele>
        <time>2017-10-08T14:28:00Z</time>
      </trkpt>
      <trkpt lat="41.20858" lon="9.48931">
        <ele>-0.82</ele>
        <time>2017-10-08T14:28:13Z</time>
      </trkpt>
      <trkpt lat="41.20847" lon="9.48962">
        <ele>0.14</ele>
        <time>2017-10-08T14:28:25Z</time>
      </trkpt>
      <trkpt lat="41.20861" lon="9.48994">
        <ele>-0.34</ele>
        <time>2017-10-08T14:28:39Z</time>
      </trkpt>
      <trkpt lat="41.20878" lon="9.49025">
        <ele>-0.34</ele>
        <time>2017-10-08T14:28:54Z</time>
      </trkpt>
      <trkpt lat="41.20895" lon="9.49055">
        <ele>0.62</ele>
        <time>2017-10-08T14:29:09Z</time>
      </trkpt>
      <trkpt lat="41.20926" lon="9.49105">
        <ele>1.1</ele>
        <time>2017-10-08T14:29:32Z</time>
      </trkpt>
      <trkpt lat="41.20946" lon="9.49136">
        <ele>1.1</ele>
        <time>2017-10-08T14:29:45Z</time>
      </trkpt>
      <trkpt lat="41.20979" lon="9.49176">
        <ele>1.1</ele>
        <time>2017-10-08T14:30:01Z</time>
      </trkpt>
      <trkpt lat="41.21014" lon="9.49219">
        <ele>0.62</ele>
        <time>2017-10-08T14:30:18Z</time>
      </trkpt>
      <trkpt lat="41.2104" lon="9.49264">
        <ele>0.62</ele>
        <time>2017-10-08T14:30:32Z</time>
      </trkpt>
      <trkpt lat="41.21081" lon="9.49307">
        <ele>1.1</ele>
        <time>2017-10-08T14:30:48Z</time>
      </trkpt>
      <trkpt lat="41.211" lon="9.49332">
        <ele>1.1</ele>
        <time>2017-10-08T14:30:57Z</time>
      </trkpt>
      <trkpt lat="41.21129" lon="9.49371">
        <ele>2.54</ele>
        <time>2017-10-08T14:31:11Z</time>
      </trkpt>
      <trkpt lat="41.21166" lon="9.4941">
        <ele>1.58</ele>
        <time>2017-10-08T14:31:27Z</time>
      </trkpt>
      <trkpt lat="41.21205" lon="9.49444">
        <ele>2.06</ele>
        <time>2017-10-08T14:31:42Z</time>
      </trkpt>
      <trkpt lat="41.21262" lon="9.49492">
        <ele>2.06</ele>
        <time>2017-10-08T14:32:03Z</time>
      </trkpt>
      <trkpt lat="41.21314" lon="9.4953">
        <ele>3.02</ele>
        <time>2017-10-08T14:32:21Z</time>
      </trkpt>
      <trkpt lat="41.21366" lon="9.49568">
        <ele>3.5</ele>
        <time>2017-10-08T14:32:40Z</time>
      </trkpt>
      <trkpt lat="41.21404" lon="9.49581">
        <ele>3.02</ele>
        <time>2017-10-08T14:32:53Z</time>
      </trkpt>
      <trkpt lat="41.21451" lon="9.49597">
        <ele>3.02</ele>
        <time>2017-10-08T14:33:09Z</time>
      </trkpt>
      <trkpt lat="41.21489" lon="9.49609">
        <ele>2.06</ele>
        <time>2017-10-08T14:33:22Z</time>
      </trkpt>
      <trkpt lat="41.21493" lon="9.49609">
        <ele>2.06</ele>
        <time>2017-10-08T14:33:23Z</time>
      </trkpt>
      <trkpt lat="41.21502" lon="9.49585">
        <ele>2.54</ele>
        <time>2017-10-08T14:33:32Z</time>
      </trkpt>
      <trkpt lat="41.21509" lon="9.49583">
        <ele>3.02</ele>
        <time>2017-10-08T14:33:35Z</time>
      </trkpt>
      <trkpt lat="41.21553" lon="9.49578">
        <ele>2.54</ele>
        <time>2017-10-08T14:33:50Z</time>
      </trkpt>
      <trkpt lat="41.21612" lon="9.49583">
        <ele>2.54</ele>
        <time>2017-10-08T14:34:08Z</time>
      </trkpt>
      <trkpt lat="41.21662" lon="9.49594">
        <ele>1.58</ele>
        <time>2017-10-08T14:34:23Z</time>
      </trkpt>
      <trkpt lat="41.21722" lon="9.49599">
        <ele>1.1</ele>
        <time>2017-10-08T14:34:40Z</time>
      </trkpt>
      <trkpt lat="41.21769" lon="9.49606">
        <ele>0.62</ele>
        <time>2017-10-08T14:34:54Z</time>
      </trkpt>
      <trkpt lat="41.2182" lon="9.49605">
        <ele>1.1</ele>
        <time>2017-10-08T14:35:10Z</time>
      </trkpt>
      <trkpt lat="41.21872" lon="9.49604">
        <ele>-0.34</ele>
        <time>2017-10-08T14:35:25Z</time>
      </trkpt>
      <trkpt lat="41.21924" lon="9.49598">
        <ele>0.14</ele>
        <time>2017-10-08T14:35:40Z</time>
      </trkpt>
      <trkpt lat="41.21977" lon="9.49588">
        <ele>1.1</ele>
        <time>2017-10-08T14:35:55Z</time>
      </trkpt>
      <trkpt lat="41.22026" lon="9.49582">
        <ele>0.62</ele>
        <time>2017-10-08T14:36:10Z</time>
      </trkpt>
      <trkpt lat="41.2207" lon="9.49577">
        <ele>2.06</ele>
        <time>2017-10-08T14:36:26Z</time>
      </trkpt>
      <trkpt lat="41.22108" lon="9.49573">
        <ele>2.06</ele>
        <time>2017-10-08T14:36:43Z</time>
      </trkpt>
      <trkpt lat="41.22145" lon="9.49568">
        <ele>3.02</ele>
        <time>2017-10-08T14:36:57Z</time>
      </trkpt>
      <trkpt lat="41.2219" lon="9.49551">
        <ele>1.58</ele>
        <time>2017-10-08T14:37:12Z</time>
      </trkpt>
      <trkpt lat="41.22232" lon="9.49544">
        <ele>0.62</ele>
        <time>2017-10-08T14:37:27Z</time>
      </trkpt>
      <trkpt lat="41.22274" lon="9.49533">
        <ele>-1.3</ele>
        <time>2017-10-08T14:37:42Z</time>
      </trkpt>
      <trkpt lat="41.22315" lon="9.49523">
        <ele>0.62</ele>
        <time>2017-10-08T14:37:57Z</time>
      </trkpt>
      <trkpt lat="41.22351" lon="9.49528">
        <ele>-0.34</ele>
        <time>2017-10-08T14:38:12Z</time>
      </trkpt>
      <trkpt lat="41.22379" lon="9.49529">
        <ele>0.14</ele>
        <time>2017-10-08T14:38:25Z</time>
      </trkpt>
      <trkpt lat="41.22405" lon="9.49535">
        <ele>1.1</ele>
        <time>2017-10-08T14:38:40Z</time>
      </trkpt>
      <trkpt lat="41.22433" lon="9.49536">
        <ele>1.1</ele>
        <time>2017-10-08T14:38:58Z</time>
      </trkpt>
      <trkpt lat="41.22464" lon="9.49539">
        <ele>2.06</ele>
        <time>2017-10-08T14:39:12Z</time>
      </trkpt>
      <trkpt lat="41.22501" lon="9.49529">
        <ele>1.1</ele>
        <time>2017-10-08T14:39:24Z</time>
      </trkpt>
      <trkpt lat="41.22547" lon="9.4952">
        <ele>1.1</ele>
        <time>2017-10-08T14:39:40Z</time>
      </trkpt>
      <trkpt lat="41.22591" lon="9.49507">
        <ele>1.1</ele>
        <time>2017-10-08T14:39:57Z</time>
      </trkpt>
      <trkpt lat="41.22626" lon="9.49497">
        <ele>-1.3</ele>
        <time>2017-10-08T14:40:10Z</time>
      </trkpt>
      <trkpt lat="41.2267" lon="9.49479">
        <ele>0.62</ele>
        <time>2017-10-08T14:40:27Z</time>
      </trkpt>
      <trkpt lat="41.22716" lon="9.49458">
        <ele>0.62</ele>
        <time>2017-10-08T14:40:43Z</time>
      </trkpt>
      <trkpt lat="41.22754" lon="9.49434">
        <ele>1.1</ele>
        <time>2017-10-08T14:40:56Z</time>
      </trkpt>
      <trkpt lat="41.22795" lon="9.49411">
        <ele>2.54</ele>
        <time>2017-10-08T14:41:10Z</time>
      </trkpt>
      <trkpt lat="41.22834" lon="9.49393">
        <ele>3.98</ele>
        <time>2017-10-08T14:41:23Z</time>
      </trkpt>
      <trkpt lat="41.22881" lon="9.49364">
        <ele>1.1</ele>
        <time>2017-10-08T14:41:38Z</time>
      </trkpt>
      <trkpt lat="41.22919" lon="9.49341">
        <ele>1.58</ele>
        <time>2017-10-08T14:41:50Z</time>
      </trkpt>
      <trkpt lat="41.22969" lon="9.4932">
        <ele>1.1</ele>
        <time>2017-10-08T14:42:05Z</time>
      </trkpt>
      <trkpt lat="41.23006" lon="9.49303">
        <ele>2.06</ele>
        <time>2017-10-08T14:42:17Z</time>
      </trkpt>
      <trkpt lat="41.23038" lon="9.49279">
        <ele>2.06</ele>
        <time>2017-10-08T14:42:28Z</time>
      </trkpt>
      <trkpt lat="41.23082" lon="9.49253">
        <ele>2.06</ele>
        <time>2017-10-08T14:42:43Z</time>
      </trkpt>
      <trkpt lat="41.2312" lon="9.49237">
        <ele>1.58</ele>
        <time>2017-10-08T14:42:56Z</time>
      </trkpt>
      <trkpt lat="41.23158" lon="9.49216">
        <ele>2.06</ele>
        <time>2017-10-08T14:43:09Z</time>
      </trkpt>
      <trkpt lat="41.23198" lon="9.49187">
        <ele>2.54</ele>
        <time>2017-10-08T14:43:23Z</time>
      </trkpt>
      <trkpt lat="41.23239" lon="9.49157">
        <ele>2.06</ele>
        <time>2017-10-08T14:43:38Z</time>
      </trkpt>
      <trkpt lat="41.23269" lon="9.49137">
        <ele>2.06</ele>
        <time>2017-10-08T14:43:50Z</time>
      </trkpt>
      <trkpt lat="41.23303" lon="9.49124">
        <ele>1.58</ele>
        <time>2017-10-08T14:44:06Z</time>
      </trkpt>
      <trkpt lat="41.23331" lon="9.49114">
        <ele>1.1</ele>
        <time>2017-10-08T14:44:21Z</time>
      </trkpt>
      <trkpt lat="41.2336" lon="9.49099">
        <ele>2.06</ele>
        <time>2017-10-08T14:44:37Z</time>
      </trkpt>
      <trkpt lat="41.23384" lon="9.49089">
        <ele>1.58</ele>
        <time>2017-10-08T14:44:50Z</time>
      </trkpt>
      <trkpt lat="41.23416" lon="9.49071">
        <ele>1.58</ele>
        <time>2017-10-08T14:45:06Z</time>
      </trkpt>
      <trkpt lat="41.23458" lon="9.49054">
        <ele>2.06</ele>
        <time>2017-10-08T14:45:25Z</time>
      </trkpt>
      <trkpt lat="41.23496" lon="9.49045">
        <ele>1.58</ele>
        <time>2017-10-08T14:45:41Z</time>
      </trkpt>
      <trkpt lat="41.23535" lon="9.49036">
        <ele>2.06</ele>
        <time>2017-10-08T14:45:57Z</time>
      </trkpt>
      <trkpt lat="41.23565" lon="9.49028">
        <ele>1.58</ele>
        <time>2017-10-08T14:46:09Z</time>
      </trkpt>
      <trkpt lat="41.23596" lon="9.49021">
        <ele>2.06</ele>
        <time>2017-10-08T14:46:21Z</time>
      </trkpt>
      <trkpt lat="41.2363" lon="9.49012">
        <ele>1.58</ele>
        <time>2017-10-08T14:46:35Z</time>
      </trkpt>
      <trkpt lat="41.23655" lon="9.49003">
        <ele>2.06</ele>
        <time>2017-10-08T14:46:46Z</time>
      </trkpt>
      <trkpt lat="41.23691" lon="9.48994">
        <ele>2.06</ele>
        <time>2017-10-08T14:47:00Z</time>
      </trkpt>
      <trkpt lat="41.23727" lon="9.48983">
        <ele>1.58</ele>
        <time>2017-10-08T14:47:13Z</time>
      </trkpt>
      <trkpt lat="41.23765" lon="9.48971">
        <ele>1.58</ele>
        <time>2017-10-08T14:47:25Z</time>
      </trkpt>
      <trkpt lat="41.23805" lon="9.48957">
        <ele>2.06</ele>
        <time>2017-10-08T14:47:38Z</time>
      </trkpt>
      <trkpt lat="41.23843" lon="9.48936">
        <ele>2.54</ele>
        <time>2017-10-08T14:47:51Z</time>
      </trkpt>
      <trkpt lat="41.23882" lon="9.48916">
        <ele>2.06</ele>
        <time>2017-10-08T14:48:05Z</time>
      </trkpt>
      <trkpt lat="41.23915" lon="9.48909">
        <ele>3.5</ele>
        <time>2017-10-08T14:48:17Z</time>
      </trkpt>
      <trkpt lat="41.23944" lon="9.489">
        <ele>2.54</ele>
        <time>2017-10-08T14:48:26Z</time>
      </trkpt>
      <trkpt lat="41.23982" lon="9.48884">
        <ele>0.62</ele>
        <time>2017-10-08T14:48:39Z</time>
      </trkpt>
      <trkpt lat="41.24019" lon="9.48871">
        <ele>2.06</ele>
        <time>2017-10-08T14:48:52Z</time>
      </trkpt>
      <trkpt lat="41.24053" lon="9.48856">
        <ele>3.5</ele>
        <time>2017-10-08T14:49:04Z</time>
      </trkpt>
      <trkpt lat="41.24094" lon="9.48838">
        <ele>3.5</ele>
        <time>2017-10-08T14:49:19Z</time>
      </trkpt>
      <trkpt lat="41.24133" lon="9.48823">
        <ele>1.58</ele>
        <time>2017-10-08T14:49:35Z</time>
      </trkpt>
      <trkpt lat="41.2416" lon="9.48806">
        <ele>2.54</ele>
        <time>2017-10-08T14:49:48Z</time>
      </trkpt>
      <trkpt lat="41.242" lon="9.48786">
        <ele>2.06</ele>
        <time>2017-10-08T14:50:04Z</time>
      </trkpt>
      <trkpt lat="41.24229" lon="9.48773">
        <ele>1.58</ele>
        <time>2017-10-08T14:50:17Z</time>
      </trkpt>
      <trkpt lat="41.24254" lon="9.48765">
        <ele>3.5</ele>
        <time>2017-10-08T14:50:28Z</time>
      </trkpt>
      <trkpt lat="41.24282" lon="9.4875">
        <ele>4.46</ele>
        <time>2017-10-08T14:50:40Z</time>
      </trkpt>
      <trkpt lat="41.24316" lon="9.48728">
        <ele>2.06</ele>
        <time>2017-10-08T14:50:54Z</time>
      </trkpt>
      <trkpt lat="41.24345" lon="9.48704">
        <ele>0.14</ele>
        <time>2017-10-08T14:51:07Z</time>
      </trkpt>
      <trkpt lat="41.24373" lon="9.48686">
        <ele>-0.34</ele>
        <time>2017-10-08T14:51:21Z</time>
      </trkpt>
      <trkpt lat="41.24394" lon="9.48672">
        <ele>0.62</ele>
        <time>2017-10-08T14:51:34Z</time>
      </trkpt>
      <trkpt lat="41.24423" lon="9.48666">
        <ele>1.58</ele>
        <time>2017-10-08T14:51:49Z</time>
      </trkpt>
      <trkpt lat="41.24454" lon="9.48659">
        <ele>2.06</ele>
        <time>2017-10-08T14:52:02Z</time>
      </trkpt>
      <trkpt lat="41.24478" lon="9.4865">
        <ele>1.58</ele>
        <time>2017-10-08T14:52:11Z</time>
      </trkpt>
      <trkpt lat="41.24507" lon="9.48634">
        <ele>1.58</ele>
        <time>2017-10-08T14:52:23Z</time>
      </trkpt>
      <trkpt lat="41.24537" lon="9.48624">
        <ele>0.14</ele>
        <time>2017-10-08T14:52:35Z</time>
      </trkpt>
      <trkpt lat="41.2457" lon="9.4861">
        <ele>0.14</ele>
        <time>2017-10-08T14:52:49Z</time>
      </trkpt>
      <trkpt lat="41.2461" lon="9.48594">
        <ele>0.62</ele>
        <time>2017-10-08T14:53:03Z</time>
      </trkpt>
      <trkpt lat="41.24641" lon="9.48581">
        <ele>2.06</ele>
        <time>2017-10-08T14:53:14Z</time>
      </trkpt>
      <trkpt lat="41.24673" lon="9.48571">
        <ele>1.1</ele>
        <time>2017-10-08T14:53:25Z</time>
      </trkpt>
      <trkpt lat="41.24707" lon="9.4856">
        <ele>1.58</ele>
        <time>2017-10-08T14:53:36Z</time>
      </trkpt>
      <trkpt lat="41.24746" lon="9.48549">
        <ele>2.54</ele>
        <time>2017-10-08T14:53:47Z</time>
      </trkpt>
      <trkpt lat="41.24792" lon="9.48547">
        <ele>3.02</ele>
        <time>2017-10-08T14:54:00Z</time>
      </trkpt>
      <trkpt lat="41.24833" lon="9.48542">
        <ele>3.02</ele>
        <time>2017-10-08T14:54:12Z</time>
      </trkpt>
      <trkpt lat="41.24877" lon="9.4853">
        <ele>2.06</ele>
        <time>2017-10-08T14:54:25Z</time>
      </trkpt>
      <trkpt lat="41.24917" lon="9.48521">
        <ele>2.06</ele>
        <time>2017-10-08T14:54:37Z</time>
      </trkpt>
      <trkpt lat="41.24955" lon="9.48514">
        <ele>0.62</ele>
        <time>2017-10-08T14:54:49Z</time>
      </trkpt>
      <trkpt lat="41.24987" lon="9.48504">
        <ele>0.14</ele>
        <time>2017-10-08T14:54:59Z</time>
      </trkpt>
      <trkpt lat="41.2502" lon="9.48495">
        <ele>1.1</ele>
        <time>2017-10-08T14:55:09Z</time>
      </trkpt>
      <trkpt lat="41.25058" lon="9.48486">
        <ele>1.1</ele>
        <time>2017-10-08T14:55:20Z</time>
      </trkpt>
      <trkpt lat="41.25092" lon="9.48479">
        <ele>1.1</ele>
        <time>2017-10-08T14:55:30Z</time>
      </trkpt>
      <trkpt lat="41.2513" lon="9.48468">
        <ele>1.1</ele>
        <time>2017-10-08T14:55:42Z</time>
      </trkpt>
      <trkpt lat="41.2517" lon="9.48457">
        <ele>2.54</ele>
        <time>2017-10-08T14:55:54Z</time>
      </trkpt>
      <trkpt lat="41.25202" lon="9.48447">
        <ele>2.54</ele>
        <time>2017-10-08T14:56:04Z</time>
      </trkpt>
      <trkpt lat="41.25233" lon="9.48436">
        <ele>2.54</ele>
        <time>2017-10-08T14:56:14Z</time>
      </trkpt>
      <trkpt lat="41.25263" lon="9.48426">
        <ele>3.02</ele>
        <time>2017-10-08T14:56:24Z</time>
      </trkpt>
      <trkpt lat="41.253" lon="9.48412">
        <ele>3.98</ele>
        <time>2017-10-08T14:56:36Z</time>
      </trkpt>
      <trkpt lat="41.25325" lon="9.48405">
        <ele>4.46</ele>
        <time>2017-10-08T14:56:44Z</time>
      </trkpt>
      <trkpt lat="41.25353" lon="9.48398">
        <ele>3.98</ele>
        <time>2017-10-08T14:56:53Z</time>
      </trkpt>
      <trkpt lat="41.25392" lon="9.48385">
        <ele>1.1</ele>
        <time>2017-10-08T14:57:06Z</time>
      </trkpt>
      <trkpt lat="41.25417" lon="9.48377">
        <ele>1.58</ele>
        <time>2017-10-08T14:57:14Z</time>
      </trkpt>
      <trkpt lat="41.25453" lon="9.48363">
        <ele>1.1</ele>
        <time>2017-10-08T14:57:25Z</time>
      </trkpt>
      <trkpt lat="41.25493" lon="9.48351">
        <ele>-0.34</ele>
        <time>2017-10-08T14:57:38Z</time>
      </trkpt>
      <trkpt lat="41.25522" lon="9.48345">
        <ele>0.14</ele>
        <time>2017-10-08T14:57:47Z</time>
      </trkpt>
      <trkpt lat="41.25554" lon="9.48333">
        <ele>0.62</ele>
        <time>2017-10-08T14:57:58Z</time>
      </trkpt>
      <trkpt lat="41.25583" lon="9.48321">
        <ele>2.54</ele>
        <time>2017-10-08T14:58:07Z</time>
      </trkpt>
      <trkpt lat="41.25611" lon="9.48307">
        <ele>3.5</ele>
        <time>2017-10-08T14:58:17Z</time>
      </trkpt>
      <trkpt lat="41.25637" lon="9.48294">
        <ele>3.98</ele>
        <time>2017-10-08T14:58:27Z</time>
      </trkpt>
      <trkpt lat="41.25672" lon="9.48272">
        <ele>2.06</ele>
        <time>2017-10-08T14:58:41Z</time>
      </trkpt>
      <trkpt lat="41.257" lon="9.48259">
        <ele>1.58</ele>
        <time>2017-10-08T14:58:52Z</time>
      </trkpt>
      <trkpt lat="41.25734" lon="9.48242">
        <ele>1.58</ele>
        <time>2017-10-08T14:59:05Z</time>
      </trkpt>
      <trkpt lat="41.25762" lon="9.48231">
        <ele>1.1</ele>
        <time>2017-10-08T14:59:16Z</time>
      </trkpt>
      <trkpt lat="41.25789" lon="9.48215">
        <ele>0.62</ele>
        <time>2017-10-08T14:59:28Z</time>
      </trkpt>
      <trkpt lat="41.25819" lon="9.48208">
        <ele>0.14</ele>
        <time>2017-10-08T14:59:40Z</time>
      </trkpt>
      <trkpt lat="41.25849" lon="9.48201">
        <ele>0.62</ele>
        <time>2017-10-08T14:59:51Z</time>
      </trkpt>
      <trkpt lat="41.25883" lon="9.48185">
        <ele>1.1</ele>
        <time>2017-10-08T15:00:04Z</time>
      </trkpt>
      <trkpt lat="41.25915" lon="9.48167">
        <ele>1.1</ele>
        <time>2017-10-08T15:00:16Z</time>
      </trkpt>
      <trkpt lat="41.25947" lon="9.48154">
        <ele>4.46</ele>
        <time>2017-10-08T15:00:27Z</time>
      </trkpt>
      <trkpt lat="41.25979" lon="9.48141">
        <ele>4.94</ele>
        <time>2017-10-08T15:00:38Z</time>
      </trkpt>
      <trkpt lat="41.26014" lon="9.4813">
        <ele>3.5</ele>
        <time>2017-10-08T15:00:49Z</time>
      </trkpt>
      <trkpt lat="41.26047" lon="9.4812">
        <ele>2.06</ele>
        <time>2017-10-08T15:00:59Z</time>
      </trkpt>
      <trkpt lat="41.26088" lon="9.48107">
        <ele>1.58</ele>
        <time>2017-10-08T15:01:12Z</time>
      </trkpt>
      <trkpt lat="41.26117" lon="9.48099">
        <ele>2.54</ele>
        <time>2017-10-08T15:01:21Z</time>
      </trkpt>
      <trkpt lat="41.26149" lon="9.48082">
        <ele>2.06</ele>
        <time>2017-10-08T15:01:32Z</time>
      </trkpt>
      <trkpt lat="41.26183" lon="9.48068">
        <ele>4.46</ele>
        <time>2017-10-08T15:01:43Z</time>
      </trkpt>
      <trkpt lat="41.26209" lon="9.48059">
        <ele>5.91</ele>
        <time>2017-10-08T15:01:52Z</time>
      </trkpt>
      <trkpt lat="41.26245" lon="9.48045">
        <ele>5.42</ele>
        <time>2017-10-08T15:02:03Z</time>
      </trkpt>
      <trkpt lat="41.26283" lon="9.48028">
        <ele>4.46</ele>
        <time>2017-10-08T15:02:15Z</time>
      </trkpt>
      <trkpt lat="41.26328" lon="9.48016">
        <ele>5.42</ele>
        <time>2017-10-08T15:02:29Z</time>
      </trkpt>
      <trkpt lat="41.26363" lon="9.48004">
        <ele>6.39</ele>
        <time>2017-10-08T15:02:40Z</time>
      </trkpt>
      <trkpt lat="41.26395" lon="9.47997">
        <ele>5.42</ele>
        <time>2017-10-08T15:02:50Z</time>
      </trkpt>
      <trkpt lat="41.26437" lon="9.47983">
        <ele>4.46</ele>
        <time>2017-10-08T15:03:03Z</time>
      </trkpt>
      <trkpt lat="41.26469" lon="9.4797">
        <ele>4.94</ele>
        <time>2017-10-08T15:03:13Z</time>
      </trkpt>
      <trkpt lat="41.26494" lon="9.47963">
        <ele>5.91</ele>
        <time>2017-10-08T15:03:21Z</time>
      </trkpt>
      <trkpt lat="41.2653" lon="9.47951">
        <ele>5.91</ele>
        <time>2017-10-08T15:03:32Z</time>
      </trkpt>
      <trkpt lat="41.26567" lon="9.4794">
        <ele>6.87</ele>
        <time>2017-10-08T15:03:43Z</time>
      </trkpt>
      <trkpt lat="41.26601" lon="9.47929">
        <ele>8.79</ele>
        <time>2017-10-08T15:03:53Z</time>
      </trkpt>
      <trkpt lat="41.26625" lon="9.47922">
        <ele>9.27</ele>
        <time>2017-10-08T15:04:00Z</time>
      </trkpt>
      <trkpt lat="41.26651" lon="9.47918">
        <ele>7.83</ele>
        <time>2017-10-08T15:04:08Z</time>
      </trkpt>
      <trkpt lat="41.26691" lon="9.47905">
        <ele>7.83</ele>
        <time>2017-10-08T15:04:20Z</time>
      </trkpt>
      <trkpt lat="41.26731" lon="9.47895">
        <ele>7.35</ele>
        <time>2017-10-08T15:04:32Z</time>
      </trkpt>
      <trkpt lat="41.26764" lon="9.47889">
        <ele>4.94</ele>
        <time>2017-10-08T15:04:42Z</time>
      </trkpt>
      <trkpt lat="41.26793" lon="9.47878">
        <ele>4.94</ele>
        <time>2017-10-08T15:04:50Z</time>
      </trkpt>
      <trkpt lat="41.26831" lon="9.47865">
        <ele>1.1</ele>
        <time>2017-10-08T15:05:01Z</time>
      </trkpt>
      <trkpt lat="41.26851" lon="9.47857">
        <ele>0.14</ele>
        <time>2017-10-08T15:05:07Z</time>
      </trkpt>
      <trkpt lat="41.26871" lon="9.47849">
        <ele>0.62</ele>
        <time>2017-10-08T15:05:13Z</time>
      </trkpt>
      <trkpt lat="41.26911" lon="9.47835">
        <ele>-1.3</ele>
        <time>2017-10-08T15:05:25Z</time>
      </trkpt>
      <trkpt lat="41.26947" lon="9.47822">
        <ele>-3.23</ele>
        <time>2017-10-08T15:05:36Z</time>
      </trkpt>
      <trkpt lat="41.26981" lon="9.47812">
        <ele>-4.19</ele>
        <time>2017-10-08T15:05:47Z</time>
      </trkpt>
      <trkpt lat="41.27019" lon="9.47801">
        <ele>-2.75</ele>
        <time>2017-10-08T15:05:58Z</time>
      </trkpt>
      <trkpt lat="41.27049" lon="9.47794">
        <ele>-5.15</ele>
        <time>2017-10-08T15:06:07Z</time>
      </trkpt>
      <trkpt lat="41.2709" lon="9.47785">
        <ele>-5.15</ele>
        <time>2017-10-08T15:06:19Z</time>
      </trkpt>
      <trkpt lat="41.27124" lon="9.47775">
        <ele>-5.63</ele>
        <time>2017-10-08T15:06:30Z</time>
      </trkpt>
      <trkpt lat="41.2715" lon="9.47766">
        <ele>-5.15</ele>
        <time>2017-10-08T15:06:38Z</time>
      </trkpt>
      <trkpt lat="41.2718" lon="9.47755">
        <ele>-4.67</ele>
        <time>2017-10-08T15:06:47Z</time>
      </trkpt>
      <trkpt lat="41.27215" lon="9.47746">
        <ele>-4.19</ele>
        <time>2017-10-08T15:06:57Z</time>
      </trkpt>
      <trkpt lat="41.27244" lon="9.47738">
        <ele>-3.71</ele>
        <time>2017-10-08T15:07:06Z</time>
      </trkpt>
      <trkpt lat="41.2728" lon="9.47726">
        <ele>-3.23</ele>
        <time>2017-10-08T15:07:18Z</time>
      </trkpt>
      <trkpt lat="41.27313" lon="9.47711">
        <ele>-1.79</ele>
        <time>2017-10-08T15:07:28Z</time>
      </trkpt>
      <trkpt lat="41.27348" lon="9.47701">
        <ele>-0.34</ele>
        <time>2017-10-08T15:07:38Z</time>
      </trkpt>
      <trkpt lat="41.27355" lon="9.477">
        <ele>-0.34</ele>
        <time>2017-10-08T15:07:40Z</time>
      </trkpt>
      <trkpt lat="41.27386" lon="9.47689">
        <ele>-1.79</ele>
        <time>2017-10-08T15:07:50Z</time>
      </trkpt>
      <trkpt lat="41.27419" lon="9.47679">
        <ele>-0.82</ele>
        <time>2017-10-08T15:08:00Z</time>
      </trkpt>
      <trkpt lat="41.27436" lon="9.47676">
        <ele>-0.34</ele>
        <time>2017-10-08T15:08:05Z</time>
      </trkpt>
      <trkpt lat="41.27464" lon="9.47675">
        <ele>-0.34</ele>
        <time>2017-10-08T15:08:13Z</time>
      </trkpt>
      <trkpt lat="41.27493" lon="9.47665">
        <ele>0.62</ele>
        <time>2017-10-08T15:08:23Z</time>
      </trkpt>
      <trkpt lat="41.27522" lon="9.4766">
        <ele>0.14</ele>
        <time>2017-10-08T15:08:32Z</time>
      </trkpt>
      <trkpt lat="41.27552" lon="9.47651">
        <ele>-0.82</ele>
        <time>2017-10-08T15:08:41Z</time>
      </trkpt>
      <trkpt lat="41.27582" lon="9.47644">
        <ele>-0.34</ele>
        <time>2017-10-08T15:08:50Z</time>
      </trkpt>
      <trkpt lat="41.27617" lon="9.47639">
        <ele>1.1</ele>
        <time>2017-10-08T15:09:00Z</time>
      </trkpt>
      <trkpt lat="41.27649" lon="9.47637">
        <ele>0.14</ele>
        <time>2017-10-08T15:09:09Z</time>
      </trkpt>
      <trkpt lat="41.27687" lon="9.47633">
        <ele>-1.3</ele>
        <time>2017-10-08T15:09:20Z</time>
      </trkpt>
      <trkpt lat="41.27713" lon="9.47629">
        <ele>-1.79</ele>
        <time>2017-10-08T15:09:28Z</time>
      </trkpt>
      <trkpt lat="41.27741" lon="9.47624">
        <ele>-0.82</ele>
        <time>2017-10-08T15:09:37Z</time>
      </trkpt>
      <trkpt lat="41.27758" lon="9.47624">
        <ele>0.14</ele>
        <time>2017-10-08T15:09:42Z</time>
      </trkpt>
      <trkpt lat="41.27793" lon="9.47613">
        <ele>0.62</ele>
        <time>2017-10-08T15:09:54Z</time>
      </trkpt>
      <trkpt lat="41.27819" lon="9.47604">
        <ele>2.06</ele>
        <time>2017-10-08T15:10:03Z</time>
      </trkpt>
      <trkpt lat="41.27853" lon="9.47592">
        <ele>1.58</ele>
        <time>2017-10-08T15:10:14Z</time>
      </trkpt>
      <trkpt lat="41.27896" lon="9.47588">
        <ele>1.58</ele>
        <time>2017-10-08T15:10:27Z</time>
      </trkpt>
      <trkpt lat="41.27932" lon="9.47593">
        <ele>2.06</ele>
        <time>2017-10-08T15:10:38Z</time>
      </trkpt>
      <trkpt lat="41.27966" lon="9.47599">
        <ele>2.54</ele>
        <time>2017-10-08T15:10:48Z</time>
      </trkpt>
      <trkpt lat="41.28001" lon="9.47611">
        <ele>2.06</ele>
        <time>2017-10-08T15:10:58Z</time>
      </trkpt>
      <trkpt lat="41.28039" lon="9.47625">
        <ele>2.54</ele>
        <time>2017-10-08T15:11:09Z</time>
      </trkpt>
      <trkpt lat="41.28043" lon="9.47625">
        <ele>2.54</ele>
        <time>2017-10-08T15:11:10Z</time>
      </trkpt>
      <trkpt lat="41.28048" lon="9.47623">
        <ele>3.02</ele>
        <time>2017-10-08T15:11:12Z</time>
      </trkpt>
      <trkpt lat="41.28054" lon="9.47611">
        <ele>2.54</ele>
        <time>2017-10-08T15:11:18Z</time>
      </trkpt>
      <trkpt lat="41.28053" lon="9.47605">
        <ele>2.54</ele>
        <time>2017-10-08T15:11:23Z</time>
      </trkpt>
      <trkpt lat="41.28052" lon="9.47603">
        <ele>2.06</ele>
        <time>2017-10-08T15:11:25Z</time>
      </trkpt>
      <trkpt lat="41.2804" lon="9.47601">
        <ele>1.58</ele>
        <time>2017-10-08T15:11:31Z</time>
      </trkpt>
      <trkpt lat="41.28033" lon="9.47597">
        <ele>1.1</ele>
        <time>2017-10-08T15:11:36Z</time>
      </trkpt>
      <trkpt lat="41.28032" lon="9.47592">
        <ele>3.02</ele>
        <time>2017-10-08T15:11:41Z</time>
      </trkpt>
      <trkpt lat="41.28013" lon="9.47584">
        <ele>3.02</ele>
        <time>2017-10-08T15:11:51Z</time>
      </trkpt>
      <trkpt lat="41.28004" lon="9.47574">
        <ele>4.46</ele>
        <time>2017-10-08T15:11:56Z</time>
      </trkpt>
      <trkpt lat="41.27992" lon="9.4756">
        <ele>3.98</ele>
        <time>2017-10-08T15:12:03Z</time>
      </trkpt>
      <trkpt lat="41.27966" lon="9.4754">
        <ele>5.42</ele>
        <time>2017-10-08T15:12:14Z</time>
      </trkpt>
      <trkpt lat="41.27964" lon="9.47537">
        <ele>5.91</ele>
        <time>2017-10-08T15:12:15Z</time>
      </trkpt>
      <trkpt lat="41.27945" lon="9.47518">
        <ele>6.87</ele>
        <time>2017-10-08T15:12:23Z</time>
      </trkpt>
      <trkpt lat="41.27929" lon="9.475">
        <ele>5.42</ele>
        <time>2017-10-08T15:12:31Z</time>
      </trkpt>
      <trkpt lat="41.27928" lon="9.47498">
        <ele>5.91</ele>
        <time>2017-10-08T15:12:32Z</time>
      </trkpt>
      <trkpt lat="41.27906" lon="9.47471">
        <ele>5.91</ele>
        <time>2017-10-08T15:12:48Z</time>
      </trkpt>
      <trkpt lat="41.27898" lon="9.47463">
        <ele>6.39</ele>
        <time>2017-10-08T15:12:53Z</time>
      </trkpt>
      <trkpt lat="41.27883" lon="9.4745">
        <ele>5.91</ele>
        <time>2017-10-08T15:13:01Z</time>
      </trkpt>
      <trkpt lat="41.27864" lon="9.47427">
        <ele>6.87</ele>
        <time>2017-10-08T15:13:12Z</time>
      </trkpt>
      <trkpt lat="41.27842" lon="9.47403">
        <ele>5.91</ele>
        <time>2017-10-08T15:13:24Z</time>
      </trkpt>
      <trkpt lat="41.27828" lon="9.47383">
        <ele>4.94</ele>
        <time>2017-10-08T15:13:33Z</time>
      </trkpt>
      <trkpt lat="41.27813" lon="9.47365">
        <ele>6.87</ele>
        <time>2017-10-08T15:13:44Z</time>
      </trkpt>
      <trkpt lat="41.27794" lon="9.47344">
        <ele>6.39</ele>
        <time>2017-10-08T15:13:54Z</time>
      </trkpt>
      <trkpt lat="41.27774" lon="9.47315">
        <ele>7.83</ele>
        <time>2017-10-08T15:14:05Z</time>
      </trkpt>
      <trkpt lat="41.27761" lon="9.47295">
        <ele>8.31</ele>
        <time>2017-10-08T15:14:14Z</time>
      </trkpt>
      <trkpt lat="41.27753" lon="9.47288">
        <ele>8.31</ele>
        <time>2017-10-08T15:14:18Z</time>
      </trkpt>
      <trkpt lat="41.27728" lon="9.47264">
        <ele>7.83</ele>
        <time>2017-10-08T15:14:29Z</time>
      </trkpt>
      <trkpt lat="41.27711" lon="9.47243">
        <ele>7.35</ele>
        <time>2017-10-08T15:14:38Z</time>
      </trkpt>
      <trkpt lat="41.27692" lon="9.47218">
        <ele>6.87</ele>
        <time>2017-10-08T15:14:49Z</time>
      </trkpt>
      <trkpt lat="41.27687" lon="9.47212">
        <ele>7.35</ele>
        <time>2017-10-08T15:14:52Z</time>
      </trkpt>
      <trkpt lat="41.27667" lon="9.47193">
        <ele>6.39</ele>
        <time>2017-10-08T15:15:03Z</time>
      </trkpt>
      <trkpt lat="41.27651" lon="9.47173">
        <ele>6.39</ele>
        <time>2017-10-08T15:15:13Z</time>
      </trkpt>
      <trkpt lat="41.27639" lon="9.47166">
        <ele>7.35</ele>
        <time>2017-10-08T15:15:18Z</time>
      </trkpt>
      <trkpt lat="41.27634" lon="9.47164">
        <ele>7.83</ele>
        <time>2017-10-08T15:15:20Z</time>
      </trkpt>
      <trkpt lat="41.27607" lon="9.47139">
        <ele>7.35</ele>
        <time>2017-10-08T15:15:31Z</time>
      </trkpt>
      <trkpt lat="41.27571" lon="9.47105">
        <ele>4.94</ele>
        <time>2017-10-08T15:15:44Z</time>
      </trkpt>
      <trkpt lat="41.27547" lon="9.47078">
        <ele>6.39</ele>
        <time>2017-10-08T15:15:54Z</time>
      </trkpt>
      <trkpt lat="41.27522" lon="9.47054">
        <ele>7.35</ele>
        <time>2017-10-08T15:16:04Z</time>
      </trkpt>
      <trkpt lat="41.27489" lon="9.47022">
        <ele>8.79</ele>
        <time>2017-10-08T15:16:17Z</time>
      </trkpt>
      <trkpt lat="41.27461" lon="9.46997">
        <ele>8.79</ele>
        <time>2017-10-08T15:16:27Z</time>
      </trkpt>
      <trkpt lat="41.2744" lon="9.46974">
        <ele>9.75</ele>
        <time>2017-10-08T15:16:35Z</time>
      </trkpt>
      <trkpt lat="41.27404" lon="9.46941">
        <ele>8.31</ele>
        <time>2017-10-08T15:16:47Z</time>
      </trkpt>
      <trkpt lat="41.27377" lon="9.46914">
        <ele>8.79</ele>
        <time>2017-10-08T15:16:57Z</time>
      </trkpt>
      <trkpt lat="41.27371" lon="9.46908">
        <ele>8.31</ele>
        <time>2017-10-08T15:16:59Z</time>
      </trkpt>
      <trkpt lat="41.27339" lon="9.4688">
        <ele>7.35</ele>
        <time>2017-10-08T15:17:10Z</time>
      </trkpt>
      <trkpt lat="41.27309" lon="9.46848">
        <ele>6.87</ele>
        <time>2017-10-08T15:17:21Z</time>
      </trkpt>
      <trkpt lat="41.27276" lon="9.46817">
        <ele>6.87</ele>
        <time>2017-10-08T15:17:33Z</time>
      </trkpt>
      <trkpt lat="41.27244" lon="9.4679">
        <ele>7.35</ele>
        <time>2017-10-08T15:17:44Z</time>
      </trkpt>
      <trkpt lat="41.27226" lon="9.46769">
        <ele>7.35</ele>
        <time>2017-10-08T15:17:51Z</time>
      </trkpt>
      <trkpt lat="41.27194" lon="9.46739">
        <ele>7.83</ele>
        <time>2017-10-08T15:18:02Z</time>
      </trkpt>
      <trkpt lat="41.27168" lon="9.4671">
        <ele>6.87</ele>
        <time>2017-10-08T15:18:12Z</time>
      </trkpt>
      <trkpt lat="41.27138" lon="9.4668">
        <ele>7.35</ele>
        <time>2017-10-08T15:18:23Z</time>
      </trkpt>
      <trkpt lat="41.27106" lon="9.46646">
        <ele>6.87</ele>
        <time>2017-10-08T15:18:34Z</time>
      </trkpt>
      <trkpt lat="41.271" lon="9.4664">
        <ele>6.87</ele>
        <time>2017-10-08T15:18:36Z</time>
      </trkpt>
      <trkpt lat="41.27089" lon="9.46628">
        <ele>5.91</ele>
        <time>2017-10-08T15:18:40Z</time>
      </trkpt>
      <trkpt lat="41.27079" lon="9.46613">
        <ele>5.91</ele>
        <time>2017-10-08T15:18:44Z</time>
      </trkpt>
      <trkpt lat="41.27045" lon="9.46584">
        <ele>6.39</ele>
        <time>2017-10-08T15:18:55Z</time>
      </trkpt>
      <trkpt lat="41.2701" lon="9.46562">
        <ele>6.87</ele>
        <time>2017-10-08T15:19:06Z</time>
      </trkpt>
      <trkpt lat="41.27" lon="9.46551">
        <ele>6.87</ele>
        <time>2017-10-08T15:19:10Z</time>
      </trkpt>
      <trkpt lat="41.26989" lon="9.46539">
        <ele>6.39</ele>
        <time>2017-10-08T15:19:15Z</time>
      </trkpt>
      <trkpt lat="41.26957" lon="9.46511">
        <ele>6.39</ele>
        <time>2017-10-08T15:19:27Z</time>
      </trkpt>
      <trkpt lat="41.26928" lon="9.46485">
        <ele>6.87</ele>
        <time>2017-10-08T15:19:38Z</time>
      </trkpt>
      <trkpt lat="41.26893" lon="9.46451">
        <ele>6.39</ele>
        <time>2017-10-08T15:19:52Z</time>
      </trkpt>
      <trkpt lat="41.26868" lon="9.46433">
        <ele>6.39</ele>
        <time>2017-10-08T15:20:01Z</time>
      </trkpt>
      <trkpt lat="41.26858" lon="9.46424">
        <ele>6.87</ele>
        <time>2017-10-08T15:20:05Z</time>
      </trkpt>
      <trkpt lat="41.26826" lon="9.46396">
        <ele>7.35</ele>
        <time>2017-10-08T15:20:17Z</time>
      </trkpt>
      <trkpt lat="41.26803" lon="9.46373">
        <ele>5.91</ele>
        <time>2017-10-08T15:20:26Z</time>
      </trkpt>
      <trkpt lat="41.26777" lon="9.46346">
        <ele>5.42</ele>
        <time>2017-10-08T15:20:37Z</time>
      </trkpt>
      <trkpt lat="41.26751" lon="9.4632">
        <ele>5.91</ele>
        <time>2017-10-08T15:20:47Z</time>
      </trkpt>
      <trkpt lat="41.26729" lon="9.46296">
        <ele>5.42</ele>
        <time>2017-10-08T15:20:56Z</time>
      </trkpt>
      <trkpt lat="41.26708" lon="9.46274">
        <ele>6.87</ele>
        <time>2017-10-08T15:21:05Z</time>
      </trkpt>
      <trkpt lat="41.2668" lon="9.46252">
        <ele>5.91</ele>
        <time>2017-10-08T15:21:15Z</time>
      </trkpt>
      <trkpt lat="41.2665" lon="9.46225">
        <ele>6.39</ele>
        <time>2017-10-08T15:21:27Z</time>
      </trkpt>
      <trkpt lat="41.26621" lon="9.46203">
        <ele>6.39</ele>
        <time>2017-10-08T15:21:38Z</time>
      </trkpt>
      <trkpt lat="41.26612" lon="9.46196">
        <ele>6.39</ele>
        <time>2017-10-08T15:21:41Z</time>
      </trkpt>
      <trkpt lat="41.26595" lon="9.46183">
        <ele>5.91</ele>
        <time>2017-10-08T15:21:47Z</time>
      </trkpt>
      <trkpt lat="41.26562" lon="9.46162">
        <ele>6.39</ele>
        <time>2017-10-08T15:21:58Z</time>
      </trkpt>
      <trkpt lat="41.26546" lon="9.46147">
        <ele>4.46</ele>
        <time>2017-10-08T15:22:04Z</time>
      </trkpt>
      <trkpt lat="41.26511" lon="9.46114">
        <ele>4.46</ele>
        <time>2017-10-08T15:22:17Z</time>
      </trkpt>
      <trkpt lat="41.26486" lon="9.46089">
        <ele>3.98</ele>
        <time>2017-10-08T15:22:26Z</time>
      </trkpt>
      <trkpt lat="41.26452" lon="9.46061">
        <ele>3.98</ele>
        <time>2017-10-08T15:22:38Z</time>
      </trkpt>
      <trkpt lat="41.26437" lon="9.46044">
        <ele>3.5</ele>
        <time>2017-10-08T15:22:44Z</time>
      </trkpt>
      <trkpt lat="41.26412" lon="9.46022">
        <ele>3.98</ele>
        <time>2017-10-08T15:22:53Z</time>
      </trkpt>
      <trkpt lat="41.26382" lon="9.46">
        <ele>3.98</ele>
        <time>2017-10-08T15:23:03Z</time>
      </trkpt>
      <trkpt lat="41.26352" lon="9.45974">
        <ele>4.46</ele>
        <time>2017-10-08T15:23:13Z</time>
      </trkpt>
      <trkpt lat="41.26319" lon="9.4595">
        <ele>5.42</ele>
        <time>2017-10-08T15:23:24Z</time>
      </trkpt>
      <trkpt lat="41.26276" lon="9.45919">
        <ele>5.42</ele>
        <time>2017-10-08T15:23:38Z</time>
      </trkpt>
      <trkpt lat="41.26263" lon="9.45911">
        <ele>5.91</ele>
        <time>2017-10-08T15:23:42Z</time>
      </trkpt>
      <trkpt lat="41.26216" lon="9.45873">
        <ele>6.39</ele>
        <time>2017-10-08T15:23:58Z</time>
      </trkpt>
      <trkpt lat="41.26183" lon="9.45848">
        <ele>6.87</ele>
        <time>2017-10-08T15:24:09Z</time>
      </trkpt>
      <trkpt lat="41.2615" lon="9.4581">
        <ele>6.39</ele>
        <time>2017-10-08T15:24:22Z</time>
      </trkpt>
      <trkpt lat="41.26114" lon="9.45775">
        <ele>4.94</ele>
        <time>2017-10-08T15:24:35Z</time>
      </trkpt>
      <trkpt lat="41.26081" lon="9.45739">
        <ele>4.94</ele>
        <time>2017-10-08T15:24:48Z</time>
      </trkpt>
      <trkpt lat="41.26052" lon="9.45706">
        <ele>4.94</ele>
        <time>2017-10-08T15:25:00Z</time>
      </trkpt>
      <trkpt lat="41.26013" lon="9.45678">
        <ele>5.42</ele>
        <time>2017-10-08T15:25:14Z</time>
      </trkpt>
      <trkpt lat="41.25986" lon="9.45649">
        <ele>4.94</ele>
        <time>2017-10-08T15:25:25Z</time>
      </trkpt>
      <trkpt lat="41.25947" lon="9.45605">
        <ele>4.46</ele>
        <time>2017-10-08T15:25:41Z</time>
      </trkpt>
      <trkpt lat="41.25918" lon="9.45574">
        <ele>3.98</ele>
        <time>2017-10-08T15:25:53Z</time>
      </trkpt>
      <trkpt lat="41.25885" lon="9.45551">
        <ele>4.46</ele>
        <time>2017-10-08T15:26:06Z</time>
      </trkpt>
      <trkpt lat="41.25853" lon="9.45527">
        <ele>4.46</ele>
        <time>2017-10-08T15:26:17Z</time>
      </trkpt>
      <trkpt lat="41.2582" lon="9.45497">
        <ele>5.42</ele>
        <time>2017-10-08T15:26:29Z</time>
      </trkpt>
      <trkpt lat="41.25785" lon="9.45467">
        <ele>4.46</ele>
        <time>2017-10-08T15:26:41Z</time>
      </trkpt>
      <trkpt lat="41.25759" lon="9.45441">
        <ele>4.94</ele>
        <time>2017-10-08T15:26:51Z</time>
      </trkpt>
      <trkpt lat="41.25725" lon="9.45413">
        <ele>4.46</ele>
        <time>2017-10-08T15:27:02Z</time>
      </trkpt>
      <trkpt lat="41.25694" lon="9.45381">
        <ele>4.94</ele>
        <time>2017-10-08T15:27:14Z</time>
      </trkpt>
      <trkpt lat="41.25662" lon="9.45341">
        <ele>3.5</ele>
        <time>2017-10-08T15:27:27Z</time>
      </trkpt>
      <trkpt lat="41.25631" lon="9.45308">
        <ele>3.98</ele>
        <time>2017-10-08T15:27:39Z</time>
      </trkpt>
      <trkpt lat="41.25613" lon="9.45287">
        <ele>3.98</ele>
        <time>2017-10-08T15:27:46Z</time>
      </trkpt>
      <trkpt lat="41.25577" lon="9.45253">
        <ele>3.98</ele>
        <time>2017-10-08T15:27:59Z</time>
      </trkpt>
      <trkpt lat="41.25547" lon="9.45221">
        <ele>3.98</ele>
        <time>2017-10-08T15:28:10Z</time>
      </trkpt>
      <trkpt lat="41.25513" lon="9.45194">
        <ele>3.5</ele>
        <time>2017-10-08T15:28:21Z</time>
      </trkpt>
      <trkpt lat="41.25476" lon="9.45159">
        <ele>3.98</ele>
        <time>2017-10-08T15:28:34Z</time>
      </trkpt>
      <trkpt lat="41.25446" lon="9.45137">
        <ele>3.98</ele>
        <time>2017-10-08T15:28:44Z</time>
      </trkpt>
      <trkpt lat="41.25414" lon="9.4511">
        <ele>4.46</ele>
        <time>2017-10-08T15:28:55Z</time>
      </trkpt>
      <trkpt lat="41.25379" lon="9.4508">
        <ele>4.46</ele>
        <time>2017-10-08T15:29:07Z</time>
      </trkpt>
      <trkpt lat="41.25339" lon="9.45044">
        <ele>4.46</ele>
        <time>2017-10-08T15:29:21Z</time>
      </trkpt>
      <trkpt lat="41.25297" lon="9.45011">
        <ele>3.02</ele>
        <time>2017-10-08T15:29:35Z</time>
      </trkpt>
      <trkpt lat="41.25262" lon="9.44984">
        <ele>3.5</ele>
        <time>2017-10-08T15:29:46Z</time>
      </trkpt>
      <trkpt lat="41.25225" lon="9.44961">
        <ele>3.98</ele>
        <time>2017-10-08T15:29:58Z</time>
      </trkpt>
      <trkpt lat="41.25187" lon="9.44932">
        <ele>3.98</ele>
        <time>2017-10-08T15:30:11Z</time>
      </trkpt>
      <trkpt lat="41.25139" lon="9.44902">
        <ele>5.42</ele>
        <time>2017-10-08T15:30:26Z</time>
      </trkpt>
      <trkpt lat="41.25103" lon="9.44875">
        <ele>5.42</ele>
        <time>2017-10-08T15:30:38Z</time>
      </trkpt>
      <trkpt lat="41.25061" lon="9.44851">
        <ele>4.46</ele>
        <time>2017-10-08T15:30:51Z</time>
      </trkpt>
      <trkpt lat="41.25026" lon="9.44825">
        <ele>4.46</ele>
        <time>2017-10-08T15:31:03Z</time>
      </trkpt>
      <trkpt lat="41.24982" lon="9.44805">
        <ele>4.46</ele>
        <time>2017-10-08T15:31:17Z</time>
      </trkpt>
      <trkpt lat="41.24933" lon="9.44777">
        <ele>3.02</ele>
        <time>2017-10-08T15:31:32Z</time>
      </trkpt>
      <trkpt lat="41.24887" lon="9.4476">
        <ele>2.06</ele>
        <time>2017-10-08T15:31:46Z</time>
      </trkpt>
      <trkpt lat="41.24837" lon="9.44735">
        <ele>1.58</ele>
        <time>2017-10-08T15:32:01Z</time>
      </trkpt>
      <trkpt lat="41.24793" lon="9.44713">
        <ele>2.54</ele>
        <time>2017-10-08T15:32:14Z</time>
      </trkpt>
      <trkpt lat="41.24749" lon="9.44684">
        <ele>3.02</ele>
        <time>2017-10-08T15:32:28Z</time>
      </trkpt>
      <trkpt lat="41.24704" lon="9.44655">
        <ele>3.02</ele>
        <time>2017-10-08T15:32:44Z</time>
      </trkpt>
      <trkpt lat="41.24667" lon="9.44636">
        <ele>3.5</ele>
        <time>2017-10-08T15:32:57Z</time>
      </trkpt>
      <trkpt lat="41.2464" lon="9.44621">
        <ele>3.98</ele>
        <time>2017-10-08T15:33:07Z</time>
      </trkpt>
      <trkpt lat="41.24607" lon="9.44606">
        <ele>2.54</ele>
        <time>2017-10-08T15:33:19Z</time>
      </trkpt>
      <trkpt lat="41.24577" lon="9.44585">
        <ele>3.02</ele>
        <time>2017-10-08T15:33:31Z</time>
      </trkpt>
      <trkpt lat="41.24569" lon="9.4458">
        <ele>3.02</ele>
        <time>2017-10-08T15:33:34Z</time>
      </trkpt>
      <trkpt lat="41.24544" lon="9.44565">
        <ele>3.98</ele>
        <time>2017-10-08T15:33:43Z</time>
      </trkpt>
      <trkpt lat="41.24518" lon="9.44546">
        <ele>3.02</ele>
        <time>2017-10-08T15:33:52Z</time>
      </trkpt>
      <trkpt lat="41.24489" lon="9.44532">
        <ele>2.06</ele>
        <time>2017-10-08T15:34:03Z</time>
      </trkpt>
      <trkpt lat="41.24463" lon="9.44512">
        <ele>2.54</ele>
        <time>2017-10-08T15:34:14Z</time>
      </trkpt>
      <trkpt lat="41.24461" lon="9.4451">
        <ele>2.54</ele>
        <time>2017-10-08T15:34:15Z</time>
      </trkpt>
      <trkpt lat="41.24428" lon="9.44484">
        <ele>2.54</ele>
        <time>2017-10-08T15:34:27Z</time>
      </trkpt>
      <trkpt lat="41.24404" lon="9.44454">
        <ele>3.5</ele>
        <time>2017-10-08T15:34:37Z</time>
      </trkpt>
      <trkpt lat="41.24389" lon="9.44437">
        <ele>3.02</ele>
        <time>2017-10-08T15:34:43Z</time>
      </trkpt>
      <trkpt lat="41.24396" lon="9.44417">
        <ele>1.1</ele>
        <time>2017-10-08T15:34:54Z</time>
      </trkpt>
      <trkpt lat="41.24401" lon="9.44415">
        <ele>1.58</ele>
        <time>2017-10-08T15:34:57Z</time>
      </trkpt>
      <trkpt lat="41.24427" lon="9.44401">
        <ele>0.62</ele>
        <time>2017-10-08T15:35:10Z</time>
      </trkpt>
      <trkpt lat="41.24451" lon="9.44389">
        <ele>1.58</ele>
        <time>2017-10-08T15:35:21Z</time>
      </trkpt>
      <trkpt lat="41.24475" lon="9.4437">
        <ele>1.1</ele>
        <time>2017-10-08T15:35:32Z</time>
      </trkpt>
      <trkpt lat="41.24503" lon="9.44355">
        <ele>0.62</ele>
        <time>2017-10-08T15:35:45Z</time>
      </trkpt>
      <trkpt lat="41.24531" lon="9.44341">
        <ele>2.54</ele>
        <time>2017-10-08T15:35:56Z</time>
      </trkpt>
      <trkpt lat="41.2458" lon="9.44318">
        <ele>1.58</ele>
        <time>2017-10-08T15:36:13Z</time>
      </trkpt>
      <trkpt lat="41.24627" lon="9.44295">
        <ele>1.58</ele>
        <time>2017-10-08T15:36:31Z</time>
      </trkpt>
      <trkpt lat="41.2466" lon="9.44281">
        <ele>2.54</ele>
        <time>2017-10-08T15:36:43Z</time>
      </trkpt>
      <trkpt lat="41.24692" lon="9.44266">
        <ele>1.1</ele>
        <time>2017-10-08T15:36:55Z</time>
      </trkpt>
      <trkpt lat="41.24729" lon="9.44249">
        <ele>0.62</ele>
        <time>2017-10-08T15:37:08Z</time>
      </trkpt>
      <trkpt lat="41.24738" lon="9.44247">
        <ele>0.62</ele>
        <time>2017-10-08T15:37:11Z</time>
      </trkpt>
      <trkpt lat="41.24748" lon="9.44245">
        <ele>1.1</ele>
        <time>2017-10-08T15:37:15Z</time>
      </trkpt>
      <trkpt lat="41.24798" lon="9.44218">
        <ele>1.1</ele>
        <time>2017-10-08T15:37:34Z</time>
      </trkpt>
      <trkpt lat="41.24835" lon="9.44204">
        <ele>1.1</ele>
        <time>2017-10-08T15:37:49Z</time>
      </trkpt>
      <trkpt lat="41.2486" lon="9.44196">
        <ele>0.62</ele>
        <time>2017-10-08T15:37:59Z</time>
      </trkpt>
      <trkpt lat="41.24889" lon="9.44181">
        <ele>0.62</ele>
        <time>2017-10-08T15:38:10Z</time>
      </trkpt>
      <trkpt lat="41.24923" lon="9.44163">
        <ele>1.1</ele>
        <time>2017-10-08T15:38:22Z</time>
      </trkpt>
      <trkpt lat="41.24968" lon="9.44138">
        <ele>2.06</ele>
        <time>2017-10-08T15:38:38Z</time>
      </trkpt>
      <trkpt lat="41.25003" lon="9.44123">
        <ele>2.06</ele>
        <time>2017-10-08T15:38:50Z</time>
      </trkpt>
      <trkpt lat="41.25048" lon="9.44099">
        <ele>1.1</ele>
        <time>2017-10-08T15:39:05Z</time>
      </trkpt>
      <trkpt lat="41.25083" lon="9.44081">
        <ele>1.1</ele>
        <time>2017-10-08T15:39:18Z</time>
      </trkpt>
      <trkpt lat="41.25118" lon="9.44066">
        <ele>0.62</ele>
        <time>2017-10-08T15:39:30Z</time>
      </trkpt>
      <trkpt lat="41.25162" lon="9.44043">
        <ele>0.14</ele>
        <time>2017-10-08T15:39:46Z</time>
      </trkpt>
      <trkpt lat="41.25214" lon="9.44019">
        <ele>1.1</ele>
        <time>2017-10-08T15:40:03Z</time>
      </trkpt>
      <trkpt lat="41.25248" lon="9.44003">
        <ele>2.54</ele>
        <time>2017-10-08T15:40:14Z</time>
      </trkpt>
      <trkpt lat="41.25279" lon="9.43989">
        <ele>2.06</ele>
        <time>2017-10-08T15:40:25Z</time>
      </trkpt>
      <trkpt lat="41.25329" lon="9.4397">
        <ele>2.06</ele>
        <time>2017-10-08T15:40:42Z</time>
      </trkpt>
      <trkpt lat="41.25377" lon="9.43952">
        <ele>2.06</ele>
        <time>2017-10-08T15:40:59Z</time>
      </trkpt>
      <trkpt lat="41.25414" lon="9.43937">
        <ele>2.54</ele>
        <time>2017-10-08T15:41:12Z</time>
      </trkpt>
      <trkpt lat="41.25436" lon="9.43927">
        <ele>2.54</ele>
        <time>2017-10-08T15:41:21Z</time>
      </trkpt>
      <trkpt lat="41.25463" lon="9.43918">
        <ele>3.02</ele>
        <time>2017-10-08T15:41:30Z</time>
      </trkpt>
      <trkpt lat="41.25493" lon="9.43906">
        <ele>2.54</ele>
        <time>2017-10-08T15:41:42Z</time>
      </trkpt>
      <trkpt lat="41.25514" lon="9.43893">
        <ele>3.98</ele>
        <time>2017-10-08T15:41:53Z</time>
      </trkpt>
      <trkpt lat="41.25524" lon="9.43873">
        <ele>4.46</ele>
        <time>2017-10-08T15:42:07Z</time>
      </trkpt>
      <trkpt lat="41.25529" lon="9.43861">
        <ele>4.94</ele>
        <time>2017-10-08T15:42:20Z</time>
      </trkpt>
      <trkpt lat="41.25532" lon="9.4386">
        <ele>4.46</ele>
        <time>2017-10-08T15:42:23Z</time>
      </trkpt>
      <trkpt lat="41.25542" lon="9.43866">
        <ele>3.5</ele>
        <time>2017-10-08T15:42:31Z</time>
      </trkpt>
      <trkpt lat="41.25548" lon="9.43871">
        <ele>3.02</ele>
        <time>2017-10-08T15:42:34Z</time>
      </trkpt>
      <trkpt lat="41.25557" lon="9.43889">
        <ele>2.54</ele>
        <time>2017-10-08T15:42:42Z</time>
      </trkpt>
      <trkpt lat="41.25558" lon="9.43894">
        <ele>3.02</ele>
        <time>2017-10-08T15:42:44Z</time>
      </trkpt>
      <trkpt lat="41.25564" lon="9.43915">
        <ele>2.54</ele>
        <time>2017-10-08T15:42:51Z</time>
      </trkpt>
      <trkpt lat="41.25567" lon="9.43917">
        <ele>2.54</ele>
        <time>2017-10-08T15:42:53Z</time>
      </trkpt>
      <trkpt lat="41.25574" lon="9.43914">
        <ele>2.06</ele>
        <time>2017-10-08T15:42:57Z</time>
      </trkpt>
      <trkpt lat="41.2558" lon="9.43907">
        <ele>2.54</ele>
        <time>2017-10-08T15:43:03Z</time>
      </trkpt>
      <trkpt lat="41.25589" lon="9.43887">
        <ele>2.54</ele>
        <time>2017-10-08T15:43:18Z</time>
      </trkpt>
      <trkpt lat="41.25591" lon="9.43878">
        <ele>2.54</ele>
        <time>2017-10-08T15:43:24Z</time>
      </trkpt>
      <trkpt lat="41.25592" lon="9.43871">
        <ele>2.54</ele>
        <time>2017-10-08T15:43:30Z</time>
      </trkpt>
      <trkpt lat="41.25593" lon="9.43869">
        <ele>2.54</ele>
        <time>2017-10-08T15:43:32Z</time>
      </trkpt>
      <trkpt lat="41.25597" lon="9.43855">
        <ele>1.58</ele>
        <time>2017-10-08T15:43:43Z</time>
      </trkpt>
      <trkpt lat="41.25596" lon="9.43848">
        <ele>2.06</ele>
        <time>2017-10-08T15:43:48Z</time>
      </trkpt>
      <trkpt lat="41.25596" lon="9.43839">
        <ele>2.06</ele>
        <time>2017-10-08T15:43:53Z</time>
      </trkpt>
      <trkpt lat="41.25597" lon="9.43835">
        <ele>1.58</ele>
        <time>2017-10-08T15:43:55Z</time>
      </trkpt>
      <trkpt lat="41.25603" lon="9.43798">
        <ele>2.54</ele>
        <time>2017-10-08T15:44:10Z</time>
      </trkpt>
      <trkpt lat="41.25611" lon="9.43749">
        <ele>2.06</ele>
        <time>2017-10-08T15:44:27Z</time>
      </trkpt>
      <trkpt lat="41.25619" lon="9.43695">
        <ele>2.54</ele>
        <time>2017-10-08T15:44:45Z</time>
      </trkpt>
      <trkpt lat="41.25631" lon="9.43642">
        <ele>3.02</ele>
        <time>2017-10-08T15:45:03Z</time>
      </trkpt>
      <trkpt lat="41.25639" lon="9.43588">
        <ele>3.02</ele>
        <time>2017-10-08T15:45:20Z</time>
      </trkpt>
      <trkpt lat="41.25641" lon="9.43526">
        <ele>3.5</ele>
        <time>2017-10-08T15:45:39Z</time>
      </trkpt>
      <trkpt lat="41.25646" lon="9.43469">
        <ele>3.5</ele>
        <time>2017-10-08T15:45:57Z</time>
      </trkpt>
      <trkpt lat="41.25652" lon="9.43412">
        <ele>3.5</ele>
        <time>2017-10-08T15:46:14Z</time>
      </trkpt>
      <trkpt lat="41.25667" lon="9.4334">
        <ele>3.5</ele>
        <time>2017-10-08T15:46:36Z</time>
      </trkpt>
      <trkpt lat="41.25686" lon="9.43271">
        <ele>3.98</ele>
        <time>2017-10-08T15:46:57Z</time>
      </trkpt>
      <trkpt lat="41.2569" lon="9.43248">
        <ele>3.5</ele>
        <time>2017-10-08T15:47:04Z</time>
      </trkpt>
      <trkpt lat="41.25694" lon="9.43209">
        <ele>3.02</ele>
        <time>2017-10-08T15:47:20Z</time>
      </trkpt>
      <trkpt lat="41.257" lon="9.43179">
        <ele>2.54</ele>
        <time>2017-10-08T15:47:41Z</time>
      </trkpt>
      <trkpt lat="41.25705" lon="9.43159">
        <ele>2.06</ele>
        <time>2017-10-08T15:47:59Z</time>
      </trkpt>
      <trkpt lat="41.25707" lon="9.43143">
        <ele>1.58</ele>
        <time>2017-10-08T15:48:14Z</time>
      </trkpt>
      <trkpt lat="41.25707" lon="9.43134">
        <ele>3.02</ele>
        <time>2017-10-08T15:48:20Z</time>
      </trkpt>
      <trkpt lat="41.25709" lon="9.43097">
        <ele>3.02</ele>
        <time>2017-10-08T15:48:43Z</time>
      </trkpt>
      <trkpt lat="41.25708" lon="9.43058">
        <ele>2.54</ele>
        <time>2017-10-08T15:49:05Z</time>
      </trkpt>
      <trkpt lat="41.25709" lon="9.43049">
        <ele>2.54</ele>
        <time>2017-10-08T15:49:10Z</time>
      </trkpt>
      <trkpt lat="41.25713" lon="9.43002">
        <ele>2.06</ele>
        <time>2017-10-08T15:49:38Z</time>
      </trkpt>
      <trkpt lat="41.2572" lon="9.42954">
        <ele>2.54</ele>
        <time>2017-10-08T15:50:05Z</time>
      </trkpt>
      <trkpt lat="41.25723" lon="9.42913">
        <ele>2.06</ele>
        <time>2017-10-08T15:50:28Z</time>
      </trkpt>
      <trkpt lat="41.25723" lon="9.42877">
        <ele>2.54</ele>
        <time>2017-10-08T15:50:48Z</time>
      </trkpt>
      <trkpt lat="41.25722" lon="9.42844">
        <ele>3.5</ele>
        <time>2017-10-08T15:51:05Z</time>
      </trkpt>
      <trkpt lat="41.2572" lon="9.42803">
        <ele>4.94</ele>
        <time>2017-10-08T15:51:27Z</time>
      </trkpt>
      <trkpt lat="41.25734" lon="9.42779">
        <ele>3.5</ele>
        <time>2017-10-08T15:51:48Z</time>
      </trkpt>
      <trkpt lat="41.25757" lon="9.42773">
        <ele>3.5</ele>
        <time>2017-10-08T15:52:12Z</time>
      </trkpt>
      <trkpt lat="41.25774" lon="9.42776">
        <ele>3.98</ele>
        <time>2017-10-08T15:52:28Z</time>
      </trkpt>
      <trkpt lat="41.25792" lon="9.42787">
        <ele>4.94</ele>
        <time>2017-10-08T15:52:50Z</time>
      </trkpt>
      <trkpt lat="41.25803" lon="9.42791">
        <ele>3.02</ele>
        <time>2017-10-08T15:53:05Z</time>
      </trkpt>
      <trkpt lat="41.25812" lon="9.42795">
        <ele>3.98</ele>
        <time>2017-10-08T15:53:22Z</time>
      </trkpt>
      <trkpt lat="41.25824" lon="9.42801">
        <ele>3.5</ele>
        <time>2017-10-08T15:53:41Z</time>
      </trkpt>
      <trkpt lat="41.25834" lon="9.42793">
        <ele>3.5</ele>
        <time>2017-10-08T15:54:00Z</time>
      </trkpt>
      <trkpt lat="41.25835" lon="9.42796">
        <ele>3.02</ele>
        <time>2017-10-08T15:54:15Z</time>
      </trkpt>
      <trkpt lat="41.25833" lon="9.42804">
        <ele>3.02</ele>
        <time>2017-10-08T15:54:35Z</time>
      </trkpt>
      <trkpt lat="41.25828" lon="9.42809">
        <ele>2.54</ele>
        <time>2017-10-08T15:54:59Z</time>
      </trkpt>
      <trkpt lat="41.25828" lon="9.42813">
        <ele>2.54</ele>
        <time>2017-10-08T15:55:18Z</time>
      </trkpt>
      <trkpt lat="41.25836" lon="9.42817">
        <ele>2.06</ele>
        <time>2017-10-08T15:55:29Z</time>
      </trkpt>
      <trkpt lat="41.25848" lon="9.42803">
        <ele>2.54</ele>
        <time>2017-10-08T15:55:48Z</time>
      </trkpt>
      <trkpt lat="41.25846" lon="9.42798">
        <ele>2.06</ele>
        <time>2017-10-08T15:55:53Z</time>
      </trkpt>
      <trkpt lat="41.25837" lon="9.42788">
        <ele>3.5</ele>
        <time>2017-10-08T15:56:06Z</time>
      </trkpt>
      <trkpt lat="41.25833" lon="9.4278">
        <ele>1.1</ele>
        <time>2017-10-08T15:56:21Z</time>
      </trkpt>
      <trkpt lat="41.25833" lon="9.42779">
        <ele>1.1</ele>
        <time>2017-10-08T15:56:37Z</time>
      </trkpt>
      <trkpt lat="41.2583" lon="9.4279">
        <ele>1.1</ele>
        <time>2017-10-08T15:57:01Z</time>
      </trkpt>
      <trkpt lat="41.25831" lon="9.42803">
        <ele>2.06</ele>
        <time>2017-10-08T15:57:15Z</time>
      </trkpt>
      <trkpt lat="41.25831" lon="9.42807">
        <ele>3.98</ele>
        <time>2017-10-08T15:57:27Z</time>
      </trkpt>
      <trkpt lat="41.25831" lon="9.42807">
        <ele>3.5</ele>
        <time>2017-10-08T15:57:52Z</time>
      </trkpt>
      <trkpt lat="41.25829" lon="9.42809">
        <ele>3.5</ele>
        <time>2017-10-08T15:58:14Z</time>
      </trkpt>
      <trkpt lat="41.25827" lon="9.42816">
        <ele>4.46</ele>
        <time>2017-10-08T15:58:34Z</time>
      </trkpt>
      <trkpt lat="41.25825" lon="9.42826">
        <ele>3.02</ele>
        <time>2017-10-08T15:58:50Z</time>
      </trkpt>
      <trkpt lat="41.25825" lon="9.42828">
        <ele>2.06</ele>
        <time>2017-10-08T15:59:10Z</time>
      </trkpt>
      <trkpt lat="41.25824" lon="9.42829">
        <ele>3.5</ele>
        <time>2017-10-08T15:59:30Z</time>
      </trkpt>
      <trkpt lat="41.25823" lon="9.4283">
        <ele>3.98</ele>
        <time>2017-10-08T15:59:51Z</time>
      </trkpt>
      <trkpt lat="41.25821" lon="9.4283">
        <ele>4.46</ele>
        <time>2017-10-08T16:00:10Z</time>
      </trkpt>
      <trkpt lat="41.2582" lon="9.4283">
        <ele>3.02</ele>
        <time>2017-10-08T16:00:28Z</time>
      </trkpt>
      <trkpt lat="41.25819" lon="9.42832">
        <ele>3.02</ele>
        <time>2017-10-08T16:00:45Z</time>
      </trkpt>
      <trkpt lat="41.25819" lon="9.42832">
        <ele>3.02</ele>
        <time>2017-10-08T16:01:00Z</time>
      </trkpt>
      <trkpt lat="41.2582" lon="9.42833">
        <ele>2.54</ele>
        <time>2017-10-08T16:01:16Z</time>
      </trkpt>
      <trkpt lat="41.25821" lon="9.42833">
        <ele>3.02</ele>
        <time>2017-10-08T16:01:32Z</time>
      </trkpt>
      <trkpt lat="41.25821" lon="9.42833">
        <ele>3.02</ele>
        <time>2017-10-08T16:01:48Z</time>
      </trkpt>
      <trkpt lat="41.25821" lon="9.42832">
        <ele>3.5</ele>
        <time>2017-10-08T16:02:04Z</time>
      </trkpt>
      <trkpt lat="41.2582" lon="9.42831">
        <ele>3.5</ele>
        <time>2017-10-08T16:02:21Z</time>
      </trkpt>
      <trkpt lat="41.25819" lon="9.42832">
        <ele>3.5</ele>
        <time>2017-10-08T16:02:33Z</time>
      </trkpt>
      <trkpt lat="41.25819" lon="9.4283">
        <ele>3.98</ele>
        <time>2017-10-08T16:02:35Z</time>
      </trkpt>
      <trkpt lat="41.2582" lon="9.42829">
        <ele>4.46</ele>
        <time>2017-10-08T16:02:40Z</time>
      </trkpt>
    </trkseg>
  </trk>
</gpx>